[[{"header":{"parameterUnit":"m.s-1","parameterCategory":1,"la1":30.6,"la2":28.766,"lo1":-90.7593,"lo2":-88.6598,"dy":0.0162,"dx":0.0183,"nx":116,"ny":114,"refTime":"2024-03-25T06:00:00:Z","depth":0,"parameterNumber":2,"parameterNumberName":"U-component_of_WINDS"},"data":[0.0,0.0,0.0,0.0,0.0,0.0,0.0,0.0,0.0,0.0,0.0,0.0,0.0,0.0,0.0,0.0,0.0,0.0,0.0,0.0,0.0,0.0,0.0,0.0,0.0,0.0,0.0,0.0,0.0,0.0,0.0,0.0,0.0,0.0,0.0,0.0,0.0,0.0,0.0,0.0,0.0,0.0,0.0,0.0,0.0,0.0,0.0,0.0,0.0,0.0,0.0,0.0,0.0,0.0,0.0,0.0,0.0,0.0,0.0,0.0,0.0,0.0,0.0,0.0,0.0,0.0,0.0,0.0,0.0,0.0,0.0,0.0,0.0,0.0,0.0,0.0,0.0,0.0,0.0,0.0,0.0,0.0,0.0,0.0,0.0,0.0,0.0,0.0,0.0,0.0,0.0,0.0,0.0,0.0,0.0,0.0,0.0,0.0,0.0,0.0,0.0,0.0,0.0,0.0,0.0,0.0,0.0,0.0,0.0,0.0,0.0,0.0,0.0,0.0,0.0,0.0,0.0,0.0,0.0,0.0,0.0,0.0,0.0,0.0,0.0,0.0,0.0,0.0,0.0,0.0,0.0,0.0,0.0,0.0,0.0,0.0,0.0,0.0,0.0,0.0,0.0,0.0,0.0,0.0,0.0,0.0,0.0,0.0,0.0,0.0,0.0,0.0,0.0,0.0,0.0,0.0,0.0,0.0,0.0,0.0,0.0,0.0,0.0,0.0,0.0,0.0,0.0,0.0,0.0,0.0,0.0,0.0,0.0,0.0,0.0,0.0,0.0,0.0,0.0,0.0,0.0,0.0,0.0,0.0,0.0,0.0,0.0,0.0,0.0,0.0,0.0,0.0,0.0,0.0,0.0,0.0,0.0,0.0,0.0,0.0,0.0,0.0,0.0,0.0,0.0,0.0,0.0,0.0,0.0,0.0,0.0,0.0,0.0,0.0,0.0,0.0,0.0,0.0,0.0,0.0,0.0,0.0,0.0,0.0,0.0,0.0,0.0,0.0,0.0,0.0,0.0,0.0,0.0,0.0,0.0,0.0,0.0,0.0,0.0,0.0,0.0,0.0,0.0,0.0,0.0,0.0,0.0,0.0,0.0,0.0,0.0,0.0,0.0,0.0,0.0,0.0,0.0,0.0,0.0,0.0,0.0,0.0,0.0,0.0,0.0,0.0,0.0,0.0,0.0,0.0,0.0,0.0,0.0,0.0,0.0,0.0,0.0,0.0,0.0,0.0,0.0,0.0,0.0,0.0,0.0,0.0,0.0,0.0,0.0,0.0,0.0,0.0,0.0,0.0,0.0,0.0,0.0,0.0,0.0,0.0,0.0,0.0,0.0,0.0,0.0,0.0,0.0,0.0,0.0,0.0,0.0,0.0,0.0,0.0,0.0,0.0,0.0,0.0,0.0,0.0,0.0,0.0,0.0,0.0,0.0,0.0,0.0,0.0,0.0,0.0,0.0,0.0,0.0,0.0,0.0,0.0,0.0,0.0,0.0,0.0,0.0,0.0,0.0,0.0,0.0,0.0,0.0,0.0,0.0,0.0,0.0,0.0,0.0,0.0,0.0,0.0,0.0,0.0,0.0,0.0,0.0,0.0,0.0,0.0,0.0,0.0,0.0,0.0,0.0,0.0,0.0,0.0,0.0,0.0,0.0,0.0,0.0,0.0,0.0,0.0,0.0,0.0,0.0,0.0,0.0,0.0,0.0,0.0,0.0,0.0,0.0,0.0,0.0,0.0,0.0,0.0,0.0,0.0,0.0,0.0,0.0,0.0,0.0,0.0,0.0,0.0,0.0,0.0,0.0,0.0,0.0,0.0,0.0,0.0,0.0,0.0,0.0,0.0,0.0,0.0,0.0,0.0,0.0,0.0,0.0,0.0,0.0,0.0,0.0,0.0,0.0,0.0,0.0,0.0,0.0,0.0,0.0,0.0,0.0,0.0,0.0,0.0,0.0,0.0,0.0,0.0,0.0,0.0,0.0,0.0,0.0,0.0,0.0,0.0,0.0,0.0,0.0,0.0,0.0,0.0,0.0,0.0,0.0,0.0,0.0,0.0,0.0,0.0,0.0,0.0,0.0,0.0,0.0,0.0,0.0,0.0,0.0,0.0,0.0,0.0,0.0,0.0,0.0,0.0,0.0,0.0,0.0,0.0,0.0,0.0,0.0,0.0,0.0,0.0,0.0,0.0,0.0,0.0,0.0,0.0,0.0,0.0,0.0,0.0,0.0,0.0,0.0,0.0,0.0,0.0,0.0,0.0,0.0,0.0,0.0,0.0,0.0,0.0,0.0,0.0,0.0,0.0,0.0,0.0,0.0,0.0,0.0,0.0,0.0,0.0,0.0,0.0,0.0,0.0,0.0,0.0,0.0,0.0,0.0,0.0,0.0,0.0,0.0,0.0,0.0,0.0,0.0,0.0,0.0,0.0,0.0,0.0,0.0,0.0,0.0,0.0,0.0,0.0,0.0,0.0,0.0,0.0,0.0,0.0,0.0,0.0,0.0,0.0,0.0,0.0,0.0,0.0,0.0,0.0,0.0,0.0,0.0,0.0,0.0,0.0,0.0,0.0,0.0,0.0,0.0,0.0,0.0,0.0,0.0,0.0,0.0,0.0,0.0,0.0,0.0,0.0,0.0,0.0,0.0,0.0,0.0,0.0,0.0,0.0,0.0,0.0,0.0,0.0,0.0,0.0,0.0,0.0,0.0,0.0,0.0,0.0,0.0,0.0,0.0,0.0,0.0,0.0,0.0,0.0,0.0,0.0,0.0,0.0,0.0,0.0,0.0,0.0,0.0,0.0,0.0,0.0,0.0,0.0,0.0,0.0,0.0,0.0,0.0,0.0,0.0,0.0,0.0,0.0,0.0,0.0,0.0,0.0,0.0,0.0,0.0,0.0,0.0,0.0,0.0,0.0,0.0,0.0,0.0,0.0,0.0,0.0,0.0,0.0,0.0,0.0,0.0,0.0,0.0,0.0,0.0,0.0,0.0,0.0,0.0,0.0,0.0,0.0,0.0,0.0,0.0,0.0,0.0,0.0,0.0,0.0,0.0,0.0,0.0,0.0,0.0,0.0,0.0,0.0,0.0,0.0,0.0,0.0,0.0,0.0,0.0,0.0,0.0,0.0,0.0,0.0,0.0,0.0,0.0,0.0,0.0,0.0,0.0,0.0,0.0,0.0,0.0,0.0,0.0,0.0,0.0,0.0,0.0,0.0,0.0,0.0,0.0,0.0,0.0,0.0,0.0,0.0,0.0,0.0,0.0,0.0,0.0,0.0,0.0,0.0,0.0,0.0,0.0,0.0,0.0,0.0,0.0,0.0,0.0,0.0,0.0,0.0,0.0,0.0,0.0,0.0,0.0,0.0,0.0,0.0,0.0,0.0,0.0,0.0,0.0,0.0,0.0,0.0,0.0,0.0,0.0,0.0,0.0,0.0,0.0,0.0,0.0,0.0,0.0,0.0,0.0,0.0,0.0,0.0,0.0,0.0,0.0,0.0,0.0,0.0,0.0,0.0,0.0,0.0,0.0,0.0,0.0,0.0,0.0,0.0,0.0,0.0,0.0,0.0,0.0,0.0,0.0,0.0,0.0,0.0,0.0,0.0,0.0,0.0,0.0,0.0,0.0,0.0,0.0,0.0,0.0,0.0,0.0,0.0,0.0,0.0,0.0,0.0,0.0,0.0,0.0,0.0,0.0,0.0,0.0,0.0,0.0,0.0,0.0,0.0,0.0,0.0,0.0,0.0,0.0,0.0,0.0,0.0,0.0,0.0,0.0,0.0,0.0,0.0,0.0,0.0,0.0,0.0,0.0,0.0,0.0,0.0,0.0,0.0,0.0,0.0,0.0,0.0,0.0,0.0,0.0,0.0,0.0,0.0,0.0,0.0,0.0,0.0,0.0,0.0,0.0,0.0,0.0,0.0,0.0,0.0,0.0,0.0,0.0,0.0,0.0,0.0,0.0,0.0,0.0,0.0,0.0,0.0,0.0,0.0,0.0,0.0,0.0,0.0,0.0,0.0,0.0,0.0,0.0,0.0,0.0,0.0,0.0,0.0,0.0,0.0,0.0,0.0,0.0,0.0,0.0,0.0,0.0,0.0,0.0,0.0,0.0,0.0,0.0,0.0,0.0,0.0,0.0,0.0,0.0,0.0,0.0,0.0,0.0,0.0,0.0,0.0,0.0,0.0,0.0,0.0,0.0,0.0,0.0,0.0,0.0,0.0,0.0,0.0,0.0,0.0,0.0,0.0,0.0,0.0,0.0,0.0,0.0,0.0,0.0,0.0,0.0,0.0,0.0,0.0,0.0,0.0,0.0,0.0,0.0,0.0,0.0,0.0,0.0,0.0,0.0,0.0,0.0,0.0,0.0,0.0,0.0,0.0,0.0,0.0,0.0,0.0,0.0,0.0,0.0,0.0,0.0,0.0,0.0,0.0,0.0,0.0,0.0,0.0,0.0,0.0,0.0,0.0,0.0,0.0,0.0,0.0,0.0,0.0,0.0,0.0,0.0,0.0,0.0,0.0,0.0,0.0,0.0,0.0,0.0,0.0,0.0,0.0,0.0,0.0,0.0,0.0,0.0,0.0,0.0,0.0,0.0,0.0,0.0,0.0,0.0,0.0,0.0,0.0,0.0,0.0,0.0,0.0,0.0,0.0,0.0,0.0,0.0,0.0,0.0,0.0,0.0,0.0,0.0,0.0,0.0,0.0,0.0,0.0,0.0,0.0,0.0,0.0,0.0,0.0,0.0,0.0,0.0,0.0,0.0,0.0,0.0,0.0,0.0,0.0,0.0,0.0,0.0,0.0,0.0,0.0,0.0,0.0,0.0,0.0,0.0,0.0,0.0,0.0,0.0,0.0,0.0,0.0,0.0,0.0,0.0,0.0,0.0,0.0,0.0,0.0,0.0,0.0,0.0,0.0,0.0,0.0,0.0,0.0,0.0,0.0,0.0,0.0,0.0,0.0,0.0,0.0,0.0,0.0,0.0,0.0,0.0,0.0,0.0,0.0,0.0,0.0,0.0,0.0,0.0,0.0,0.0,0.0,0.0,0.0,0.0,0.0,0.0,0.0,0.0,0.0,0.0,0.0,0.0,0.0,0.0,0.0,0.0,0.0,0.0,0.0,0.0,0.0,0.0,0.0,0.0,0.0,0.0,0.0,0.0,0.0,0.0,0.0,0.0,0.0,0.0,0.0,0.0,0.0,0.0,0.0,0.0,0.0,0.0,0.0,0.0,0.0,0.0,0.0,0.0,0.0,0.0,0.0,0.0,0.0,0.0,0.0,0.0,0.0,0.0,0.0,0.0,0.0,0.0,0.0,0.0,0.0,0.0,0.0,0.0,0.0,0.0,0.0,0.0,0.0,0.0,0.0,0.0,0.0,0.0,0.0,0.0,0.0,0.0,0.0,0.0,0.0,0.0,0.0,0.0,0.0,0.0,0.0,0.0,0.0,0.0,0.0,0.0,0.0,0.0,0.0,0.0,0.0,0.0,0.0,0.0,0.0,0.0,0.0,0.0,0.0,0.0,0.0,0.0,0.0,0.0,0.0,0.0,0.0,0.0,0.0,0.0,0.0,0.0,0.0,0.0,0.0,0.0,0.0,0.0,0.0,0.0,0.0,0.0,0.0,0.0,0.0,0.0,0.0,0.0,0.0,0.0,0.0,0.0,0.0,0.0,0.0,0.0,0.0,0.0,0.0,0.0,0.0,0.0,0.0,0.0,0.0,0.0,0.0,0.0,0.0,0.0,0.0,0.0,0.0,0.0,0.0,0.0,0.0,0.0,0.0,0.0,0.0,0.0,0.0,0.0,0.0,0.0,0.0,0.0,0.0,0.0,0.0,0.0,0.0,0.0,0.0,0.0,0.0,0.0,0.0,0.0,0.0,0.0,0.0,0.0,0.0,0.0,0.0,0.0,0.0,0.0,0.0,0.0,0.0,0.0,0.0,0.0,0.0,0.0,0.0,0.0,0.0,0.0,0.0,0.0,0.0,0.0,0.0,0.0,0.0,0.0,0.0,0.0,0.0,0.0,0.0,0.0,0.0,0.0,0.0,0.0,0.0,0.0,0.0,0.0,0.0,0.0,0.0,0.0,0.0,-2.1981,0.0,0.0,0.0,0.0,0.0,0.0,0.0,0.0,0.0,0.0,0.0,0.0,0.0,0.0,0.0,0.0,0.0,0.0,0.0,0.0,0.0,0.0,0.0,0.0,0.0,0.0,0.0,0.0,0.0,0.0,0.0,0.0,0.0,0.0,0.0,-2.0844,-2.0958,-2.0942,-2.0844,-2.0731,-2.0667,-2.0667,-2.0283,-1.9695,-1.8981,0.0,0.0,0.0,0.0,0.0,0.0,0.0,0.0,0.0,0.0,0.0,0.0,0.0,0.0,0.0,0.0,0.0,0.0,0.0,0.0,0.0,0.0,0.0,0.0,0.0,0.0,0.0,0.0,0.0,0.0,0.0,0.0,0.0,0.0,0.0,0.0,0.0,0.0,0.0,0.0,0.0,0.0,0.0,0.0,0.0,0.0,0.0,0.0,0.0,0.0,0.0,0.0,0.0,0.0,0.0,0.0,0.0,0.0,0.0,0.0,0.0,0.0,0.0,0.0,0.0,0.0,0.0,0.0,0.0,0.0,0.0,-2.2819,0.0,0.0,0.0,0.0,0.0,0.0,0.0,0.0,0.0,0.0,0.0,0.0,0.0,0.0,0.0,0.0,0.0,0.0,0.0,0.0,0.0,-1.9925,-2.0275,-2.0294,-2.0446,-2.0778,-2.0844,-2.0909,0.0,0.0,0.0,0.0,0.0,-2.1245,-2.1071,-2.1134,-2.1087,-2.0958,-2.1293,-2.1463,-2.1463,-2.1463,-2.0894,-1.9895,-1.9788,0.0,0.0,0.0,0.0,0.0,0.0,0.0,0.0,0.0,0.0,0.0,0.0,0.0,0.0,0.0,0.0,0.0,0.0,0.0,0.0,0.0,0.0,0.0,0.0,0.0,0.0,0.0,0.0,0.0,0.0,0.0,0.0,0.0,0.0,0.0,0.0,0.0,0.0,0.0,0.0,0.0,0.0,0.0,0.0,0.0,0.0,0.0,0.0,0.0,0.0,0.0,0.0,0.0,0.0,0.0,0.0,0.0,0.0,0.0,0.0,0.0,0.0,0.0,-2.4137,-2.4053,-2.4349,-2.4025,-2.393,-2.4017,-2.3749,-2.3574,-2.349,0.0,0.0,0.0,0.0,0.0,0.0,0.0,0.0,0.0,0.0,0.0,0.0,0.0,0.0,0.0,0.0,0.0,0.0,0.0,0.0,-2.0277,-2.0679,-2.0712,-2.0745,-2.0794,-2.1071,-2.1135,-2.0926,-2.1182,-2.1261,-2.1055,-2.1323,-2.1432,-2.1355,-2.163,-2.1735,-2.1661,-2.1953,-2.2079,-2.2079,-2.2079,-2.1878,-2.1477,-2.0894,-2.0597,-2.0563,0.0,0.0,0.0,0.0,0.0,0.0,0.0,0.0,0.0,0.0,0.0,0.0,0.0,0.0,0.0,0.0,0.0,0.0,0.0,0.0,0.0,0.0,0.0,0.0,0.0,0.0,0.0,0.0,0.0,0.0,0.0,0.0,0.0,0.0,0.0,0.0,0.0,0.0,0.0,0.0,0.0,-2.4247,-2.4256,0.0,0.0,0.0,0.0,0.0,0.0,0.0,0.0,0.0,0.0,0.0,0.0,0.0,-2.4851,-2.4657,-2.465,-2.4665,-2.47,-2.4618,-2.461,-2.465,-2.4583,-2.4575,-2.4599,-2.4551,0.0,-2.3847,-2.41,0.0,0.0,0.0,0.0,0.0,0.0,0.0,0.0,0.0,0.0,0.0,0.0,0.0,0.0,0.0,0.0,0.0,0.0,0.0,0.0,0.0,-2.1071,-2.1167,-2.1355,-2.151,-2.154,-2.1478,-2.16,-2.1645,-2.1567,-2.1703,-2.1838,-2.1955,-2.2115,-2.2229,-2.2309,-2.2433,-2.247,-2.247,-2.247,-2.2419,-2.2295,-2.201,-2.1568,-2.1071,-2.1071,0.0,0.0,0.0,0.0,0.0,0.0,0.0,0.0,0.0,0.0,0.0,0.0,0.0,0.0,0.0,0.0,0.0,0.0,0.0,0.0,0.0,0.0,0.0,0.0,0.0,0.0,0.0,0.0,0.0,0.0,0.0,0.0,0.0,0.0,0.0,0.0,0.0,0.0,0.0,-2.4459,-2.4578,-2.4578,-2.4708,-2.484,0.0,0.0,0.0,0.0,0.0,0.0,0.0,0.0,0.0,-2.4908,-2.5038,-2.5012,-2.4804,-2.4926,-2.4973,-2.4973,-2.4865,-2.4872,-2.4985,-2.4865,-2.4872,-2.4973,-2.4973,-2.4842,-2.4637,-2.4551,-2.4578,-2.4644,0.0,0.0,0.0,0.0,-2.4578,-2.4534,0.0,0.0,0.0,0.0,0.0,0.0,0.0,0.0,0.0,0.0,0.0,0.0,-2.1387,-2.1433,-2.1541,-2.1766,-2.1869,-2.1882,-2.1884,-2.194,-2.2013,-2.2053,-2.2053,-2.2167,-2.248,-2.248,-2.2584,-2.2807,-2.2807,-2.2807,-2.2807,-2.2807,-2.2769,-2.2703,-2.2703,-2.2323,-2.1645,-2.157,-2.1385,-2.115,0.0,0.0,0.0,0.0,0.0,0.0,0.0,0.0,0.0,0.0,0.0,0.0,0.0,0.0,0.0,0.0,0.0,0.0,0.0,0.0,0.0,0.0,0.0,0.0,0.0,0.0,0.0,0.0,0.0,0.0,0.0,0.0,0.0,0.0,0.0,0.0,0.0,-2.4719,-2.4764,-2.4763,-2.4903,-2.5031,0.0,0.0,0.0,0.0,0.0,0.0,-2.5261,-2.5261,-2.5179,-2.5024,-2.5174,-2.5174,-2.5024,-2.5174,-2.5261,-2.5255,-2.5109,-2.5109,-2.5255,-2.5103,-2.5115,-2.5255,-2.5228,-2.5228,-2.522,-2.4934,-2.4898,-2.4967,-2.4877,-2.4879,-2.4961,-2.4808,-2.4749,-2.4742,0.0,0.0,0.0,0.0,0.0,0.0,0.0,0.0,0.0,0.0,0.0,-2.1402,-2.1753,-2.1766,-2.1766,-2.1812,-2.2025,-2.2068,-2.1811,-2.2039,-2.2178,-2.2192,-2.2192,-2.2347,-2.269,-2.2673,-2.2807,-2.3082,-2.3082,-2.3082,-2.3082,-2.3082,-2.2935,-2.2703,-2.2703,-2.266,-2.2607,-2.2275,-2.215,-2.2079,-2.1509,0.0,0.0,0.0,0.0,0.0,0.0,0.0,0.0,0.0,0.0,0.0,0.0,0.0,0.0,0.0,0.0,0.0,0.0,0.0,0.0,0.0,0.0,0.0,0.0,0.0,0.0,0.0,0.0,0.0,0.0,0.0,0.0,0.0,0.0,0.0,0.0,0.0,0.0,-2.4978,-2.5168,0.0,0.0,0.0,0.0,-2.5293,-2.5352,-2.5398,-2.5398,-2.5398,-2.5394,-2.5371,-2.5375,-2.5394,-2.5371,-2.5375,-2.5398,-2.5398,-2.5375,-2.5375,-2.5398,-2.5375,-2.5375,-2.5394,-2.5322,-2.5336,-2.5386,-2.5225,-2.5174,-2.518,-2.5174,-2.5174,-2.5168,-2.4967,-2.4895,-2.4874,0.0,0.0,0.0,0.0,0.0,0.0,-2.0361,-2.0713,-2.1007,-2.115,-2.1433,-2.1678,-2.1797,-2.1955,-2.2053,-2.2053,-2.2347,-2.2487,-2.2378,-2.2473,-2.2527,-2.2527,-2.2527,-2.266,-2.2952,-2.3126,-2.3259,-2.3348,-2.3348,-2.3348,-2.3348,-2.3348,-2.3313,-2.3211,-2.3211,-2.3114,-2.294,-2.2647,-2.2527,-2.247,-2.2053,-2.188,0.0,0.0,0.0,0.0,0.0,0.0,0.0,0.0,0.0,0.0,0.0,0.0,0.0,0.0,0.0,0.0,0.0,0.0,0.0,0.0,0.0,0.0,0.0,0.0,0.0,0.0,0.0,0.0,0.0,0.0,0.0,0.0,0.0,0.0,0.0,0.0,0.0,-2.5128,-2.5228,0.0,-2.5357,-2.539,-2.5403,-2.5425,-2.5403,-2.5391,-2.5391,-2.5391,-2.5391,-2.5391,-2.5391,-2.5666,-2.6231,-2.625,-2.6521,-2.7071,-2.7071,-2.7071,-2.7071,-2.7071,-2.7071,-2.7066,-2.7056,-2.7041,-2.7062,-2.7025,-2.6333,-2.5336,-2.5336,-2.5336,-2.5312,-2.5255,-2.5194,-2.5154,0.0,0.0,0.0,0.0,0.0,0.0,-2.073,-2.1039,-2.1277,-2.1324,-2.1661,-2.1913,-2.1913,-2.2181,-2.2375,-2.2375,-2.2647,-2.2794,-2.2717,-2.2782,-2.2833,-2.2833,-2.2922,-2.3047,-2.3229,-2.3407,-2.3505,-2.3505,-2.3773,-2.3898,-2.3915,-2.4165,-2.4272,-2.4272,-2.4272,-2.4046,-2.3629,-2.345,-2.3046,-2.251,-2.2275,-2.2206,-2.2192,0.0,0.0,0.0,0.0,0.0,0.0,0.0,0.0,0.0,0.0,0.0,0.0,0.0,0.0,0.0,0.0,0.0,0.0,0.0,0.0,0.0,0.0,0.0,0.0,0.0,0.0,0.0,0.0,0.0,0.0,0.0,0.0,0.0,0.0,0.0,-2.5239,-2.5262,-2.5331,-2.5371,-2.5425,-2.5476,-2.5499,-2.5501,-2.5502,-2.5625,-2.5897,-2.5916,-2.6036,-2.6346,-2.6346,-2.6618,-2.7203,-2.7203,-2.7494,-2.8061,-2.8061,-2.8061,-2.8061,-2.8061,-2.8061,-2.808,-2.8035,-2.8058,-2.808,-2.8035,-2.7376,-2.6343,-2.6289,-2.6289,-2.6289,-2.6289,-2.6058,-2.5744,0.0,0.0,0.0,0.0,0.0,-2.1324,-2.1386,-2.1402,-2.1449,-2.1589,-2.1899,-2.211,-2.211,-2.2473,-2.2717,-2.2717,-2.2965,-2.3003,-2.2743,-2.2977,-2.3119,-2.3119,-2.336,-2.3505,-2.3505,-2.3523,-2.3541,-2.3541,-2.4337,-2.473,-2.4748,-2.5479,-2.58,-2.58,-2.58,-2.5396,-2.4718,-2.4718,-2.3771,-2.2254,-2.222,-2.222,-2.2248,0.0,0.0,0.0,0.0,0.0,0.0,0.0,0.0,0.0,0.0,0.0,0.0,0.0,0.0,0.0,0.0,0.0,0.0,0.0,0.0,0.0,0.0,0.0,0.0,0.0,0.0,0.0,0.0,0.0,0.0,0.0,0.0,0.0,-2.5214,-2.5266,-2.5327,-2.5379,-2.546,-2.5501,-2.554,-2.5651,-2.568,-2.5587,-2.5693,-2.6128,-2.6905,-2.6944,-2.7333,-2.8171,-2.8191,-2.821,-2.8249,-2.8249,-2.8269,-2.8327,-2.8327,-2.8346,-2.8366,-2.8366,-2.8366,-2.8364,-2.8296,-2.8304,-2.8364,-2.8296,-2.8304,-2.8337,-2.8108,-2.8012,-2.8012,-2.8012,-2.7466,-2.6637,0.0,0.0,0.0,0.0,0.0,-2.1325,-2.1324,-2.1371,-2.1402,-2.1449,-2.1838,-2.211,-2.211,-2.2634,-2.299,-2.299,-2.3241,-2.336,-2.3283,-2.3348,-2.3383,-2.3383,-2.3471,-2.3505,-2.3505,-2.4058,-2.4373,-2.4373,-2.514,-2.5497,-2.5497,-2.5711,-2.58,-2.58,-2.58,-2.5575,-2.5213,-2.5213,-2.4488,-2.3306,-2.2773,-2.2567,-2.2554,0.0,0.0,0.0,0.0,0.0,0.0,0.0,0.0,0.0,0.0,0.0,0.0,0.0,0.0,0.0,0.0,0.0,0.0,0.0,0.0,0.0,0.0,0.0,0.0,0.0,0.0,0.0,0.0,0.0,0.0,0.0,0.0,-2.601,-2.5369,-2.5336,-2.5382,-2.5406,-2.546,-2.5757,-2.6378,-2.6527,-2.6823,-2.7413,-2.7483,-2.7606,-2.782,-2.784,-2.7957,-2.8191,-2.8191,-2.8502,-2.9145,-2.9145,-2.979,-3.104,-3.104,-3.1352,-3.1975,-3.1975,-3.1975,-3.1973,-3.194,-3.1943,-3.1973,-3.194,-3.1943,-3.1717,-2.9157,-2.8151,-2.8151,-2.8151,-2.7996,-2.776,0.0,0.0,0.0,0.0,0.0,-2.1293,-2.1293,-2.134,-2.1371,-2.1371,-2.1779,-2.211,-2.222,-2.2751,-2.3156,-2.3265,-2.3407,-2.3505,-2.3505,-2.3505,-2.3505,-2.3505,-2.3505,-2.3666,-2.4005,-2.4462,-2.4855,-2.5158,-2.5925,-2.63,-2.63,-2.6657,-2.6804,-2.6804,-2.6804,-2.653,-2.6074,-2.6074,-2.5455,-2.4416,-2.3667,-2.3167,-2.2859,-2.279,-2.2803,-2.2876,-2.2876,-2.2876,-2.2846,-2.2734,0.0,0.0,0.0,0.0,0.0,0.0,0.0,0.0,0.0,0.0,0.0,0.0,0.0,0.0,0.0,0.0,0.0,0.0,0.0,0.0,0.0,0.0,0.0,0.0,-2.6843,-2.7054,-2.6543,-2.6506,-2.6532,-2.6532,-2.6595,-2.6823,-2.7332,-2.7415,-2.7645,-2.8152,-2.8191,-2.8366,-2.8736,-2.8736,-2.9087,-2.981,-2.9829,-3.0414,-3.1622,-3.1641,-3.2323,-3.369,-3.369,-3.3963,-3.445,-3.445,-3.4255,0.0,-3.3904,-3.3709,-3.3397,-3.3397,-3.3397,0.0,0.0,0.0,0.0,0.0,-2.8736,-2.8693,0.0,0.0,0.0,0.0,0.0,-2.1246,-2.1293,-2.1293,-2.1293,-2.1293,-2.1705,-2.2096,-2.2327,-2.2803,-2.3205,-2.343,-2.3494,-2.3505,-2.3505,-2.3505,-2.3505,-2.3505,-2.3594,-2.3969,-2.4676,-2.4873,-2.5283,-2.5943,-2.6746,-2.7139,-2.7139,-2.7857,-2.8196,-2.8196,-2.8196,-2.7803,-2.7139,-2.7139,-2.6539,-2.5517,-2.4765,-2.3965,-2.3255,-2.3395,-2.3324,-2.3156,-2.3156,-2.3156,-2.3114,-2.2883,0.0,0.0,0.0,0.0,0.0,0.0,0.0,0.0,0.0,0.0,0.0,0.0,0.0,0.0,0.0,0.0,0.0,0.0,0.0,0.0,0.0,0.0,0.0,0.0,-2.8059,-2.8252,-2.8259,-2.8336,-2.8336,-2.8123,-2.8165,-2.8249,-2.8346,-2.8346,-2.8385,-2.8483,-2.8678,-2.9126,-2.9905,0.0,0.0,0.0,0.0,-3.3242,-3.472,-3.4739,-3.5187,-3.6045,-3.6045,-3.6103,-3.6181,-3.6181,-3.5772,-3.5032,-3.5032,-3.4625,-3.3982,-3.3982,-3.3865,-3.3592,-3.2618,-3.2248,-3.2053,-3.0511,-2.9944,-2.9827,0.0,0.0,0.0,0.0,0.0,-2.099,-2.1246,-2.1293,-2.1293,-2.1293,-2.1705,-2.201,-2.2068,-2.2686,-2.3132,-2.318,-2.3389,-2.3505,-2.3505,-2.3505,-2.3505,-2.3505,-2.4112,-2.4534,-2.4694,-2.5908,-2.6621,-2.6777,-2.7567,-2.7964,-2.7964,-2.8124,-2.8196,-2.8196,-2.8196,-2.8106,-2.7964,-2.7964,-2.7469,-2.6627,-2.5831,-2.4923,-2.3992,-2.3397,-2.3277,-2.3418,-2.3418,-2.3418,-2.3418,-2.3441,-2.3504,-2.3623,-2.3627,0.0,0.0,0.0,0.0,0.0,0.0,0.0,0.0,0.0,0.0,0.0,0.0,0.0,0.0,0.0,0.0,0.0,0.0,0.0,0.0,-2.7951,-2.864,-2.9162,-2.9223,-2.9832,-2.9754,-2.8352,-2.8186,-2.8483,-2.9184,-2.9243,-2.9535,-3.0236,-3.1602,-3.2462,-3.2638,-3.3921,-3.4817,-3.5148,-3.5168,-3.5324,-3.5655,-3.5655,-3.6084,-3.6941,0.0,0.0,-3.7993,-3.7993,-3.7915,-3.7759,-3.7759,-3.7662,-3.7506,-3.7506,-3.6688,-3.5265,-3.3748,-3.3144,-3.3105,-3.2774,-3.2657,-3.2618,0.0,0.0,0.0,0.0,0.0,-2.0909,-2.1246,-2.1293,-2.1293,-2.1293,-2.1602,-2.1855,-2.1984,-2.2388,-2.2712,-2.2884,-2.3139,-2.3348,-2.3494,-2.3505,-2.3505,-2.3505,-2.4284,-2.4873,-2.5247,-2.6389,-2.7192,-2.7603,-2.7999,-2.8196,-2.8196,-2.8196,-2.8196,-2.8196,-2.8196,-2.8196,-2.8196,-2.8196,-2.7964,-2.7496,-2.63,-2.5493,-2.4918,-2.3755,-2.3383,-2.3505,-2.3505,-2.3505,-2.3517,-2.3618,-2.3667,-2.3711,-2.3779,-2.3803,-2.3878,0.0,0.0,0.0,0.0,0.0,0.0,0.0,0.0,0.0,0.0,0.0,0.0,0.0,0.0,-2.8805,0.0,0.0,-2.9149,-2.9206,-2.9721,-3.0111,-3.0154,-3.0528,-3.049,-2.9593,-2.9496,-2.9847,-3.0726,-3.1193,-3.1797,-3.2635,-3.3902,-3.4645,-3.4645,-3.5441,-3.6103,-3.6532,-3.6551,-3.696,-3.7837,-3.7857,-3.8285,-3.9143,-3.9143,-3.9376,-3.9805,-3.9805,-3.9552,-3.9143,-3.9143,-3.8909,-3.85,-3.85,-3.7993,-3.7116,-3.6279,-3.4917,-3.3397,-3.3397,-3.3397,-3.3397,0.0,0.0,0.0,0.0,0.0,-2.0794,-2.1151,-2.1246,-2.1293,-2.1293,-2.145,-2.1648,-2.1899,-2.2082,-2.2334,-2.266,-2.2897,-2.3126,-2.3395,-2.3407,-2.3448,-2.3505,-2.4284,-2.5051,-2.5783,-2.6586,-2.7388,-2.8196,-2.8196,-2.8196,-2.8196,-2.8196,-2.8196,-2.8196,-2.8196,-2.8196,-2.8196,-2.8196,-2.8196,-2.8071,-2.6448,-2.58,-2.5627,-2.4094,-2.3505,-2.3505,-2.3505,-2.3505,-2.3528,-2.3634,-2.3797,-2.3938,-2.4006,-2.4139,-2.4404,-2.511,-2.5303,0.0,0.0,0.0,0.0,0.0,0.0,0.0,0.0,0.0,-2.912,-2.9764,-2.9996,-3.0057,-3.0034,-3.0271,-3.0472,-3.0434,-3.0639,-3.086,-3.1035,-3.1055,-3.1171,-3.1503,-3.1249,-3.1466,-3.2482,-3.3222,-3.3963,-3.4798,-3.5811,-3.6415,-3.6415,-3.6571,-3.698,-3.7681,-3.7545,-3.8129,-3.9532,-3.9552,-3.998,-4.0854,-4.0854,-4.0932,-4.1107,-4.1107,-4.0718,-4.0058,-4.0058,-3.9649,-3.8987,-3.8811,-3.8753,-3.8733,-3.8578,-3.6824,-3.4372,-3.4196,-3.4021,-3.3885,0.0,0.0,0.0,0.0,0.0,0.0,-2.0794,-2.1103,-2.1293,-2.1293,-2.1371,-2.148,-2.1619,-2.1926,-2.2278,-2.2677,-2.273,-2.2859,-2.3132,-2.3126,-2.3253,-2.3494,-2.4284,-2.5051,-2.5783,-2.6586,-2.7388,-2.8196,-2.8196,-2.8196,-2.8196,-2.8196,-2.8196,-2.8196,-2.8196,-2.8196,-2.8196,-2.8196,-2.8196,-2.8071,-2.6448,-2.58,-2.5627,-2.4094,-2.3505,-2.3505,-2.3505,-2.3505,-2.3517,-2.3585,-2.413,-2.4773,-2.484,-2.5355,-2.5996,-2.6318,0.0,-2.6644,-2.7625,-2.8557,-2.9175,-2.8693,-2.9101,-2.9461,0.0,0.0,-2.9802,-2.9878,-2.9905,-2.9961,-3.0142,-3.0303,-3.0448,-3.0565,-3.0701,-3.1074,-3.1858,-3.1956,-3.2501,-3.3999,-3.2852,-3.2579,-3.4177,-3.4411,-3.4817,-3.5694,-3.7272,-3.8207,-3.8207,-3.8948,-3.9415,-3.9513,-3.8753,-3.8441,-3.8636,-3.8656,-3.9084,-3.9941,-3.9941,-4.0351,-4.1107,-4.1107,-4.1049,-4.0951,-4.0951,-4.0893,-4.0757,-3.998,-3.9649,-3.9571,-3.8792,-3.8266,-3.7837,-3.7058,-3.6279,-3.5616,0.0,0.0,0.0,0.0,0.0,0.0,0.0,-2.086,-2.1071,-2.1262,-2.1371,-2.1417,-2.148,-2.1706,-2.2013,-2.2375,-2.2416,-2.2537,-2.2846,-2.3015,-2.3156,-2.3265,-2.4183,-2.4837,-2.5158,-2.6371,-2.7157,-2.7496,-2.7964,-2.8196,-2.8196,-2.8196,-2.8196,-2.8196,-2.8196,-2.8196,-2.8196,-2.8196,-2.7928,-2.7406,-2.6264,-2.5551,-2.5051,-2.3915,-2.3505,-2.3559,-2.4022,-2.4212,0.0,0.0,-2.5219,-2.5583,-2.5793,-2.6011,-2.6375,-2.7216,-2.7382,0.0,-2.8659,-2.9289,0.0,0.0,-2.965,-2.9821,-2.948,-2.9669,-2.9897,-2.9897,-2.9953,-3.0049,-3.0135,-3.0316,-3.0477,0.0,-3.0648,-3.1051,-3.191,-3.2511,-3.3475,-3.5168,-3.5187,-3.5343,-3.6045,-3.6571,-3.7019,-3.7389,-3.8558,-3.9045,-3.8539,-3.885,-3.9045,-3.9045,-3.9182,-3.926,-3.926,-3.9766,-4.0195,-4.0565,-4.0565,-4.0757,-4.1107,-4.1107,-4.1107,-4.1107,-4.1107,-4.1107,-4.1068,-4.0718,-4.0565,-4.0526,-4.0156,-3.9708,-3.9143,-3.8285,-3.772,-3.7331,0.0,0.0,0.0,0.0,0.0,0.0,0.0,0.0,-2.0745,-2.1119,-2.1198,-2.1277,-2.1386,-2.1556,-2.1783,-2.2039,-2.2053,-2.2209,-2.2541,-2.2738,-2.2922,-2.3077,-2.377,-2.433,-2.4694,-2.572,-2.6503,-2.7009,-2.7585,-2.7981,-2.8196,-2.8196,-2.8196,-2.8196,-2.8196,-2.8029,-2.7761,-2.7761,-2.7281,-2.6494,-2.5699,-2.5114,-2.4605,-2.3808,-2.3648,-2.3915,-2.4498,-2.4694,0.0,0.0,-2.6116,-2.6375,-2.6645,-2.6836,-2.7162,-2.8135,-2.841,-2.857,-2.9439,0.0,0.0,-2.9864,-2.9897,-2.9897,-2.9897,-2.9897,-2.9897,-2.9897,-2.9988,-3.0072,-3.0138,-3.0316,0.0,-3.0521,-3.0832,-3.1446,-3.2535,-3.3472,-3.4769,-3.6696,-3.7475,-3.7868,-3.7868,-3.8228,-3.8468,-3.8468,-3.9062,-3.9137,-3.8514,-3.8452,-3.8432,-3.8432,-3.9055,-3.9386,-3.9386,-4.0009,-4.0457,-4.0691,-4.0691,-4.0811,-4.1075,-4.1085,-4.1107,-4.1107,-4.1107,-4.1107,-4.1107,-4.1107,-4.1107,-4.1107,-4.1107,-4.0718,-4.0078,-3.9454,-3.8909,-3.8402,0.0,0.0,0.0,0.0,0.0,0.0,0.0,0.0,0.0,-2.0761,-2.0811,-2.0974,-2.1355,-2.1527,-2.1619,-2.1724,-2.1724,-2.1855,-2.2192,-2.222,-2.2497,-2.3065,-2.2876,-2.3357,-2.4664,-2.4496,-2.5239,-2.7009,-2.7027,-2.7442,-2.8196,-2.8196,-2.8196,-2.8196,-2.8196,-2.7627,-2.6644,-2.6644,-2.619,-2.5371,-2.4651,-2.4491,-2.4605,-2.3808,-2.3969,-2.4676,-2.4694,0.0,0.0,0.0,-2.6523,-2.7173,-2.7247,-2.8033,0.0,-2.9193,-2.9542,0.0,0.0,0.0,-2.9888,-2.9897,-2.9897,-2.9897,-2.9897,-2.9897,-2.9897,-2.9897,-2.9897,-2.9996,-3.0246,-3.0291,-3.0381,-3.0561,-3.136,-3.2532,-3.4183,-3.5189,-3.6664,-3.9198,-3.9509,-3.9533,0.0,-3.886,-3.8396,-3.8396,-3.842,-3.8438,-3.8399,-3.8333,-3.8313,-3.8313,-3.8324,-3.8339,-3.8339,-3.8378,-3.881,-3.9645,-3.9645,-4.0118,-4.1019,-4.1075,-4.1107,-4.1107,-4.1107,-4.1107,-4.1107,-4.1107,-4.1107,-4.1107,-4.1107,-4.1088,-4.1049,-4.1029,-3.9961,-3.85,0.0,0.0,0.0,0.0,0.0,0.0,0.0,0.0,0.0,0.0,0.0,0.0,0.0,0.0,0.0,0.0,0.0,0.0,-2.1855,-2.2082,-2.2289,-2.2497,-2.2634,-2.2916,-2.3357,-2.3971,-2.448,-2.4873,-2.5777,-2.6167,-2.6072,-2.6271,-2.6257,-2.6072,-2.6072,-2.5876,-2.5529,-2.5529,-2.5209,-2.4655,-2.4409,-2.4143,-2.3862,-2.3594,-2.4005,-2.4766,0.0,0.0,0.0,0.0,0.0,0.0,-2.8227,0.0,0.0,-2.9405,0.0,0.0,0.0,0.0,-2.9897,-2.9897,-2.9897,-2.9897,-2.9897,-2.9897,-2.994,-3.0007,-3.0109,-3.0207,-3.0348,-3.0439,-3.0525,-3.0592,-3.1357,-3.2531,-3.4257,-3.5758,-3.7387,-3.9368,-3.9606,0.0,0.0,0.0,0.0,-3.7611,-3.8026,-3.8095,-3.7571,-3.8013,-3.83,-3.83,-3.8863,-3.9155,-3.9155,-3.9737,-4.0169,-4.0461,-4.0461,-4.0625,-4.093,-4.0967,-4.0988,-4.1034,-4.1034,-4.1068,-4.1107,-4.1107,-4.1107,-4.1107,-4.1107,-4.1107,-4.1107,-4.1107,-4.0737,-4.0136,0.0,0.0,0.0,0.0,0.0,0.0,0.0,0.0,0.0,0.0,0.0,0.0,0.0,0.0,0.0,0.0,0.0,0.0,0.0,-2.1899,-2.2068,-2.215,-2.2292,-2.2473,-2.2703,-2.3249,-2.363,-2.3808,-2.466,-2.5063,-2.5005,-2.5174,-2.5174,-2.5005,-2.5005,-2.4795,-2.4437,-2.4437,-2.4247,-2.3917,-2.3653,-2.3554,-2.3569,-2.3401,-2.3856,0.0,0.0,0.0,0.0,0.0,0.0,0.0,0.0,0.0,0.0,0.0,0.0,-2.9897,0.0,-2.9897,-2.9897,-2.9897,-2.9897,-2.9897,-2.9897,-2.9897,-2.9929,-3.0079,-3.0166,-3.026,-3.0375,-3.0458,-3.0611,-3.0975,-3.1976,-3.3345,-3.5117,-3.6852,-3.8462,-3.9858,-3.9747,0.0,0.0,0.0,0.0,-3.7171,-3.7526,-3.771,-3.7492,-3.8287,-3.8733,-3.8733,-3.9567,-4.0033,-4.0033,-4.0581,-4.0853,-4.0853,-4.0854,-4.0859,-4.0859,-4.0898,-4.0926,-4.0952,-4.0952,-4.0988,-4.103,-4.1045,-4.1052,-4.1071,-4.1085,-4.1107,-4.1107,-4.1107,-4.1107,-4.101,0.0,0.0,0.0,0.0,0.0,0.0,0.0,0.0,0.0,0.0,0.0,0.0,0.0,0.0,0.0,0.0,0.0,0.0,0.0,-2.1664,-2.1796,-2.2068,-2.1882,-2.2056,-2.2651,-2.2361,-2.2702,-2.3698,-2.3712,-2.4105,-2.4827,-2.4841,-2.4841,-2.4844,-2.4844,-2.4259,-2.3306,-2.3306,-2.3291,-2.3177,-2.2479,-2.2767,-2.3595,-2.3227,0.0,0.0,0.0,0.0,0.0,0.0,0.0,0.0,0.0,0.0,0.0,0.0,0.0,-2.9897,-2.9897,-2.9897,-2.9897,-2.9897,-2.9897,-2.9897,-2.9897,-2.9897,-2.9937,-3.0087,-3.0109,-3.0161,0.0,0.0,-3.0611,-3.1569,-3.3081,-3.4762,-3.6576,-3.8334,-3.9771,0.0,0.0,0.0,0.0,0.0,0.0,-3.7186,0.0,-3.7386,-3.8212,-3.9094,-3.9578,-3.9578,-4.0371,-4.0797,-4.0797,-4.0797,-4.0797,-4.0797,-4.0798,-4.0801,-4.0807,-4.0878,-4.0883,-4.0883,-4.0883,-4.0903,-4.0893,-4.0975,-4.0992,-4.0996,-4.1075,-4.1088,-4.1107,-4.1107,-4.1107,-4.1107,0.0,0.0,0.0,0.0,0.0,0.0,0.0,0.0,0.0,0.0,0.0,0.0,0.0,0.0,0.0,0.0,0.0,0.0,0.0,-2.1557,-2.1649,-2.1723,-2.1739,-2.1797,-2.1943,-2.211,-2.2237,-2.2312,-2.2658,-2.2719,-2.2538,-2.2697,-2.267,-2.2465,-2.2465,-2.2305,-2.2065,-2.2065,-2.2152,-2.2322,-2.2178,-2.2391,-2.2817,0.0,0.0,0.0,0.0,0.0,0.0,0.0,0.0,0.0,0.0,0.0,-2.9355,0.0,0.0,-2.9897,-2.9897,-2.9897,-2.9897,-2.9897,-2.9897,-2.9897,-2.9897,-2.9897,-2.998,-3.0194,-3.0246,-3.0311,0.0,-3.0444,-3.0452,-3.0709,-3.2193,0.0,-3.5611,-3.7409,0.0,0.0,0.0,-3.8702,-3.9133,-3.7986,0.0,0.0,-3.8849,-3.894,-3.9152,-3.9984,-4.0468,-4.0468,-4.0681,-4.0797,-4.0797,-4.0797,-4.0797,-4.0797,-4.079,-4.0802,-4.0802,-4.0814,-4.0829,-4.0828,-4.0828,-4.0854,-4.0907,-4.0921,-4.0926,-4.093,-4.0996,-4.103,-4.1034,-4.1081,-4.1107,-4.1107,0.0,0.0,0.0,0.0,0.0,0.0,0.0,0.0,0.0,0.0,0.0,0.0,0.0,0.0,0.0,0.0,0.0,0.0,0.0,-2.1449,-2.1511,-2.1511,-2.1603,-2.1664,-2.1709,-2.1855,-2.1884,-2.1753,-2.1998,-2.1955,-2.1664,-2.1768,-2.1738,-2.1604,-2.1604,-2.1604,-2.1604,-2.1604,-2.186,0.0,0.0,-2.2212,-2.2623,0.0,0.0,0.0,0.0,0.0,0.0,0.0,0.0,-2.8048,-2.8759,-2.9141,-2.9345,-2.9551,0.0,-2.9897,-2.9897,-2.9897,-2.9897,-2.9897,-2.9897,-2.9897,-2.9897,-2.9897,-2.9953,-3.0166,-3.026,0.0,0.0,-3.0436,0.0,0.0,0.0,0.0,-3.588,-3.7647,-3.9282,0.0,-3.9262,0.0,-3.9423,-3.8276,-3.8025,0.0,-3.9501,-3.9675,-4.0042,-4.0526,-4.0797,-4.0797,-4.0797,-4.0797,-4.0797,-4.0797,-4.0797,-4.0797,-4.0797,-4.0797,-4.0797,-4.0797,-4.0796,-4.0806,0.0,-4.0829,-4.0862,-4.0863,-4.0854,-4.0859,-4.093,-4.098,-4.0996,-4.1038,-4.1075,-4.1107,0.0,0.0,0.0,0.0,0.0,0.0,0.0,0.0,0.0,0.0,-1.9203,0.0,0.0,0.0,0.0,0.0,0.0,0.0,0.0,0.0,0.0,0.0,-2.1511,-2.1603,-2.1664,0.0,0.0,0.0,0.0,0.0,-2.1557,-2.1557,-2.1574,-2.1574,-2.1574,-2.1574,-2.1574,-2.1574,-2.1934,-2.2458,-2.188,-2.2058,-2.2599,0.0,0.0,0.0,0.0,0.0,0.0,0.0,-2.5883,-2.7385,-2.8444,-2.8994,-2.9304,-2.9504,-2.9698,-2.9864,-2.9888,-2.9897,-2.9897,-2.9897,-2.9897,-2.9897,-2.9897,-2.9897,-2.9929,-3.0079,0.0,-3.0305,-3.0375,-3.0361,-3.0585,-3.1462,0.0,-3.4475,-3.6443,-3.8115,-3.9559,-4.0681,-3.9359,-3.8702,-3.9597,-3.8876,-3.8721,-3.9617,-3.9675,-4.0004,-4.0758,-4.0797,-4.0797,-4.0797,-4.0797,-4.0797,-4.0797,-4.0797,-4.0797,-4.0797,-4.0797,-4.0797,-4.0797,-4.0797,-4.0797,-4.0797,0.0,0.0,-4.0797,-4.0792,-4.0796,-4.0801,-4.0859,-4.0921,-4.098,-4.0984,-4.103,-4.1081,0.0,0.0,0.0,0.0,0.0,0.0,0.0,0.0,0.0,0.0,-1.9161,-1.9533,0.0,0.0,0.0,0.0,0.0,0.0,0.0,0.0,0.0,0.0,-2.1402,-2.1433,0.0,0.0,0.0,0.0,0.0,0.0,0.0,0.0,0.0,0.0,0.0,0.0,-2.1356,-2.1356,-2.1421,0.0,0.0,0.0,0.0,0.0,0.0,0.0,0.0,0.0,0.0,0.0,-2.5883,-2.7257,-2.7507,-2.8268,-2.9086,-2.9293,-2.9485,-2.9689,-2.9855,-2.9897,-2.9897,-2.9897,-2.9897,-2.9897,-2.9897,-2.9897,0.0,0.0,0.0,-3.02,-3.0364,-3.0361,0.0,-3.0615,0.0,0.0,0.0,0.0,-3.8218,0.0,0.0,0.0,0.0,0.0,0.0,0.0,0.0,-4.0642,-4.0797,-4.0797,-4.0797,-4.0797,-4.0797,-4.0797,-4.0797,-4.0797,-4.0797,-4.0797,-4.0797,-4.0797,-4.0797,-4.0797,-4.0797,-4.0797,-4.0797,0.0,-4.0797,-4.0809,-4.079,-4.0796,-4.0801,-4.0828,-4.0844,-4.0903,-4.0967,-4.1,0.0,0.0,0.0,0.0,0.0,0.0,0.0,-1.7801,-1.7902,-1.8195,-1.8741,-1.9195,-1.9475,-1.9696,-1.9929,0.0,0.0,0.0,0.0,0.0,0.0,0.0,0.0,0.0,0.0,0.0,0.0,0.0,0.0,0.0,0.0,0.0,0.0,0.0,0.0,0.0,0.0,0.0,0.0,0.0,0.0,0.0,0.0,0.0,0.0,0.0,0.0,0.0,0.0,0.0,-2.4944,-2.6111,-2.7006,-2.8088,-2.9048,-2.923,-2.9445,-2.9644,-2.9847,-2.9897,-2.9897,-2.9897,-2.9897,-2.9897,-2.9897,0.0,0.0,0.0,0.0,-3.0138,-3.0228,0.0,0.0,0.0,0.0,0.0,0.0,0.0,0.0,0.0,0.0,0.0,0.0,0.0,0.0,0.0,0.0,-4.0797,-4.0797,-4.0797,-4.0797,-4.0797,-4.0797,-4.0797,-4.0797,-4.0797,-4.0797,-4.0797,-4.0797,-4.0797,-4.0797,-4.0797,-4.0797,-4.0797,-4.0797,0.0,-4.0797,-4.0797,-4.0797,-4.0797,-4.0808,-4.0798,-4.0793,-4.0839,-4.0878,-4.0939,0.0,0.0,0.0,0.0,0.0,0.0,0.0,-1.7313,-1.7557,-1.7659,-1.8075,-1.8586,-1.9128,-1.931,-1.9548,0.0,0.0,0.0,0.0,0.0,0.0,0.0,0.0,0.0,0.0,0.0,0.0,0.0,0.0,0.0,0.0,0.0,0.0,0.0,0.0,0.0,0.0,0.0,0.0,0.0,0.0,0.0,0.0,0.0,0.0,0.0,0.0,0.0,0.0,0.0,-2.4081,-2.5033,-2.6339,-2.7634,-2.8718,-2.9164,-2.9415,-2.9598,-2.9839,-2.9897,-2.9897,-2.9897,-2.9897,-2.9897,-2.9897,-2.9897,0.0,0.0,-2.9977,-3.0072,-3.0101,0.0,0.0,0.0,0.0,0.0,0.0,0.0,0.0,0.0,0.0,0.0,0.0,0.0,0.0,0.0,0.0,0.0,-4.079,-4.0797,-4.0797,-4.0797,-4.0797,-4.0797,-4.0797,-4.0797,-4.0797,-4.0797,-4.0797,-4.0797,-4.0797,-4.0797,-4.0797,-4.0816,-4.099,0.0,0.0,-4.1261,-4.1338,-4.1338,-4.1338,-4.1344,-4.1352,-4.1352,-4.1385,-4.1432,0.0,0.0,0.0,0.0,0.0,0.0,0.0,-1.655,-1.6765,-1.7199,-1.7303,-1.7537,-1.8088,-1.8683,-1.9055,0.0,0.0,0.0,0.0,0.0,0.0,0.0,0.0,0.0,0.0,0.0,0.0,0.0,0.0,0.0,0.0,0.0,0.0,0.0,0.0,0.0,0.0,0.0,0.0,0.0,0.0,0.0,0.0,0.0,0.0,0.0,0.0,0.0,0.0,0.0,0.0,-2.4842,-2.498,-2.6153,-2.7695,-2.8944,0.0,0.0,-2.9805,-2.9897,-2.9897,-2.9897,-2.9897,-2.9897,-2.9897,0.0,0.0,0.0,-2.9905,-2.9972,-3.0079,-3.0101,-3.0145,0.0,0.0,0.0,0.0,0.0,0.0,0.0,0.0,0.0,0.0,0.0,0.0,0.0,0.0,0.0,-4.0784,-4.0797,-4.0797,-4.0797,-4.0797,-4.0797,-4.0797,-4.0797,-4.0797,-4.0797,-4.0797,-4.0797,-4.0797,-4.0797,-4.0797,-4.0835,-4.1564,0.0,0.0,-4.2744,-4.3073,-4.3073,-4.3073,-4.3073,-4.306,-4.306,-4.3098,-4.3166,0.0,0.0,0.0,0.0,0.0,0.0,-1.5868,-1.6286,-1.6565,-1.6744,-1.7031,-1.7282,-1.7496,-1.7787,-1.826,-1.8955,0.0,0.0,0.0,0.0,0.0,0.0,0.0,0.0,0.0,0.0,0.0,0.0,0.0,0.0,0.0,0.0,0.0,0.0,0.0,0.0,0.0,0.0,0.0,0.0,0.0,0.0,0.0,0.0,0.0,0.0,0.0,0.0,0.0,0.0,0.0,0.0,-2.4622,-2.5296,0.0,0.0,-2.8893,-2.9395,-2.9777,-2.9897,-2.9897,-2.9897,-2.9897,-2.9897,-2.9897,0.0,0.0,-2.9897,-2.9897,-2.9913,-2.9961,-2.9969,-3.0015,0.0,0.0,0.0,0.0,0.0,0.0,0.0,0.0,0.0,0.0,0.0,0.0,0.0,0.0,0.0,-4.0492,-4.0586,-4.0668,-4.079,-4.0797,-4.0797,-4.0797,-4.0797,-4.0797,-4.0816,-4.1293,-4.1525,-4.1545,-4.2067,-4.2299,-4.2318,-4.2647,0.0,0.0,-4.3169,-4.3305,-4.3305,-4.3305,-4.3305,-4.3305,-4.3305,-4.3318,-4.3337,0.0,0.0,0.0,0.0,0.0,-1.4602,-1.542,-1.599,-1.6284,-1.6284,-1.6586,-1.6842,-1.6989,-1.7047,-1.751,-1.862,-1.8755,0.0,0.0,0.0,0.0,0.0,0.0,0.0,0.0,0.0,-2.1055,-2.1293,-2.1293,0.0,0.0,0.0,0.0,0.0,0.0,0.0,0.0,0.0,0.0,0.0,0.0,0.0,0.0,0.0,0.0,0.0,0.0,0.0,0.0,0.0,0.0,0.0,0.0,0.0,0.0,0.0,-2.8396,-2.9068,-2.9641,-2.9855,-2.9897,-2.9897,-2.9897,-2.9897,0.0,0.0,-2.9897,-2.9897,-2.9897,-2.9897,-2.9897,-2.9897,-2.9921,-3.0034,0.0,0.0,0.0,0.0,0.0,0.0,0.0,0.0,0.0,0.0,0.0,0.0,0.0,0.0,0.0,-4.0575,-4.0743,-4.0707,-4.0991,-4.1145,-4.1145,-4.1409,-4.1545,-4.1545,-4.2106,-4.2376,-4.2415,-4.3015,-4.3305,-4.3305,0.0,0.0,0.0,-4.3943,-4.404,-4.404,-4.404,-4.404,-4.404,-4.404,-4.404,-4.404,0.0,0.0,0.0,0.0,0.0,0.0,-1.4941,-1.5456,-1.5814,-1.5814,-1.5814,-1.5991,-1.6457,-1.6522,-1.69,-1.7928,-1.8187,0.0,0.0,0.0,0.0,0.0,0.0,0.0,0.0,0.0,-2.1293,-2.1293,-2.1293,-2.1293,-2.1293,0.0,0.0,0.0,0.0,0.0,0.0,0.0,0.0,0.0,0.0,0.0,0.0,0.0,0.0,0.0,0.0,0.0,0.0,0.0,0.0,0.0,0.0,0.0,0.0,0.0,-2.7901,-2.8332,-2.9336,-2.9742,-2.9897,-2.9897,-2.9897,-2.9897,0.0,0.0,-2.9897,-2.9897,-2.9897,-2.9897,-2.9897,-2.9897,-2.9897,-2.9897,-3.0007,0.0,0.0,0.0,0.0,0.0,0.0,0.0,0.0,0.0,0.0,0.0,0.0,0.0,0.0,-4.092,-4.1112,-4.0523,-4.1473,-4.199,-4.199,-4.2841,-4.3266,-4.3266,-4.3285,-4.3285,-4.3285,-4.3305,-4.3305,0.0,0.0,0.0,0.0,-4.5452,-4.5768,-4.5768,-4.5768,-4.5768,-4.5768,-4.5768,-4.5768,-4.5768,0.0,0.0,0.0,0.0,0.0,0.0,0.0,-1.5684,-1.5792,-1.5792,-1.5792,-1.5859,-1.6001,-1.6022,-1.6402,-1.7372,-1.7848,0.0,0.0,0.0,0.0,0.0,0.0,0.0,0.0,0.0,-2.1071,-2.1293,-2.1293,-2.1293,-2.1293,-2.1293,-2.1293,0.0,0.0,0.0,0.0,0.0,0.0,0.0,0.0,0.0,0.0,0.0,0.0,0.0,0.0,0.0,0.0,0.0,0.0,0.0,0.0,0.0,0.0,-2.5377,-2.6826,0.0,-2.9251,-2.9706,-2.9897,-2.9897,-2.9897,-2.9897,-2.9897,-2.9897,-2.9897,-2.9897,-2.9897,-2.9897,-2.9897,-2.9897,-2.9921,-3.0015,-3.0079,0.0,0.0,0.0,0.0,0.0,0.0,0.0,0.0,0.0,0.0,0.0,0.0,0.0,0.0,-4.1203,-4.1399,-4.1389,-4.2143,-4.2668,-4.2899,-4.3067,-4.3202,-4.3305,-4.3904,-4.4188,-4.4207,-4.4755,0.0,0.0,0.0,0.0,0.0,-4.5691,-4.5807,-4.5807,-4.5807,-4.5807,-4.5807,-4.5807,-4.5807,-4.5807,0.0,0.0,0.0,0.0,0.0,0.0,0.0,-1.577,-1.5792,-1.5792,-1.5792,-1.5792,-1.5792,-1.5957,-1.6371,-1.7136,-1.7639,0.0,0.0,0.0,0.0,0.0,0.0,0.0,-2.0376,-2.0512,-2.0679,-2.0877,-2.1039,-2.1119,-2.1119,-2.123,-2.1293,-2.1293,-2.1293,0.0,0.0,0.0,0.0,0.0,0.0,0.0,-2.1356,0.0,0.0,0.0,0.0,0.0,0.0,0.0,0.0,0.0,0.0,0.0,0.0,0.0,-2.6042,-2.768,0.0,-2.9298,-2.9735,-2.9841,-2.9866,0.0,0.0,-2.9897,-2.9897,-2.9897,-2.9897,-2.9897,-2.9897,-3.0162,-3.03,-3.0057,-3.03,0.0,0.0,0.0,0.0,0.0,0.0,0.0,0.0,0.0,0.0,0.0,0.0,0.0,0.0,-4.1564,-4.2028,-4.2588,-4.3042,-4.3401,-4.3594,-4.386,-4.4014,-4.4095,-4.4689,-4.4981,-4.5,-4.5554,0.0,0.0,0.0,0.0,0.0,-4.5807,-4.5807,-4.5807,-4.5807,-4.5807,-4.5807,-4.5807,-4.5807,-4.5807,0.0,0.0,0.0,0.0,0.0,0.0,0.0,-1.5748,-1.5792,-1.5792,-1.5792,-1.5792,-1.5792,-1.6219,-1.6693,-1.7157,-1.7578,0.0,0.0,0.0,0.0,0.0,0.0,0.0,-1.9708,-2.0032,-2.0191,-2.0191,-2.0563,-2.0761,-2.0761,-2.1103,-2.1262,-2.1278,-2.1293,-2.1293,-2.1293,-2.1293,-2.1293,-2.1293,-2.1293,-2.134,0.0,0.0,0.0,0.0,0.0,0.0,0.0,0.0,0.0,0.0,0.0,0.0,0.0,0.0,0.0,0.0,0.0,-2.8579,-2.9482,-2.9737,-2.979,-2.9816,-2.9883,-2.9888,0.0,-2.9897,-2.9897,-2.9897,-2.9897,-3.056,-3.0844,-3.0029,-3.0579,0.0,0.0,0.0,0.0,0.0,0.0,0.0,0.0,0.0,0.0,0.0,0.0,0.0,0.0,-4.1984,-4.2891,-4.3931,-4.4086,-4.4164,-4.4183,-4.4988,-4.539,-4.541,-4.5528,-4.5588,-4.5588,-4.5723,0.0,0.0,0.0,0.0,0.0,-4.5807,-4.5807,-4.5807,-4.5807,-4.5807,-4.5807,-4.5807,-4.5807,-4.5807,0.0,0.0,0.0,0.0,0.0,0.0,0.0,0.0,0.0,0.0,-1.5792,-1.5792,-1.5792,-1.6219,-1.6693,0.0,0.0,0.0,0.0,0.0,0.0,0.0,0.0,0.0,-1.9708,-2.0032,-2.0191,-2.0191,-2.0294,-2.0344,-2.0361,-2.0729,-2.0909,-2.0925,-2.1183,-2.1293,-2.1293,-2.1293,-2.1293,-2.1293,-2.1293,-2.134,0.0,0.0,0.0,0.0,-2.184,-2.2041,0.0,0.0,0.0,0.0,0.0,0.0,0.0,0.0,-2.4948,-2.6256,-2.6467,0.0,-2.9645,-2.9701,-2.9719,-2.9747,0.0,-2.9815,-2.9832,0.0,0.0,0.0,0.0,-3.0067,-3.0143,-2.9934,0.0,0.0,0.0,0.0,0.0,0.0,0.0,0.0,0.0,0.0,0.0,0.0,0.0,0.0,0.0,-4.2299,-4.3087,-4.4626,-4.4699,-4.4838,-4.5093,-4.5204,-4.53,-4.541,-4.5419,-4.5457,-4.5447,-4.5588,0.0,0.0,0.0,0.0,-4.5807,-4.5807,-4.5807,-4.5807,-4.5807,-4.5807,-4.5807,-4.5807,-4.5807,-4.5807,0.0,0.0,0.0,0.0,0.0,0.0,0.0,0.0,0.0,0.0,-1.5792,-1.5881,-1.6088,-1.6543,-1.6997,0.0,0.0,0.0,0.0,0.0,0.0,0.0,0.0,-1.9325,-1.942,-1.9606,-1.9785,-1.9962,-2.0122,-2.0294,-2.0479,-2.0844,-2.1023,-2.1039,-2.1214,-2.1293,-2.1293,-2.1293,-2.1293,-2.1293,-2.1293,0.0,0.0,0.0,0.0,0.0,-2.1738,-2.1869,0.0,-2.2541,-2.2794,-2.2973,0.0,0.0,0.0,0.0,-2.4477,-2.5664,-2.6014,-2.7658,-2.928,-2.9332,-2.9324,-2.9375,-2.9561,0.0,0.0,0.0,0.0,0.0,0.0,0.0,0.0,0.0,0.0,0.0,0.0,0.0,0.0,0.0,0.0,0.0,0.0,0.0,0.0,0.0,0.0,0.0,0.0,-4.2192,-4.3,-4.4308,-4.4706,-4.4991,-4.5175,-4.5106,-4.5106,-4.5175,-4.526,-4.531,-4.5301,-4.5457,-4.551,0.0,0.0,0.0,-4.5708,-4.5766,-4.5807,-4.5807,-4.5807,-4.5807,-4.5807,-4.5807,-4.5807,-4.5807,0.0,0.0,0.0,0.0,0.0,0.0,0.0,0.0,0.0,0.0,0.0,0.0,0.0,0.0,0.0,0.0,0.0,0.0,0.0,0.0,0.0,0.0,-1.8941,-1.9036,-1.9101,-1.9157,-1.9362,-1.9708,-2.0032,-2.0378,-2.0728,-2.1055,-2.1246,-2.1293,-2.1293,-2.1293,-2.1293,-2.1293,-2.1293,-2.1293,-2.1293,0.0,0.0,0.0,0.0,0.0,0.0,0.0,0.0,-2.2487,-2.2703,-2.2777,-2.3336,0.0,0.0,0.0,0.0,0.0,-2.5852,-2.7296,-2.8609,-2.8842,-2.8906,-2.9016,-2.9301,0.0,0.0,0.0,0.0,0.0,0.0,0.0,0.0,0.0,0.0,0.0,0.0,0.0,0.0,0.0,0.0,0.0,0.0,0.0,0.0,0.0,0.0,0.0,0.0,-4.1851,-4.2609,-4.3474,-4.4156,-4.4573,-4.4724,-4.4838,-4.4895,-4.4895,-4.5061,-4.5159,-4.5159,-4.5291,-4.5371,0.0,0.0,0.0,-4.558,-4.5708,-4.5778,-4.5759,-4.58,-4.5807,-4.5807,-4.5807,-4.5807,-4.5807,0.0,0.0,0.0,0.0,0.0,0.0,0.0,0.0,0.0,0.0,0.0,0.0,0.0,0.0,0.0,0.0,0.0,0.0,0.0,0.0,0.0,-1.896,-1.8993,-1.9036,-1.9101,-1.942,-1.9654,-1.9708,-2.0032,-2.0225,-2.0294,-2.0696,-2.1023,-2.1293,-2.1293,-2.1293,-2.1293,-2.1293,-2.1293,-2.1293,-2.1293,0.0,0.0,0.0,0.0,0.0,0.0,0.0,0.0,-2.2487,-2.2703,-2.2777,-2.3336,0.0,0.0,0.0,0.0,0.0,-2.5685,-2.6662,-2.7743,-2.8609,-2.8938,-2.9093,-2.9217,0.0,0.0,0.0,0.0,0.0,0.0,0.0,0.0,0.0,0.0,0.0,0.0,0.0,0.0,0.0,0.0,0.0,0.0,0.0,0.0,0.0,0.0,0.0,0.0,-4.1321,-4.1757,-4.2571,-4.2723,-4.3152,-4.3872,-4.4554,-4.4895,-4.4895,-4.4931,-4.4962,-4.4943,-4.514,-4.5235,0.0,0.0,-4.5419,-4.5428,-4.558,-4.5629,-4.5645,-4.5764,-4.5807,-4.5807,-4.5807,-4.5807,-4.5807,0.0,0.0,0.0,0.0,0.0,0.0,0.0,0.0,0.0,0.0,0.0,0.0,0.0,0.0,0.0,0.0,0.0,0.0,0.0,0.0,-1.8855,-1.8993,-1.9036,-1.9078,-1.9101,-1.9288,-1.9566,-1.9962,-2.0122,-2.0396,-2.0795,-2.0974,-2.1151,-2.1293,-2.1293,-2.1293,-2.1293,-2.1293,-2.1293,-2.1293,0.0,0.0,0.0,0.0,0.0,0.0,0.0,0.0,0.0,0.0,-2.2703,-2.2777,-2.3336,0.0,0.0,0.0,0.0,0.0,-2.5504,-2.6131,-2.6805,-2.8134,-2.8549,-2.8644,-2.8797,0.0,0.0,0.0,0.0,0.0,0.0,0.0,0.0,0.0,0.0,0.0,0.0,0.0,0.0,0.0,0.0,0.0,0.0,0.0,0.0,0.0,0.0,0.0,0.0,0.0,-4.1359,-4.1749,-4.2174,-4.2602,-4.3,-4.336,-4.4004,-4.4895,-4.4895,-4.4895,-4.4895,-4.501,-4.5045,-4.5057,0.0,-4.529,-4.531,-4.5448,-4.5493,-4.5502,-4.5637,-4.5692,-4.5692,-4.5692,-4.5692,-4.5677,0.0,0.0,0.0,0.0,0.0,0.0,0.0,0.0,0.0,0.0,0.0,0.0,0.0,0.0,0.0,0.0,0.0,0.0,0.0,-1.8798,-1.8931,-1.9149,-1.9195,-1.925,-1.925,-1.931,-1.9678,-2.0344,-2.0429,-2.0746,-2.1293,-2.1293,-2.1293,-2.1293,-2.1293,-2.1293,-2.1293,-2.1293,-2.1293,-2.1293,0.0,0.0,0.0,0.0,0.0,0.0,0.0,0.0,0.0,0.0,0.0,0.0,0.0,0.0,0.0,-2.3505,-2.363,-2.4076,-2.5431,-2.5943,-2.6425,-2.7857,-2.8237,-2.8313,-2.8518,0.0,0.0,0.0,0.0,0.0,0.0,0.0,0.0,0.0,0.0,0.0,0.0,0.0,0.0,0.0,0.0,0.0,0.0,0.0,0.0,0.0,0.0,0.0,0.0,0.0,-4.0904,-4.0904,-4.1491,-4.1908,-4.2117,-4.2117,-4.2962,-4.463,-4.463,-4.4724,-4.4895,-4.4895,-4.4895,-4.4907,-4.5049,-4.5136,-4.5148,-4.5281,-4.5351,-4.5361,-4.5502,-4.5554,-4.5554,-4.5554,-4.5554,-4.5537,0.0,0.0,0.0,0.0,0.0,0.0,0.0,0.0,0.0,0.0,0.0,0.0,0.0,0.0,0.0,0.0,0.0,0.0,0.0,-1.8908,-1.9186,-1.9636,-1.9654,-1.9672,-1.9672,-1.9962,-2.0344,-2.0761,-2.1071,-2.1246,-2.1293,-2.1293,-2.1293,-2.1293,-2.1293,-2.1293,-2.1293,-2.1293,-2.1293,-2.1293,-2.1293,0.0,0.0,0.0,0.0,0.0,0.0,0.0,0.0,0.0,0.0,0.0,0.0,0.0,-2.3505,-2.3505,-2.4022,-2.4783,-2.5586,-2.6354,-2.7121,-2.7981,-2.834,0.0,-2.8725,-2.9514,0.0,0.0,0.0,0.0,0.0,0.0,0.0,0.0,0.0,0.0,0.0,0.0,0.0,0.0,0.0,0.0,0.0,0.0,0.0,0.0,0.0,0.0,0.0,0.0,0.0,-3.9995,-4.0052,-4.0468,-4.1283,-4.1283,-4.2128,-4.3796,-4.3796,-4.4175,-4.4895,-4.4895,-4.4895,-4.4895,-4.4926,-4.4919,-4.4931,-4.5136,-4.5213,-4.5235,-4.5361,-4.54,-4.54,-4.54,-4.54,-4.54,0.0,0.0,0.0,0.0,0.0,0.0,0.0,0.0,0.0,0.0,0.0,-1.7787,-1.7787,0.0,0.0,0.0,0.0,0.0,0.0,-1.8855,-1.912,-1.969,-1.9708,-1.9907,-2.0376,-2.0275,-2.0395,-2.0794,-2.1135,-2.1293,-2.1293,-2.1293,-2.1293,-2.1293,-2.1293,-2.1293,-2.1293,-2.1293,-2.1293,-2.1293,-2.1293,-2.1293,0.0,0.0,0.0,0.0,0.0,0.0,0.0,0.0,-2.2643,-2.2902,-2.336,-2.3505,-2.3505,-2.3505,-2.4058,-2.4855,-2.5604,-2.6389,-2.7192,-2.7999,0.0,0.0,0.0,0.0,0.0,0.0,0.0,0.0,0.0,0.0,0.0,0.0,0.0,0.0,0.0,0.0,0.0,0.0,0.0,0.0,0.0,0.0,0.0,0.0,0.0,0.0,0.0,0.0,0.0,-3.99,-3.99,-4.0071,-4.0393,-4.0393,-4.098,-4.2166,-4.3208,-4.3853,-4.4175,-4.4668,-4.4895,-4.4895,-4.4895,-4.4895,-4.4914,-4.4979,-4.5003,-4.5026,-4.5205,-4.5341,-4.539,-4.531,-4.5279,-4.5258,0.0,0.0,0.0,0.0,0.0,0.0,0.0,0.0,-1.7434,0.0,0.0,0.0,0.0,-1.8307,0.0,0.0,0.0,0.0,-1.8784,-1.8803,-1.9109,-1.9836,-1.9871,-2.0189,-2.0942,-2.068,-2.068,-2.0958,-2.1183,-2.1293,-2.1293,-2.1293,-2.1293,-2.1293,-2.1293,-2.1293,-2.1293,-2.1293,-2.1293,-2.1293,-2.1324,-2.1402,0.0,0.0,0.0,0.0,0.0,0.0,0.0,0.0,-2.2803,-2.3033,-2.3401,-2.3505,-2.3505,-2.3505,-2.4219,-2.5158,-2.5658,-2.6568,-2.7513,0.0,0.0,0.0,0.0,0.0,0.0,0.0,0.0,0.0,0.0,0.0,0.0,0.0,0.0,0.0,0.0,0.0,0.0,0.0,0.0,0.0,0.0,0.0,0.0,0.0,0.0,0.0,0.0,0.0,0.0,0.0,-3.99,-3.99,-3.99,-3.99,-4.0203,-4.0809,-4.2242,-4.3189,-4.372,-4.427,-4.4668,-4.4895,-4.4895,-4.4895,-4.4895,-4.4895,-4.4895,-4.4907,-4.5038,-4.5162,-4.5239,-4.514,-4.5114,-4.5091,0.0,0.0,0.0,0.0,0.0,0.0,0.0,0.0,-1.7962,-1.8439,-1.8498,0.0,0.0,0.0,0.0,0.0,0.0,0.0,-1.8784,-1.8803,-1.9225,-2.0156,-2.0208,-2.0563,-2.1277,-2.1293,-2.1293,-2.1293,-2.1293,-2.1293,-2.1293,-2.1293,-2.1293,-2.1293,-2.1293,-2.1293,-2.1325,-2.1325,-2.1309,-2.1309,-2.1371,-2.16,-2.1897,0.0,0.0,0.0,0.0,0.0,0.0,0.0,-2.3047,-2.3156,-2.3424,-2.3505,-2.3505,-2.3505,-2.4593,-2.58,-2.5818,-2.6983,0.0,0.0,0.0,0.0,0.0,0.0,0.0,0.0,0.0,0.0,0.0,0.0,0.0,0.0,0.0,0.0,0.0,0.0,0.0,0.0,0.0,0.0,0.0,0.0,0.0,0.0,0.0,0.0,0.0,0.0,0.0,0.0,-3.99,-3.99,-3.99,-3.99,-3.99,-3.9919,-4.0772,-4.2071,-4.3682,-4.3682,-4.4137,-4.4895,-4.4895,-4.4895,-4.4895,-4.4895,-4.4895,-4.4895,-4.4895,-4.4895,-4.4895,-4.4895,-4.4895,-4.4895,0.0,0.0,0.0,0.0,0.0,0.0,0.0,0.0,-1.8347,-1.8478,-1.8498,0.0,0.0,0.0,0.0,0.0,0.0,0.0,-1.9277,-1.9566,-1.998,-2.0596,-2.0629,-2.0828,-2.1293,-2.1293,-2.1293,-2.1293,-2.1293,-2.1293,-2.1293,-2.1293,-2.1387,-2.1572,-2.1572,-2.1646,-2.1794,-2.1895,-2.1922,-2.1936,-2.2065,-2.2161,-2.2244,0.0,0.0,0.0,0.0,0.0,0.0,0.0,0.0,0.0,-2.3448,-2.3505,-2.3612,-2.4177,-2.5051,-2.5925,-2.6496,-2.7424,0.0,0.0,0.0,0.0,0.0,0.0,0.0,0.0,0.0,0.0,0.0,0.0,0.0,0.0,0.0,0.0,0.0,0.0,0.0,0.0,0.0,0.0,0.0,0.0,0.0,0.0,0.0,0.0,0.0,0.0,0.0,0.0,-3.99,-3.99,-3.99,-3.99,-3.99,-3.99,-4.0165,-4.0866,-4.1977,-4.317,-4.3834,-4.4099,-4.4649,-4.4895,-4.4895,-4.4895,-4.4895,-4.4895,-4.4895,-4.4895,-4.4895,-4.4895,-4.4895,-4.4895,0.0,0.0,0.0,0.0,0.0,0.0,-1.8498,-1.8498,-1.8498,-1.8498,-1.8498,-1.8517,0.0,0.0,0.0,-1.8969,-1.9281,0.0,-1.9729,-1.996,-2.0308,-2.0778,-2.0794,-2.0958,-2.1293,-2.1293,-2.1293,-2.1293,-2.1293,-2.134,-2.1449,-2.1449,-2.1766,-2.2288,-2.2347,-2.2601,-2.2986,-2.3161,-2.3232,-2.3247,-2.3343,-2.3454,-2.3546,0.0,0.0,0.0,0.0,0.0,0.0,0.0,0.0,0.0,-2.3464,-2.3719,-2.4058,-2.4569,-2.5444,-2.6371,-2.6871,0.0,0.0,0.0,0.0,0.0,0.0,0.0,0.0,0.0,0.0,0.0,0.0,0.0,0.0,0.0,0.0,0.0,0.0,0.0,0.0,0.0,0.0,0.0,0.0,0.0,0.0,0.0,0.0,0.0,0.0,0.0,0.0,0.0,-3.9747,-3.9747,-3.9747,-3.9792,-3.9815,-3.9815,-3.9815,-4.011,-4.0658,-4.2067,-4.3076,-4.3739,-4.4554,-4.4895,-4.4895,-4.4895,-4.4895,-4.4895,-4.4895,-4.4895,-4.4895,-4.4895,-4.4895,-4.4895,0.0,0.0,-1.8498,-1.8498,0.0,0.0,-1.8498,-1.8498,-1.8498,-1.8517,-1.8517,-1.8576,0.0,0.0,0.0,-1.946,-1.9773,-2.0019,-2.0152,-2.0187,-2.0393,-2.0827,-2.0844,-2.1006,-2.1341,-2.1341,-2.1356,-2.1356,-2.1356,-2.1513,-2.1792,-2.1838,-2.2385,-2.3358,-2.3471,-2.3932,-2.4609,-2.4788,-2.4893,-2.4893,-2.4948,-2.5133,-2.5353,-2.5393,0.0,0.0,0.0,0.0,0.0,0.0,0.0,0.0,-2.3719,-2.4201,-2.4819,-2.489,-2.589,-2.7027,-2.7098,0.0,0.0,0.0,0.0,0.0,0.0,0.0,0.0,0.0,0.0,0.0,0.0,0.0,0.0,0.0,0.0,0.0,0.0,0.0,0.0,0.0,0.0,0.0,0.0,0.0,0.0,0.0,0.0,0.0,0.0,0.0,0.0,-3.9514,-3.9514,-3.9514,-3.9514,-3.9623,-3.9682,-3.9682,-3.9682,-3.9682,-3.9731,-4.0704,-4.2075,-4.3727,-4.4554,-4.4895,-4.4895,-4.4895,-4.4895,-4.4895,-4.4895,-4.4895,-4.4895,-4.4883,-4.487,-4.487,0.0,0.0,-1.8498,-1.8498,0.0,0.0,-1.8498,-1.8498,-1.8537,-1.8634,-1.8653,-1.8812,-1.9217,-1.9314,0.0,-1.9925,-2.0275,-2.0513,-2.0629,-2.0909,-2.1087,-2.1183,-2.1183,-2.1324,-2.1619,-2.1602,-2.1676,-2.1853,-2.1676,-2.1944,-2.2565,-2.2781,-2.3469,-2.4555,-2.4567,-2.4841,-2.5296,-2.5432,-2.5517,-2.55,-2.557,-2.5648,-2.5686,-2.5601,-2.5559,0.0,0.0,0.0,0.0,0.0,0.0,0.0,-2.5319,-2.5426,-2.5693,-2.6318,-2.6728,-2.7139,0.0,0.0,0.0,0.0,0.0,0.0,0.0,0.0,0.0,0.0,0.0,0.0,0.0,0.0,0.0,0.0,0.0,0.0,0.0,0.0,0.0,0.0,0.0,0.0,0.0,0.0,0.0,0.0,0.0,0.0,0.0,0.0,0.0,-3.9514,-3.9514,-3.9514,-3.9514,-3.9539,-3.9532,0.0,-3.9532,-3.9532,-3.957,-4.0471,-4.1864,-4.3586,-4.4498,-4.4895,-4.4895,-4.4895,-4.4895,-4.4895,-4.4895,-4.4895,-4.4883,-4.477,-4.4732,-4.4738,0.0,0.0,0.0,0.0,0.0,0.0,0.0,0.0,-1.8692,-1.8912,-1.9007,-1.9217,-1.9678,-1.9892,0.0,0.0,-2.0745,-2.0958,-2.1039,-2.1198,-2.1293,-2.1293,-2.1293,-2.1372,-2.1511,-2.1617,-2.1918,-2.2368,-2.2506,-2.2752,-2.3152,-2.3731,-2.4592,-2.5626,-2.5749,-2.6128,-2.6714,-2.685,-2.6903,-2.6903,-2.6921,-2.6947,-2.6934,-2.6868,-2.665,-2.6359,-2.6299,0.0,0.0,0.0,0.0,0.0,0.0,0.0,-2.6461,-2.6884,-2.7264,-2.7674,0.0,0.0,0.0,0.0,0.0,0.0,0.0,0.0,0.0,0.0,0.0,0.0,0.0,0.0,0.0,0.0,0.0,0.0,0.0,0.0,0.0,0.0,0.0,0.0,0.0,0.0,0.0,0.0,0.0,0.0,0.0,-3.9311,-3.9311,-3.9311,-3.9311,-3.9311,-3.9311,-3.9376,-3.9395,-3.9395,-3.9395,-3.9376,-3.933,-4.0346,-4.1519,-4.2824,-4.3737,-4.4347,-4.4712,-4.4712,-4.4712,-4.4712,-4.4712,-4.4712,-4.4712,-4.4632,-4.4605,-4.4592,0.0,0.0,0.0,0.0,0.0,0.0,0.0,0.0,0.0,-1.9314,-1.946,-1.9696,-2.017,-2.0478,-2.0712,0.0,0.0,0.0,-2.1293,-2.1293,-2.1293,-2.1293,-2.1293,-2.1309,-2.1372,-2.1764,-2.2278,-2.2921,-2.3615,-2.3942,-2.3974,-2.4736,-2.5663,-2.6691,-2.6866,-2.7362,-2.8042,-2.8154,-2.8196,-2.8196,-2.8196,-2.8196,-2.8213,-2.8168,-2.7772,-2.7192,-2.7184,-2.6769,-2.6198,-2.6198,0.0,0.0,0.0,0.0,-2.721,-2.721,-2.7692,-2.8196,0.0,0.0,0.0,0.0,0.0,0.0,0.0,0.0,0.0,0.0,0.0,0.0,0.0,0.0,0.0,0.0,0.0,0.0,0.0,0.0,0.0,0.0,0.0,0.0,0.0,0.0,0.0,0.0,0.0,0.0,-3.9101,-3.9101,-3.9101,-3.9101,-3.9101,-3.9101,-3.9101,-3.9205,-3.9272,-3.9272,-3.9272,-3.9205,-3.9133,-4.008,-4.104,-4.201,-4.2919,-4.3764,-4.4501,-4.4501,-4.4501,-4.4501,-4.4501,-4.4501,-4.4501,-4.4473,-4.4473,-4.4473,0.0,0.0,0.0,0.0,0.0,0.0,0.0,0.0,0.0,0.0,-1.9995,-2.0187,-2.0662,-2.0761,-2.0893,-2.1198,-2.1262,-2.1293,-2.1293,0.0,0.0,-2.1293,-2.1293,-2.1419,-2.1649,-2.2533,-2.3126,-2.3405,-2.4983,-2.5738,-2.5771,-2.5872,-2.6591,-2.7784,-2.7648,-2.7801,-2.8168,-2.8182,-2.8196,-2.8196,-2.8196,-2.8196,-2.82,-2.8071,-2.8027,-2.8021,-2.7911,-2.7868,-2.7874,-2.7874,-2.7874,0.0,0.0,0.0,-2.8035,-2.8035,-2.8124,-2.8196,0.0,0.0,0.0,0.0,0.0,0.0,0.0,0.0,0.0,0.0,0.0,0.0,0.0,0.0,0.0,0.0,0.0,0.0,0.0,0.0,0.0,0.0,0.0,0.0,0.0,0.0,0.0,0.0,0.0,0.0,-3.9101,-3.9101,-3.9101,-3.9101,-3.9101,-3.9101,-3.9101,-3.9129,-3.9129,-3.9129,-3.9129,-3.9129,-3.9101,-3.9254,-4.0225,-4.1875,-4.2878,-4.3764,-4.4501,-4.4501,-4.4501,-4.4501,-4.4501,-4.4501,-4.4487,-4.4373,-4.4329,-4.43,0.0,0.0,0.0,0.0,0.0,0.0,0.0,0.0,0.0,0.0,0.0,-2.0646,-2.1039,-2.1071,-2.1135,-2.1294,-2.1293,-2.1293,-2.1293,-2.1293,-2.1293,-2.1293,-2.1839,-2.2209,-2.2302,-2.34,-2.425,-2.4798,-2.5661,-2.6379,0.0,-2.6885,-2.7208,-2.7836,-2.785,-2.7996,-2.8196,-2.8196,-2.8196,-2.8196,-2.8196,-2.8196,-2.8182,0.0,0.0,0.0,0.0,0.0,0.0,-2.8196,-2.8196,-2.8196,-2.8196,0.0,0.0,0.0,0.0,0.0,0.0,0.0,0.0,0.0,0.0,0.0,0.0,0.0,0.0,0.0,0.0,0.0,0.0,0.0,0.0,0.0,0.0,0.0,0.0,0.0,0.0,0.0,0.0,0.0,0.0,0.0,0.0,0.0,0.0,-3.8432,-3.8432,-3.8859,-3.9101,-3.9101,-3.9101,-3.9101,-3.9101,-3.9101,-3.9101,-3.9101,-3.9101,-3.9101,-3.9101,-3.9101,-3.9793,-4.1073,-4.1964,-4.2799,-4.3583,-4.4031,-4.4218,-4.4218,-4.4218,-4.4218,-4.4203,-4.4143,-4.4131,-4.4131,0.0,0.0,0.0,0.0,0.0,0.0,0.0,0.0,0.0,0.0,0.0,-2.1023,-2.1262,0.0,0.0,0.0,-2.1293,-2.1374,-2.1568,-2.1647,-2.176,-2.1955,-2.2748,-2.3171,-2.3171,-2.4312,-2.5207,-2.5801,-2.6208,-2.6788,-2.7496,-2.7496,-2.7585,0.0,-2.794,-2.8071,-2.8196,0.0,0.0,-2.8277,-2.8209,0.0,0.0,0.0,0.0,0.0,0.0,0.0,0.0,0.0,0.0,0.0,0.0,0.0,0.0,0.0,0.0,0.0,0.0,0.0,0.0,0.0,0.0,0.0,0.0,0.0,0.0,0.0,0.0,0.0,0.0,0.0,0.0,0.0,0.0,0.0,0.0,0.0,0.0,0.0,0.0,0.0,0.0,0.0,0.0,0.0,0.0,-3.7596,-3.7596,-3.8358,-3.8804,-3.8804,-3.899,-3.9101,-3.9101,-3.9101,-3.9101,-3.9101,-3.9101,-3.9101,-3.9101,-3.9101,-3.9454,-4.0123,-4.1144,-4.2054,-4.2853,-4.367,-4.4005,-4.4005,-4.4005,-4.4005,-4.4005,-4.4005,-4.4005,-4.4005,0.0,0.0,0.0,0.0,0.0,0.0,0.0,0.0,0.0,0.0,0.0,-2.1277,-2.1293,-2.1293,-2.1293,-2.1293,-2.1293,-2.1601,-2.2297,-2.2572,-2.3027,-2.372,-2.4062,0.0,-2.4221,-2.5216,-2.5767,-2.5801,-2.6758,-2.7341,-2.7496,-2.7496,-2.7677,-2.7968,-2.8,-2.8071,-2.8196,0.0,0.0,0.0,0.0,0.0,0.0,0.0,0.0,0.0,0.0,0.0,0.0,0.0,0.0,0.0,0.0,0.0,0.0,0.0,0.0,0.0,0.0,0.0,0.0,0.0,0.0,0.0,0.0,0.0,0.0,0.0,0.0,0.0,0.0,0.0,0.0,0.0,0.0,0.0,0.0,0.0,0.0,0.0,0.0,0.0,0.0,0.0,0.0,0.0,0.0,-3.6773,-3.6773,-3.7522,-3.7949,-3.7949,-3.8692,-3.9101,-3.9101,-3.9101,-3.9101,-3.9101,-3.9101,-3.9101,-3.9101,-3.9101,-3.912,-3.925,-4.0884,-4.2054,-4.2853,-4.367,-4.4005,-4.4005,-4.4005,-4.4005,-4.4005,-4.4005,-4.4005,-4.4005,0.0,0.0,0.0,0.0,0.0,0.0,0.0,0.0,0.0,0.0,0.0,0.0,0.0,-2.1872,-2.2197,-2.2021,-2.2606,-2.3161,-2.3585,-2.3713,-2.3877,-2.4145,-2.487,-2.525,-2.525,-2.6253,-2.6758,-2.6758,-2.7129,-2.7376,-2.7496,-2.7585,-2.8012,-2.8694,-2.8212,-2.8435,-2.9157,-2.9157,0.0,0.0,0.0,0.0,0.0,0.0,0.0,0.0,0.0,0.0,0.0,0.0,0.0,0.0,0.0,0.0,0.0,0.0,0.0,0.0,0.0,0.0,0.0,0.0,0.0,0.0,0.0,0.0,0.0,0.0,0.0,0.0,0.0,0.0,0.0,0.0,0.0,0.0,0.0,0.0,0.0,0.0,0.0,0.0,0.0,0.0,0.0,0.0,0.0,0.0,-3.5937,-3.6686,-3.7355,-3.7875,-3.8172,-3.8581,-3.9082,-3.9101,-3.9101,-3.9101,-3.9101,-3.9101,-3.9101,-3.9101,-3.9101,-3.9157,-4.0327,-4.1293,-4.2092,-4.289,-4.3522,-4.4005,-4.4005,-4.4005,-4.4005,-4.4005,-4.4005,-4.4005,0.0,0.0,0.0,-2.0974,0.0,-2.1006,-2.1151,-2.1183,-2.1327,-2.1743,0.0,0.0,0.0,0.0,-2.3127,-2.3047,-2.3637,-2.4213,-2.4625,-2.4753,-2.4902,-2.5139,-2.5887,-2.6304,-2.6304,-2.696,-2.7299,-2.7299,-2.7299,-2.7497,0.0,-2.7951,-2.8566,-2.9591,-2.909,-2.9329,0.0,0.0,0.0,-3.1236,0.0,0.0,-3.0115,0.0,0.0,0.0,0.0,0.0,0.0,0.0,0.0,0.0,0.0,0.0,0.0,0.0,0.0,0.0,0.0,0.0,0.0,0.0,0.0,0.0,0.0,0.0,0.0,0.0,0.0,0.0,0.0,0.0,0.0,0.0,0.0,0.0,0.0,0.0,0.0,0.0,0.0,0.0,0.0,0.0,0.0,0.0,0.0,0.0,-3.5064,-3.5863,-3.6792,-3.7856,-3.7894,-3.8284,-3.9082,-3.9101,-3.9101,-3.9101,-3.9101,-3.9101,-3.9101,-3.9101,-3.9101,-3.912,-3.9714,-4.042,-4.1274,-4.2352,-4.3113,-4.3615,-4.3893,-4.4005,-4.4005,-4.4005,-4.4005,-4.4005,-2.1198,-2.1293,-2.1293,-2.1293,-2.1325,-2.1342,-2.1341,-2.1357,-2.1727,-2.2714,0.0,0.0,0.0,0.0,0.0,-2.4354,-2.437,-2.4674,-2.5413,-2.5692,-2.6126,-2.6791,-2.7137,-2.7299,-2.7299,-2.7299,-2.7299,-2.7333,-2.7333,-2.7774,-2.8644,-2.8644,-2.9376,-3.0643,-3.0657,-3.0794,-3.0998,0.0,-3.1365,-3.1568,0.0,-3.1237,-3.1209,0.0,0.0,0.0,-3.0143,-3.0017,0.0,0.0,0.0,0.0,0.0,0.0,0.0,0.0,0.0,0.0,0.0,0.0,0.0,0.0,0.0,0.0,0.0,0.0,0.0,0.0,0.0,0.0,0.0,0.0,0.0,0.0,0.0,0.0,0.0,0.0,0.0,0.0,0.0,0.0,0.0,0.0,0.0,0.0,0.0,-3.4271,-3.4271,-3.5083,-3.6253,-3.7782,-3.7875,-3.8265,-3.9064,-3.9082,-3.9101,-3.9101,-3.9101,-3.9101,-3.9101,-3.9101,-3.9101,-3.9101,-3.9101,-3.9584,-4.049,-4.2092,-4.2779,-4.2872,-4.3689,-4.4005,-4.4005,-4.4005,-4.4005,-4.4005,-2.1119,-2.123,-2.1293,-2.1293,-2.1746,-2.2151,-2.2358,-2.2833,-2.3357,0.0,0.0,0.0,-2.427,-2.471,-2.5378,-2.6372,-2.6245,-2.6298,-2.6748,-2.6845,-2.6963,-2.7153,-2.725,-2.7299,-2.7299,-2.7299,-2.7558,-2.8092,-2.8092,-2.8699,-2.9828,-2.9828,-3.054,-3.1836,-3.1978,-3.2428,-3.3038,-3.2511,0.0,0.0,-3.2594,-3.2195,0.0,0.0,0.0,0.0,0.0,-3.0485,-3.0845,0.0,-3.0712,-3.0759,0.0,0.0,0.0,0.0,0.0,0.0,-2.8561,0.0,0.0,0.0,0.0,0.0,0.0,-3.0025,0.0,0.0,0.0,0.0,0.0,0.0,0.0,0.0,0.0,0.0,0.0,0.0,0.0,0.0,0.0,0.0,0.0,0.0,0.0,0.0,-3.6051,-3.5999,-3.5999,-3.6253,-3.6309,-3.6179,-3.7281,-3.8005,-3.8228,-3.8804,-3.9101,-3.9101,-3.9101,-3.9101,-3.9101,-3.9101,-3.9101,-3.9101,-3.9101,-3.9231,-3.9584,-4.1237,-4.2259,-4.2872,-4.3689,-4.4005,-4.4005,-4.4005,-4.4005,-4.4005,-2.1585,-2.181,-2.2018,-2.2328,-2.2834,-2.3258,-2.34,-2.3798,-2.4261,0.0,0.0,0.0,-2.5307,-2.5844,-2.6498,-2.7231,-2.7121,-2.7087,-2.7299,-2.7299,-2.7453,-2.7747,-2.7747,-2.7902,-2.8213,-2.8213,-2.8437,-2.8868,-2.9,-2.9627,-3.0688,-3.084,-3.1598,-3.2802,-3.2948,-3.3395,0.0,0.0,0.0,0.0,-3.3568,0.0,0.0,-3.2374,-3.2,0.0,0.0,0.0,-3.1818,-3.1784,-3.1735,0.0,0.0,0.0,0.0,0.0,0.0,0.0,0.0,0.0,0.0,0.0,0.0,0.0,-2.9492,-3.0382,-3.1062,0.0,0.0,0.0,0.0,0.0,0.0,0.0,0.0,0.0,0.0,0.0,0.0,0.0,0.0,0.0,0.0,0.0,0.0,-3.6306,-3.6253,-3.6346,-3.6681,-3.6699,-3.6495,-3.603,-3.7225,-3.7894,-3.7894,-3.8692,-3.9101,-3.9101,-3.9101,-3.9101,-3.9101,-3.9101,-3.9101,-3.9101,-3.9101,-3.9101,-3.9194,-4.055,-4.1571,-4.2407,-4.3559,-4.4005,-4.4005,-4.4005,-4.4005,-4.4005,0.0,-2.28,-2.3173,-2.3819,-2.4212,-2.4437,-2.4469,-2.4536,-2.4902,0.0,-2.5761,-2.5932,-2.6773,-2.7189,-2.742,-2.742,-2.7489,-2.754,-2.754,-2.754,-2.7833,-2.8489,-2.8523,-2.8834,-2.9489,-2.9506,-2.9541,-2.9644,-2.993,-3.0527,-3.1399,-3.1747,-3.2495,-3.3556,-3.3625,-3.3858,-3.4185,0.0,0.0,-3.4197,-3.4197,-3.4086,0.0,0.0,-3.3766,0.0,-3.3306,-3.3003,-3.2702,-3.288,-3.267,0.0,0.0,0.0,0.0,0.0,-3.0506,0.0,0.0,0.0,0.0,0.0,0.0,0.0,-3.0129,-3.0838,-3.1478,0.0,0.0,0.0,0.0,0.0,0.0,0.0,0.0,0.0,0.0,0.0,0.0,0.0,0.0,0.0,0.0,-3.454,-3.5108,-3.6121,-3.5806,-3.593,-3.6649,-3.6699,-3.6699,-3.6699,-3.7392,-3.7801,-3.7894,-3.8599,-3.9008,-3.9101,-3.9101,-3.9101,-3.9101,-3.9101,-3.9101,-3.9101,-3.9101,-3.9101,-3.9175,-4.003,-4.0866,-4.1739,-4.3262,-4.3912,-4.4005,-4.4005,-4.4005,-4.4005,-2.3911,-2.3959,-2.4057,-2.4207,-2.476,-2.526,-2.5469,-2.596,-2.6483,-2.6946,-2.6963,-2.7016,-2.7185,-2.7784,-2.8178,-2.8178,-2.873,-2.9075,-2.9075,-2.9075,-2.9127,-2.9282,-2.9299,-2.9351,-2.9506,-2.9506,-2.9817,-3.0455,-3.0543,-3.1251,-3.2579,-3.2594,-3.3063,-3.3902,-3.3915,-3.4011,-3.4124,0.0,0.0,-3.4197,-3.4197,0.0,-3.3895,-3.3829,-3.3684,-3.3448,-3.2928,-3.2687,-3.2588,0.0,-3.2488,-3.2521,0.0,0.0,0.0,0.0,0.0,0.0,0.0,0.0,0.0,0.0,0.0,0.0,-3.056,-3.1167,-3.1602,0.0,0.0,0.0,0.0,0.0,0.0,0.0,0.0,0.0,0.0,0.0,0.0,0.0,0.0,0.0,0.0,-3.4022,-3.4643,-3.4851,-3.5705,-3.6361,-3.6686,-3.6699,-3.6699,-3.6699,-3.6848,-3.7257,-3.7894,-3.8061,-3.8451,-3.9101,-3.9101,-3.9101,-3.9101,-3.9101,-3.9101,-3.9101,-3.9101,-3.9101,-3.9175,-4.003,-4.0866,-4.1702,-4.2649,-4.3429,-4.4005,-4.4005,-4.4005,-4.4005,-2.4775,-2.4971,-2.5152,-2.5491,-2.5994,-2.6379,-2.6524,-2.6831,-2.7121,-2.7283,-2.7609,-2.7989,-2.8368,-2.873,-2.8954,-2.8954,-2.9299,-2.9506,-2.9506,-2.9506,-2.9679,-3.0075,-3.0093,-3.0265,-3.0644,-3.0644,-3.0834,-3.1248,-3.1585,-3.2132,-3.2874,-3.3196,-3.356,-3.3947,-3.4023,-3.4074,0.0,0.0,-3.486,-3.486,-3.486,0.0,-3.4687,-3.5066,-3.5106,-3.4971,-3.4654,-3.4455,-3.4265,-3.389,-3.3507,0.0,0.0,-3.2599,-3.209,0.0,-3.1758,-3.1392,0.0,0.0,0.0,-3.0093,0.0,0.0,0.0,-3.141,-3.1879,-3.1655,0.0,0.0,0.0,0.0,0.0,0.0,0.0,0.0,0.0,0.0,0.0,0.0,0.0,0.0,0.0,-3.2451,-3.3716,-3.4717,-3.5883,-3.6594,-3.6686,-3.7076,-3.7113,-3.6718,-3.7076,-3.7485,-3.7894,-3.7894,-3.8302,-3.9101,-3.9101,-3.9101,-3.9101,-3.9101,-3.9101,-3.9101,-3.9101,-3.9101,-3.912,-3.9565,-4.0253,-4.1107,-4.2333,-4.328,-4.4005,-4.4005,-4.4005,-4.4005,-2.5646,-2.5942,-2.6258,-2.6788,-2.7121,-2.7351,-2.7489,-2.7506,-2.7558,-2.7713,-2.823,-2.8834,-2.9437,0.0,0.0,0.0,-2.9868,-2.9937,-2.9937,-2.9937,-3.0231,-3.0869,-3.0903,-3.1179,-3.1783,-3.18,-3.18,-3.18,-3.242,-3.2731,-3.2827,-3.3476,-3.3829,-3.3913,-3.4195,0.0,0.0,0.0,0.0,-3.5701,0.0,-3.5818,-3.5723,-3.6332,-3.655,-3.6482,-3.6305,-3.6069,-3.574,-3.5284,0.0,-3.3934,-3.3812,-3.3072,0.0,0.0,0.0,0.0,0.0,0.0,0.0,0.0,0.0,-3.0939,0.0,0.0,0.0,-3.2179,0.0,0.0,0.0,0.0,0.0,0.0,0.0,0.0,0.0,0.0,0.0,0.0,0.0,0.0,0.0,-3.0671,-3.2518,-3.4642,-3.5515,-3.609,-3.6458,-3.7076,-3.7294,-3.6941,-3.7262,-3.7652,-3.8135,-3.7819,-3.8154,-3.9101,-3.9101,-3.9101,-3.9101,-3.9101,-3.9101,-3.9101,-3.9101,-3.9101,-3.9101,-3.9101,-3.9602,-4.0531,-4.1999,-4.3058,-4.3782,-4.3949,-4.4005,-4.4005,-2.7065,-2.7114,-2.7147,-2.7233,-2.7266,-2.7523,-2.8178,-2.8282,-2.8506,-2.9161,-2.9317,-2.942,0.0,0.0,0.0,0.0,0.0,0.0,-3.1541,0.0,-3.1576,-3.1662,-3.1679,-3.1714,-3.18,-3.18,-3.18,-3.18,-3.2162,-3.2536,-3.2903,-3.3229,-3.3564,0.0,-3.4718,0.0,0.0,0.0,-3.6394,0.0,-3.7151,-3.7086,0.0,-3.6527,-3.6509,-3.6394,-3.5618,-3.51,-3.4799,0.0,-3.4747,-3.4549,0.0,-3.3842,-3.2821,0.0,0.0,0.0,0.0,0.0,0.0,0.0,-3.1679,0.0,0.0,0.0,-3.1837,-3.1838,0.0,0.0,0.0,0.0,0.0,0.0,0.0,0.0,0.0,0.0,0.0,0.0,0.0,0.0,0.0,0.0,-3.1021,-3.3578,-3.3393,-3.3881,-3.5553,-3.5714,-3.6383,-3.7708,-3.6476,-3.6811,-3.8934,-3.7541,-3.7596,-3.9101,-3.9101,-3.9101,-3.9101,-3.9101,-3.9101,-3.9101,-3.9101,-3.9101,-3.9101,-3.9101,-3.9602,-4.049,-4.1386,-4.2222,-4.302,-4.3745,-4.4005,-4.4005,-2.7471,-2.7644,-2.7937,-2.7937,-2.8282,-2.8678,-2.8989,-2.9041,-2.9317,-3.0093,-3.0575,0.0,0.0,0.0,0.0,0.0,0.0,-3.3128,0.0,0.0,0.0,-3.2735,-3.2717,-3.2634,-3.2386,-3.2386,-3.2386,-3.2386,-3.2716,-3.297,-3.3136,-3.3451,-3.3936,0.0,-3.5009,0.0,-3.5957,0.0,0.0,0.0,0.0,0.0,0.0,-3.7909,-3.7866,-3.7779,-3.7382,-3.6973,-3.6647,0.0,-3.6274,0.0,0.0,0.0,0.0,0.0,0.0,0.0,0.0,0.0,0.0,0.0,0.0,0.0,-3.18,0.0,-3.18,0.0,0.0,0.0,0.0,0.0,0.0,0.0,0.0,0.0,0.0,0.0,0.0,0.0,0.0,0.0,0.0,0.0,0.0,0.0,0.0,-3.3858,-3.4535,-3.5168,-3.603,-3.7169,-3.6105,-3.6439,-3.8377,-3.7262,-3.7262,-3.8414,-3.8878,-3.9101,-3.9101,-3.9101,-3.9101,-3.9101,-3.9101,-3.9101,-3.9101,-3.9101,-3.9324,-3.977,-4.1089,-4.2092,-4.289,-4.3708,-4.4005,-4.4005,-2.8109,-2.8334,-2.8696,-2.8696,-2.9144,-2.9575,-2.9799,-3.0179,-3.0644,0.0,0.0,0.0,-3.3162,-3.3749,0.0,0.0,-3.4113,-3.4113,0.0,0.0,-3.3954,0.0,0.0,0.0,-3.3325,-3.3324,-3.3373,-3.3453,-3.3785,-3.3954,-3.3969,-3.431,-3.4798,-3.5371,0.0,-3.6149,-3.6757,0.0,0.0,-3.8026,-3.8597,-3.8851,-3.8862,-3.8862,-3.8758,-3.8606,-3.8546,-3.8269,-3.793,-3.793,-3.7309,0.0,-3.6189,0.0,0.0,0.0,0.0,0.0,-3.3386,0.0,0.0,0.0,0.0,0.0,0.0,0.0,0.0,0.0,0.0,0.0,0.0,0.0,0.0,0.0,0.0,0.0,0.0,0.0,0.0,0.0,0.0,0.0,0.0,0.0,0.0,0.0,0.0,0.0,-3.3908,-3.4692,-3.5529,-3.6346,-3.5566,-3.5937,-3.7559,-3.6983,-3.7108,-3.7912,-3.8711,-3.9101,-3.9101,-3.9101,-3.9101,-3.9101,-3.9101,-3.9101,-3.9101,-3.9101,-3.9101,-3.9268,-4.094,-4.1962,-4.2593,-4.3615,-4.4005,-4.4005,-2.9455,-2.9455,0.0,-2.9472,-2.9489,-2.9765,-3.0524,-3.1869,-3.28,0.0,0.0,0.0,0.0,0.0,0.0,0.0,0.0,-3.4113,-3.4113,0.0,-3.4096,0.0,0.0,-3.4241,0.0,-3.4656,-3.4801,-3.5129,-3.5457,-3.5631,-3.5631,-3.6025,-3.6229,-3.6285,-3.7088,-3.7437,-3.7511,-3.8322,-3.867,-3.867,-3.8689,-3.875,-3.8807,0.0,-3.851,-3.8118,-3.8118,0.0,0.0,-3.7523,-3.7247,0.0,0.0,0.0,0.0,0.0,0.0,0.0,0.0,0.0,0.0,-3.4027,0.0,0.0,0.0,0.0,-3.18,0.0,0.0,0.0,0.0,0.0,0.0,0.0,0.0,0.0,0.0,0.0,0.0,0.0,0.0,0.0,0.0,0.0,0.0,0.0,0.0,0.0,-3.3871,-3.4123,-3.4643,-3.551,-3.4711,-3.5052,-3.6705,-3.6718,-3.7108,-3.7912,-3.8711,-3.9101,-3.9101,-3.9101,-3.9101,-3.9101,-3.9101,-3.9101,-3.9101,-3.9101,-3.9101,-3.9268,-4.094,-4.1609,-4.1832,-4.3429,-4.4005,-4.4005,-3.1359,0.0,0.0,0.0,0.0,-3.1282,-3.2041,-3.3024,0.0,0.0,0.0,0.0,0.0,-3.5249,-3.5559,0.0,0.0,-3.5849,-3.5563,-3.6048,0.0,0.0,0.0,-3.5874,0.0,0.0,0.0,-3.5933,-3.6039,-3.6102,-3.6102,-3.6241,-3.6593,-3.7107,0.0,-3.7804,0.0,0.0,0.0,0.0,0.0,-3.8704,-3.8735,0.0,0.0,-3.8559,-3.8496,-3.8236,0.0,-3.7896,-3.7809,-3.765,-3.7395,-3.7031,-3.6667,-3.6414,-3.5957,0.0,0.0,0.0,-3.4717,-3.4234,0.0,0.0,0.0,0.0,0.0,0.0,0.0,0.0,0.0,0.0,0.0,0.0,0.0,0.0,0.0,0.0,0.0,0.0,0.0,0.0,0.0,0.0,0.0,0.0,0.0,0.0,0.0,-3.4023,-3.4599,-3.5473,-3.4643,-3.4748,-3.59,-3.6439,-3.6835,-3.7113,-3.8451,-3.9101,-3.9101,-3.9101,-3.9101,-3.9101,-3.9101,-3.9101,-3.9101,-3.9101,-3.9101,-3.9268,-4.094,-4.159,-4.1776,-4.341,-4.4005,-4.4005,-3.3333,-3.323,0.0,0.0,0.0,0.0,0.0,0.0,0.0,0.0,-3.5252,0.0,-3.5804,0.0,-3.6739,0.0,-3.6958,-3.6939,-3.6536,-3.7132,0.0,-3.6538,-3.6897,0.0,0.0,0.0,0.0,0.0,0.0,-3.7147,-3.7147,-3.7147,-3.7422,-3.7933,0.0,-3.8212,-3.8707,0.0,-3.8707,0.0,0.0,-3.8707,0.0,0.0,-3.8719,-3.8765,0.0,-3.853,-3.8285,-3.8153,-3.8101,-3.8034,-3.7632,-3.7505,-3.7432,-3.7017,-3.6719,-3.6388,-3.5756,-3.5576,0.0,-3.499,-3.47,0.0,-3.4493,0.0,0.0,0.0,0.0,0.0,0.0,0.0,0.0,0.0,0.0,0.0,0.0,-2.8385,0.0,0.0,0.0,0.0,0.0,0.0,0.0,0.0,0.0,0.0,0.0,0.0,-3.432,-3.5014,-3.4414,-3.4396,-3.5027,-3.6142,-3.6647,-3.6581,-3.8211,-3.8946,-3.884,-3.884,-3.884,-3.884,-3.884,-3.884,-3.884,-3.884,-3.9083,-3.9563,-4.0915,-4.1698,-4.2184,-4.3503,-4.4005,-4.4005,-3.52,-3.496,0.0,0.0,-3.4233,0.0,0.0,0.0,-3.529,0.0,-3.6245,-3.6956,-3.6992,-3.7337,-3.7577,-3.7612,-3.7648,0.0,-3.7064,-3.7411,0.0,0.0,-3.7376,-3.7738,-3.8118,0.0,0.0,0.0,0.0,0.0,-3.8707,-3.8707,-3.8707,-3.8707,-3.8707,0.0,-3.8707,-3.8707,-3.8707,-3.8707,-3.8707,-3.8707,-3.8707,-3.8707,-3.8707,-3.8707,-3.8707,-3.8707,-3.8643,-3.8252,-3.8118,-3.8068,-3.7685,-3.7542,-3.7414,-3.7055,-3.69,-3.6799,-3.6409,-3.6301,-3.6301,-3.6301,-3.5766,0.0,0.0,0.0,-3.3941,0.0,0.0,0.0,0.0,0.0,0.0,0.0,0.0,0.0,0.0,0.0,0.0,0.0,0.0,0.0,0.0,0.0,0.0,0.0,0.0,0.0,0.0,0.0,-3.378,-3.4173,-3.3998,-3.4016,-3.4253,-3.5869,-3.6567,-3.6384,-3.7985,-3.8652,-3.8399,-3.8399,-3.8399,-3.8399,-3.8399,-3.8399,-3.8399,-3.8399,-3.9017,-4.0062,-4.0854,-4.1844,-4.2916,-4.3711,-4.4005,-4.4005,-3.5186,-3.5385,-3.5537,0.0,-3.5298,-3.5146,0.0,0.0,0.0,0.0,-3.7159,-3.7571,-3.8178,-3.8343,-3.8631,-3.922,-3.9553,0.0,0.0,0.0,0.0,-3.8708,-3.8495,-3.8433,-3.853,-3.8564,0.0,-3.8707,0.0,0.0,-3.8707,-3.8707,-3.8707,-3.8707,0.0,0.0,-3.8707,-3.8707,-3.8707,-3.8707,-3.8707,-3.8707,0.0,0.0,-3.8707,-3.8707,-3.8707,-3.8707,-3.8673,-3.858,-3.8564,-3.853,-3.8417,-3.7965,-3.7487,-3.7377,-3.6919,-3.643,-3.6343,-3.6301,-3.6301,-3.6301,-3.6163,-3.6025,0.0,0.0,0.0,0.0,0.0,0.0,0.0,0.0,0.0,0.0,0.0,0.0,0.0,0.0,0.0,0.0,0.0,0.0,0.0,0.0,0.0,0.0,0.0,0.0,0.0,0.0,0.0,-3.3972,-3.3921,-3.4312,-3.5157,-3.5991,-3.6662,-3.7194,-3.8077,-3.8462,-3.8399,-3.8399,-3.8399,-3.8399,-3.8399,-3.8399,-3.8399,-3.8399,-3.8889,-3.9723,-4.0579,-4.1801,-4.3168,-4.3788,-4.4005,-4.3974,-3.6731,0.0,0.0,-3.6809,0.0,0.0,-3.655,-3.7189,0.0,-3.7986,-3.8474,0.0,-3.9427,-3.9644,-3.9914,-4.0384,-4.0633,0.0,-4.0201,0.0,0.0,-3.9839,-3.9449,-3.9221,-3.9221,-3.8891,0.0,-3.8707,0.0,0.0,-3.8707,-3.8707,-3.8707,0.0,0.0,-3.8707,0.0,-3.8707,-3.8707,-3.8707,-3.8707,0.0,0.0,-3.9221,-3.9441,-3.9753,-3.9753,-3.9313,-3.8707,-3.8707,-3.8707,-3.8707,-3.8707,-3.8269,-3.7739,-3.756,-3.7038,-3.6516,-3.6364,-3.6301,-3.6301,-3.6301,-3.6301,-3.6301,-3.6301,-3.5973,-3.5576,0.0,0.0,0.0,0.0,0.0,0.0,0.0,0.0,0.0,0.0,0.0,0.0,0.0,0.0,0.0,0.0,0.0,0.0,0.0,0.0,0.0,0.0,0.0,0.0,-3.3766,-3.378,-3.4219,-3.515,-3.5901,-3.6597,-3.7192,-3.7885,-3.817,-3.8052,-3.8052,-3.8052,-3.8052,-3.8052,-3.8052,-3.8088,-3.8432,-3.9116,-4.0,-4.1214,-4.2232,-4.305,-4.3266,-4.3475,-4.3631,-3.8546,0.0,0.0,0.0,0.0,0.0,0.0,-3.8527,0.0,-3.8994,0.0,-4.0617,-4.0707,-4.1057,-4.1297,-4.1407,0.0,-4.1272,-4.0924,-4.1129,-4.1107,-4.0743,-4.0304,-4.0065,-4.0065,-3.9368,0.0,0.0,0.0,0.0,-3.8707,-3.8707,0.0,0.0,0.0,0.0,0.0,-3.8817,-3.8854,-3.8872,-3.8982,-3.9441,-4.0065,-4.0065,-4.0487,-4.1095,-4.1095,-4.0196,-3.9019,-3.9019,-3.9019,-3.9019,-3.9019,-3.8672,-3.8178,-3.7847,-3.7336,-3.6821,-3.6471,-3.6343,-3.6301,-3.6301,-3.6301,-3.6301,-3.6301,-3.6301,-3.6111,-3.5473,-3.5266,-3.4783,0.0,0.0,0.0,0.0,0.0,0.0,0.0,0.0,0.0,0.0,0.0,0.0,0.0,0.0,0.0,0.0,0.0,0.0,0.0,0.0,0.0,-3.353,-3.3563,-3.3978,-3.4911,0.0,-3.6462,-3.7025,-3.7625,-3.781,-3.7595,-3.7595,-3.7595,-3.7595,-3.7595,-3.7666,-3.7809,-3.8522,-3.9459,-4.0635,-4.2154,-4.2715,-4.2657,-4.2501,-4.2656,-4.3013,0.0,0.0,0.0,0.0,0.0,-4.0255,-4.044,-4.0325,-4.0292,-4.064,-4.087,-4.1251,-4.1908,-4.2051,-4.2359,-4.302,-4.3075,0.0,0.0,0.0,0.0,-4.2,-4.128,-4.0875,-4.0875,-4.0747,-4.0359,0.0,0.0,0.0,-3.8707,0.0,0.0,0.0,0.0,0.0,-3.8744,-3.9405,0.0,-3.9753,-4.0414,-4.0747,-4.0875,-4.0875,-4.0967,-4.1095,-4.1095,-4.0912,-4.0673,-4.0673,-4.0673,-4.0673,-4.0673,-3.9947,-3.9078,-3.9009,-3.7987,-3.688,-3.6801,-3.6536,-3.6301,-3.6301,-3.6301,-3.6301,-3.6301,-3.6301,-3.6266,-3.6128,-3.5611,-3.5111,-3.4852,0.0,0.0,0.0,0.0,0.0,0.0,0.0,0.0,0.0,0.0,0.0,0.0,0.0,0.0,0.0,0.0,0.0,0.0,0.0,0.0,0.0,-3.3265,0.0,0.0,0.0,-3.6374,-3.8118,-3.765,-3.7466,-3.7595,-3.7595,-3.7595,-3.7595,-3.7595,-3.7969,-3.8611,-3.8754,-3.9667,-4.1064,-4.2034,-4.2251,-4.2047,-4.2005,-4.1959,-4.1917,0.0,0.0,0.0,0.0,0.0,0.0,0.0,-4.1912,0.0,-4.1739,-4.2084,-4.2488,-4.2873,-4.291,-4.3075,-4.3478,-4.3515,-4.3515,-4.3515,-4.313,-4.291,-4.291,-4.2158,0.0,-4.1735,-4.1297,-4.0912,-4.0524,0.0,0.0,-3.9313,0.0,0.0,0.0,0.0,-3.9313,0.0,0.0,0.0,-4.0561,-4.093,-4.1352,-4.1735,-4.1735,-4.1992,-4.2341,-4.2341,-4.2341,-4.2213,-4.137,-4.1095,-4.1095,-4.1095,-4.0568,-3.9912,-3.9912,-3.9228,-3.8412,-3.8209,-3.7708,-3.7189,-3.6968,-3.6611,-3.6301,-3.6301,-3.6301,-3.6301,-3.6301,-3.6025,-3.5645,-3.5266,-3.4266,0.0,0.0,0.0,0.0,0.0,0.0,0.0,0.0,0.0,0.0,0.0,0.0,0.0,0.0,0.0,0.0,0.0,0.0,0.0,0.0,0.0,0.0,0.0,0.0,0.0,-3.7984,-3.7631,-3.7521,-3.7595,-3.7595,-3.7595,-3.7595,-3.7595,-3.8058,-3.886,-3.9664,-4.0681,-4.1752,-4.2003,-4.1956,-4.1719,-4.1591,-4.1408,-4.129,0.0,-4.1242,0.0,0.0,-4.2029,0.0,-4.2561,-4.3075,-4.3276,-4.2635,-4.3112,-4.3515,-4.3515,-4.3515,-4.3515,-4.3515,-4.3515,-4.3515,-4.3515,-4.3515,-4.3515,-4.3515,-4.2892,-4.2561,-4.2561,-4.1937,-4.1534,0.0,0.0,0.0,0.0,0.0,0.0,0.0,0.0,0.0,0.0,0.0,-4.1352,-4.137,-4.1535,-4.1992,-4.2561,-4.2561,-4.2947,-4.3515,-4.3515,-4.3515,-4.3296,-4.2047,-4.1625,-4.1625,-4.1625,-4.1276,-4.0887,-4.0887,-4.0474,-3.9976,-3.9642,-3.8962,-3.8284,-3.7957,-3.7214,-3.6559,-3.6559,-3.6422,-3.6301,-3.6301,-3.6301,-3.6111,-3.5542,-3.4818,0.0,0.0,0.0,0.0,0.0,0.0,0.0,0.0,0.0,0.0,0.0,0.0,0.0,0.0,0.0,0.0,0.0,0.0,0.0,0.0,0.0,-3.418,-3.5136,0.0,-3.6666,-3.7558,-3.7448,-3.7429,-3.7466,-3.7466,-3.7555,-3.7715,-3.7715,-3.8248,-3.9242,-4.0648,-4.1573,-4.2142,-4.1913,-4.1697,-4.1475,-4.1277,-4.1065,-4.0942,0.0,0.0,0.0,0.0,0.0,0.0,-4.3404,-4.346,-4.3478,-4.3387,-4.346,-4.3515,-4.3515,-4.3515,-4.3515,-4.3515,-4.3515,-4.3515,-4.3515,-4.3515,-4.3515,-4.3515,-4.3441,-4.3404,-4.3404,-4.3296,-4.291,0.0,0.0,-4.1332,0.0,0.0,0.0,0.0,0.0,0.0,0.0,-4.1864,-4.2194,-4.2249,-4.2983,-4.3331,-4.3404,-4.3404,-4.3441,-4.3515,-4.3515,-4.3515,-4.3478,-4.3331,-4.3277,-4.3277,-4.3277,-4.2746,-4.2125,-4.2125,-4.1337,-4.0438,-4.0402,-3.9805,-3.9185,-3.9143,-3.8251,-3.7392,-3.7392,-3.6818,-3.6301,-3.6301,-3.6301,-3.6284,-3.6215,-3.5594,-3.4835,0.0,0.0,0.0,0.0,0.0,0.0,0.0,0.0,0.0,0.0,0.0,0.0,0.0,0.0,0.0,0.0,0.0,0.0,-3.2868,0.0,-3.418,-3.5539,-3.5574,-3.6197,-3.7394,-3.6987,-3.6886,-3.7066,-3.7066,-3.7415,-3.8048,-3.8048,-3.8889,-4.0309,-4.1174,-4.16,-4.167,-4.1648,-4.1475,-4.1232,-4.1209,-4.1065,-4.0912,0.0,0.0,0.0,0.0,0.0,0.0,0.0,-4.4635,-4.4929,-4.4929,-4.4525,-4.4397,-4.4892,-4.4929,-4.4929,-4.4929,-4.4929,-4.4727,-4.425,-4.4213,-4.3993,-4.3533,-4.3515,-4.3515,-4.3515,-4.3515,-4.3332,0.0,0.0,0.0,0.0,0.0,0.0,0.0,0.0,-4.1827,-4.1882,-4.2671,-4.302,-4.3039,-4.3369,-4.3515,-4.3515,-4.3515,-4.3515,-4.3515,-4.3515,-4.3515,-4.3515,-4.3515,-4.3515,-4.3463,-4.3214,-4.3084,-4.2968,-4.274,-4.2323,-4.1885,-4.1584,-4.075,-3.989,-3.9608,-3.8837,-3.8168,-3.8168,-3.7581,-3.7008,-3.7008,-3.6628,-3.6301,-3.6301,-3.6059,-3.5611,0.0,0.0,0.0,0.0,0.0,0.0,0.0,0.0,0.0,0.0,0.0,0.0,0.0,0.0,0.0,0.0,0.0,0.0,-3.2404,0.0,-3.4188,-3.4871,-3.5782,-3.6531,-3.7147,-3.6968,-3.6928,-3.7025,-3.7444,-3.8058,-3.8792,-3.9284,-3.9845,-4.0455,-4.1266,-4.1604,-4.1604,-4.1604,-4.1431,-4.1209,-4.1209,-4.1065,-4.0912,-4.3846,0.0,-4.4212,0.0,-4.4672,-4.5057,-4.5057,-4.5535,-4.5975,-4.6214,-4.5773,-4.5517,-4.5865,-4.5902,-4.5902,-4.5902,-4.5902,-4.5663,-4.5094,-4.5057,-4.469,-4.3883,-4.3846,0.0,-4.3515,-4.3515,-4.3515,-4.3515,-4.2928,0.0,0.0,0.0,0.0,0.0,-4.2396,-4.2653,-4.269,-4.3259,-4.3515,-4.3515,-4.3515,-4.3515,-4.3515,-4.3515,-4.3515,-4.3515,-4.3515,-4.3515,-4.3515,-4.3515,-4.3515,-4.3444,-4.3178,-4.3178,-4.3268,-4.2976,-4.2806,-4.2614,-4.2297,-4.1474,-4.0639,-4.0306,-3.957,-3.8922,-3.8922,-3.8336,-3.7771,-3.7547,-3.6853,-3.6301,-3.6301,-3.6301,-3.6059,-3.5318,0.0,0.0,0.0,0.0,0.0,0.0,-3.2127,-3.2041,-3.1817,0.0,0.0,0.0,0.0,0.0,0.0,0.0,0.0,0.0,0.0,0.0,0.0,-3.5983,-3.6647,-3.6791,-3.6791,-3.6913,-3.7175,-3.8133,-3.8849,-3.9386,-4.0211,-4.0538,-4.0572,-4.1153,-4.1403,-4.1403,-4.1403,-4.1272,-4.1094,-4.1094,-4.1018,-4.0912,-4.469,-4.5333,-4.5865,-4.5865,-4.5883,-4.5883,-4.5883,-4.5883,-4.6195,-4.6984,-4.7076,-4.6764,-4.5993,-4.5902,-4.5902,-4.5902,-4.5902,-4.5902,-4.5883,-4.5883,-4.5535,0.0,0.0,-4.4305,-4.3533,-4.3515,-4.3515,-4.3515,0.0,0.0,-4.2304,0.0,-4.2708,-4.3478,-4.3478,-4.3496,-4.3496,-4.3515,-4.3515,-4.3515,-4.3515,-4.3515,-4.3515,-4.3515,-4.3515,-4.3515,-4.3515,-4.3515,-4.3515,-4.3515,-4.3515,-4.3515,-4.3479,-4.3214,-4.2901,-4.2901,-4.2557,-4.2198,-4.2198,-4.1864,-4.1494,-4.1494,-4.0582,-3.9681,-3.9681,-3.9112,-3.8392,-3.765,-3.6853,-3.6301,-3.6301,-3.6301,-3.6059,-3.5318,0.0,0.0,0.0,0.0,0.0,0.0,-3.2886,-3.261,-3.1869,0.0,0.0,0.0,0.0,0.0,0.0,0.0,0.0,-3.337,-3.4549,0.0,-3.5682,-3.609,-3.6301,-3.6322,-3.6322,-3.6719,-3.753,-3.9014,-3.9704,-3.9756,-4.0532,-4.0894,-4.0894,-4.0894,-4.0912,-4.0912,-4.0912,-4.0912,-4.0894,-4.0894,-4.0912,-4.0912,-4.5516,-4.5718,-4.5902,-4.5902,-4.6361,-4.6709,-4.6709,-4.7186,-4.7627,-4.7865,-4.7921,-4.7829,-4.7572,-4.7535,-4.7535,0.0,-4.7535,-4.7315,0.0,-4.6709,-4.6361,-4.5553,-4.5516,-4.5149,-4.4342,-4.4323,-4.4048,-4.3515,0.0,0.0,0.0,-4.3112,-4.324,-4.3515,-4.3515,-4.3515,-4.3515,-4.3515,-4.3515,-4.3515,-4.3515,-4.3515,-4.3515,-4.3515,-4.3515,-4.3515,-4.3515,-4.3515,-4.3515,-4.3515,-4.3515,-4.3515,-4.3515,-4.341,-4.3196,-4.2596,-4.2318,-4.2136,-4.1799,-4.1401,-4.1071,-4.1071,-4.0804,-4.0532,-4.0532,-3.9905,-3.9129,-3.841,-3.7668,-3.7133,-3.7133,-3.6663,-3.6215,-3.599,-3.5956,0.0,0.0,0.0,0.0,0.0,-3.3714,-3.3628,0.0,-3.3352,0.0,0.0,0.0,0.0,0.0,0.0,0.0,0.0,-3.4743,0.0,-3.5362,-3.5984,-3.6301,-3.6301,-3.6853,-3.7789,-3.9008,-3.9491,-3.9991,-4.0549,-4.0791,-4.0912,-4.0912,-4.0912,-4.0912,-4.0912,-4.0912,-4.0912,-4.0912,-4.0912,-4.0912,-4.0912,-4.6361,-4.6599,-4.6801,-4.6801,-4.7223,-4.7553,-4.7553,-4.7994,-4.8306,-4.8306,-4.8306,-4.8306,-4.8306,-4.8306,0.0,-4.8306,-4.8306,-4.8104,-4.7571,-4.7553,-4.7186,-4.6397,-4.6361,-4.5975,-4.5168,-4.5149,0.0,-4.3956,-4.3662,-4.3515,-4.3515,-4.3515,-4.3515,-4.3515,-4.3515,-4.3515,-4.3515,-4.3515,-4.3515,-4.3515,-4.3515,-4.3515,-4.3515,-4.3515,-4.3515,-4.3515,-4.3515,-4.3515,-4.3515,-4.3515,-4.3515,-4.3515,-4.3515,-4.3392,-4.316,-4.2616,-4.2198,-4.1864,-4.1583,-4.1209,-4.0912,-4.0912,-4.0912,-4.0912,-4.0912,-4.0267,-3.956,-3.9112,-3.8422,-3.784,-3.7564,-3.7098,-3.6646,-3.6353,-3.6301,-3.6146,-3.568,0.0,0.0,0.0,0.0,0.0,0.0,-3.4113,-3.4217,0.0,0.0,0.0,0.0,0.0,0.0,-3.449,-3.5232,0.0,-3.5611,-3.6059,-3.6456,-3.6749,-3.7818,-3.8801,-3.9715,-4.0008,-4.0429,-4.0912,-4.0912,-4.0912,-4.0912,-4.0912,-4.0912,-4.0912,-4.0912,-4.0912,-4.0912,-4.0912,-4.0912,-4.0912,-4.7186,-4.7791,-4.8306,0.0,-4.8306,0.0,-4.8306,-4.8306,-4.8306,-4.8306,-4.8306,-4.8306,-4.8306,-4.8306,-4.8306,-4.8306,0.0,0.0,0.0,-4.8306,-4.7957,-4.7223,-4.7186,-4.6801,-4.5993,-4.5975,-4.559,-4.4764,-4.3975,-4.3588,-4.3588,-4.3533,-4.3515,-4.3515,-4.3515,-4.3515,-4.3515,-4.3515,-4.3515,-4.3515,-4.3515,-4.3515,-4.3515,-4.3515,-4.3515,-4.3515,-4.3515,-4.3479,-4.3444,-4.3444,-4.3427,-4.341,-4.341,-4.3142,-4.2863,-4.2882,-4.2259,-4.1539,-4.1494,-4.1232,-4.0918,-4.0912,-4.0912,-4.0912,-4.0912,-4.0325,-3.9767,-3.9767,-3.9181,-3.8456,-3.7789,-3.7616,-3.7323,-3.6508,-3.6387,-3.6353,-3.6301,0.0,0.0,0.0,0.0,0.0,0.0,-3.4251,-3.4545,0.0,0.0,0.0,0.0,0.0,-3.5266,-3.5266,-3.5939,-3.6335,-3.6387,-3.6387,-3.6801,-3.7668,-3.9026,-3.9715,-3.9802,-4.0567,-4.0912,-4.0912,-4.0912,-4.0912,-4.0912,-4.0912,-4.0912,-4.0912,-4.0912,-4.0912,-4.0912,-4.0912,-4.0912,-4.0912,0.0,0.0,-4.8306,-4.8306,-4.8306,-4.8306,-4.8306,-4.8306,-4.8306,-4.8306,-4.8306,-4.8306,-4.8306,-4.8306,-4.8306,-4.8306,-4.8306,-4.8306,-4.8306,-4.8306,-4.8214,-4.8012,-4.8012,-4.7626,-4.6819,-4.6819,-4.6415,-4.5626,-4.4819,-4.4415,-4.4415,-4.3791,-4.3515,-4.3515,-4.3515,-4.3515,-4.3515,-4.3515,-4.3515,-4.3515,-4.3515,-4.3515,-4.3515,-4.3515,-4.3515,-4.3515,-4.3515,-4.3304,-4.3032,-4.3032,-4.2789,-4.25,-4.25,-4.244,-4.2438,-4.2806,-4.2478,-4.1948,-4.1604,-4.1423,-4.1283,-4.0989,-4.0912,-4.0912,-4.0912,-4.0756,-4.0636,-4.0636,-3.9974,-3.9388,-3.9198,-3.8738,-3.8077,-3.734,-3.7236,-3.6991,-3.6387,-3.6301,0.0,0.0,-3.6042,-3.5973,-3.5801,-3.5783,-3.5852,0.0,0.0,0.0,0.0,-3.6128,-3.6042,-3.6042,-3.6215,-3.6594,-3.7219,-3.7236,-3.7892,-3.9181,-3.9526,-4.0008,-4.0636,-4.0825,-4.0912,-4.0912,-4.0912,-4.0912,-4.0912,-4.0912,-4.0912,-4.0912,-4.0912,-4.0912,-4.0912,-4.0912,-4.0912,-4.0912,-4.8306,-4.8306,-4.8306,-4.8306,-4.8306,-4.8306,-4.8306,-4.8306,-4.8306,-4.8306,-4.8306,-4.8306,-4.8306,-4.8306,-4.8306,-4.8306,-4.8306,-4.8306,-4.8306,-4.8306,-4.8306,-4.8306,-4.8306,-4.8104,-4.7663,-4.7645,-4.7241,-4.6452,-4.5645,-4.5259,-4.5241,-4.4433,-4.4048,-4.403,-4.3644,-4.3515,-4.3515,-4.3515,-4.3515,-4.3515,-4.3515,-4.3515,-4.3515,-4.3515,-4.3515,-4.3515,-4.3515,-4.325,-4.2901,-4.2901,-4.2595,-4.2198,-4.2198,-4.2053,-4.1969,-4.2438,-4.2257,-4.1821,-4.1561,-4.1356,-4.1186,-4.0965,-4.0912,-4.0912,-4.0912,-4.0912,-4.0912,-4.0912,-4.0567,-4.0129,-3.9767,-3.937,-3.8853,-3.8134,-3.8013,-3.7737,-3.6956,-3.6835,0.0,-3.6335,-3.6301,-3.6301,-3.6301,-3.6301,-3.6301,-3.6301,-3.6301,0.0,-3.6818,-3.6835,-3.6835,-3.6835,-3.6835,-3.7215,-3.8013,-3.8336,-3.8905,-3.9698,-4.006,-4.0498,-4.0912,-4.0912,-4.0912,-4.0912,-4.0912,-4.0912,-4.0912,-4.0912,-4.0912,-4.0912,-4.0912,-4.0912,-4.0912,-4.0912,-4.0912,-4.0912,-4.8306,-4.8306,-4.8306,-4.8306,-4.8306,-4.8306,-4.8306,-4.8306,-4.8306,-4.8306,-4.8306,-4.8306,-4.8306,-4.8306,-4.8306,-4.8306,-4.8306,-4.8306,-4.8306,-4.8306,-4.8306,-4.8306,-4.8306,-4.8306,-4.8306,-4.8306,-4.7957,-4.7278,-4.6489,-4.6085,-4.6067,-4.5259,-4.4892,-4.4856,-4.4158,-4.3846,-4.3846,-4.3846,-4.3846,-4.3863,-4.3718,-4.3681,-4.3663,-4.3551,-4.3515,-4.3515,-4.3515,-4.325,-4.2882,-4.2825,-4.2478,-4.2074,-4.2011,-4.1735,-4.149,-4.1903,-4.1713,-4.1423,-4.1472,-4.1209,-4.0912,-4.0912,-4.0912,-4.0912,-4.0912,-4.0912,-4.0912,-4.0912,-4.0912,-4.0705,-4.0008,-3.9871,-3.9629,-3.8888,-3.8767,-3.8491,-3.7771,0.0,-3.7426,-3.6732,-3.6646,-3.6646,-3.6646,-3.6646,-3.6646,-3.6646,-3.6646,-3.6939,-3.7633,-3.7668,-3.7719,-3.784,-3.7719,-3.803,-3.875,-3.9508,-3.9871,-3.9888,-4.0584,-4.0912,-4.0912,-4.0912,-4.0912,-4.0912,-4.0912,-4.0912,-4.0912,-4.0912,-4.0912,-4.0912,-4.0912,-4.0912,-4.0912,-4.0912,-4.0912,-4.0912,-4.8306,-4.8306,-4.8306,-4.8306,-4.8306,-4.8306,-4.8306,-4.8306,-4.8306,-4.8306,-4.8306,-4.8306,-4.8306,-4.8306,-4.8306,-4.8306,-4.8306,-4.8306,-4.8306,-4.8306,-4.8306,-4.8306,-4.8306,-4.8306,-4.8306,-4.8306,-4.8251,-4.8122,-4.7296,-4.6911,-4.6892,-4.6104,-4.5718,-4.5718,-4.5571,-4.5535,-4.5535,-4.5535,-4.5535,-4.5461,-4.48,-4.4525,-4.4452,-4.3754,-4.3515,-4.3515,-4.3515,-4.325,-4.2844,-4.2438,-4.199,-4.1556,-4.1209,-4.1041,-4.1012,-4.1065,-4.1041,-4.1065,-4.1401,-4.1209,-4.0912,-4.0912,-4.0912,-4.0912,-4.0912,-4.0912,-4.0912,-4.0912,-4.0912,-4.086,-4.0739,-4.0722,-4.044,-3.9646,-3.9526,-3.9267,-3.8525,0.0,-3.8392,-3.8249,-3.8232,-3.8232,-3.8232,-3.8232,-3.8232,-3.8232,-3.8232,-3.8284,-3.8427,-3.8422,-3.8698,-3.9336,-3.8732,-3.8767,-3.9508,-4.0325,-4.0722,-4.0722,-4.0843,-4.0912,-4.0912,-4.0912,-4.0912,-4.0912,-4.0912,-4.0912,-4.0912,-4.0912,-4.0912,-4.0912,-4.0912,-4.0912,-4.0912,-4.0912,-4.0912,-4.0912,-4.8306,-4.8306,-4.8306,-4.8306,-4.8306,-4.8306,-4.8306,-4.8306,-4.8306,-4.8306,-4.8306,-4.8306,-4.8306,-4.8306,-4.8306,-4.8306,-4.8306,-4.8306,-4.8306,-4.8306,-4.8306,-4.8306,-4.8306,-4.8306,-4.8306,-4.8306,-4.8306,-4.8306,-4.792,-4.7736,-4.7718,-4.6911,-4.6413,-4.6167,-4.5993,-4.5754,-4.5528,-4.5792,-4.5902,-4.5865,-4.5498,-4.5351,-4.5314,-4.4929,-4.4782,-4.4782,-4.4782,-4.4528,-4.4095,-4.3428,-4.2739,-4.2038,-4.1405,-4.1088,-4.0912,-4.0912,-4.0912,-4.0942,-4.1117,-4.1041,-4.0912,-4.0912,-4.0912,-4.0912,-4.0912,-4.0912,-4.0912,-4.0912,-4.0912,-4.0912,-4.0912,-4.0912,-4.0791,-4.0411,-4.0359,0.0,-3.9301,-3.9181,-3.9043,-3.8646,-3.8594,-3.8594,-3.8594,-3.8594,-3.8594,-3.8594,-3.8594,-3.8767,-3.9163,-3.9181,-3.9543,-4.0325,-4.0032,-4.0014,-4.0359,-4.0722,-4.0912,-4.0912,-4.0912,-4.0912,-4.0912,-4.0912,-4.0912,-4.0912,-4.0912,-4.0912,-4.0912,-4.0912,-4.0912,-4.0912,-4.0912,-4.0912,-4.0912,-4.0912,-4.0912,-4.0912,-4.8306,-4.8306,-4.8306,-4.8306,-4.8306,-4.8306,-4.8306,-4.8306,-4.8306,-4.8306,-4.8306,-4.8306,-4.8306,-4.8306,-4.8306,-4.8306,-4.8306,-4.8306,-4.8306,-4.8306,-4.8306,-4.8306,-4.8306,-4.8306,-4.8306,-4.8306,-4.8306,-4.8306,-4.8306,-4.8306,-4.8306,-4.7663,-4.714,-4.6667,-4.6521,-4.6209,-4.5798,-4.6247,-4.6452,-4.6434,-4.625,-4.6177,-4.6159,-4.5975,-4.5902,-4.5902,-4.5902,-4.5698,-4.534,-4.4625,-4.3811,-4.2996,-4.2281,-4.1754,-4.1395,-4.1222,-4.1032,-4.0912,-4.0912,-4.0912,-4.0912,-4.0912,-4.0912,-4.0912,-4.0912,-4.0912,-4.0912,-4.0912,-4.0912,-4.0912,-4.0912,-4.0912,-4.0912,-4.0912,0.0,-4.0687,0.0,-3.9974,-3.9767,-3.9198,-3.9112,-3.9112,-3.9112,-3.9112,-3.9112,-3.9112,-3.9112,-3.9393,-3.9939,-3.9974,-4.025,-4.0877,-4.0912,-4.0912,-4.0912,-4.0912,-4.0912,-4.0912,-4.0912,-4.0912,-4.0912,-4.0912,-4.0912,-4.0912,-4.0912,-4.0912,-4.0912,-4.0912,-4.0912,-4.0912,-4.0912,-4.0912,-4.0912,-4.0912,-4.0912,-4.0912,-4.8306,-4.8306,-4.8306,-4.8306,-4.8306,-4.8306,-4.8306,-4.8306,-4.8306,-4.8306,-4.8306,-4.8306,-4.8306,-4.8306,-4.8306,-4.8306,-4.8306,-4.8306,-4.8306,-4.8306,-4.8306,-4.8306,-4.8306,-4.8306,-4.8306,-4.8306,-4.8306,-4.8306,-4.8306,-4.8306,-4.8306,-4.8251,-4.7964,-4.7521,-4.7929,-4.7853,-4.7451,-4.793,-4.8122,-4.8067,-4.7296,-4.7003,-4.6929,-4.6177,-4.5902,-4.5902,-4.5902,-4.5883,-4.5792,-4.5358,-4.4844,-4.4302,-4.386,-4.3404,-4.2879,-4.2154,-4.1447,-4.0912,-4.0912,-4.0912,-4.0912,-4.0912,-4.0912,-4.0912,-4.0912,-4.0912,-4.0912,-4.0912,-4.0912,-4.0912,-4.0912,-4.0912,-4.0912,-4.0912,0.0,0.0,-4.0825,-4.0825,-4.0791,-4.0739,-4.0739,-4.0739,-4.0739,-4.0739,-4.0739,-4.0739,-4.0739,-4.0756,-4.0808,-4.0825,-4.0843,-4.0912,-4.0912,-4.0912,-4.0912,-4.0912,-4.0912,-4.0912,-4.0912,-4.0912,-4.0912,-4.0912,-4.0912,-4.0912,-4.0912,-4.0912,-4.0912,-4.0912,-4.0912,-4.0912,-4.0912,-4.0912,-4.0912,-4.0912,-4.0912,-4.0912,-4.9848,-4.9848,-4.9848,-4.9848,-4.9848,-4.9848,-4.9848,-4.9848,-4.9848,-4.9848,-4.9426,-4.9095,-4.9095,-4.8618,-4.8306,-4.8306,-4.8306,-4.8306,-4.8306,-4.8306,-4.8306,-4.8306,-4.8306,-4.8306,-4.8306,-4.8306,-4.8306,-4.8306,-4.8306,-4.8306,-4.8306,-4.8306,-4.8055,-4.7611,-4.8075,-4.7875,-4.7204,-4.7671,-4.7713,-4.7403,-4.7093,-4.6967,-4.693,-4.6624,-4.6516,-4.6516,-4.6516,-4.6516,-4.6422,-4.577,-4.5223,-4.4705,-4.4038,-4.353,-4.3138,-4.2827,-4.2551,-4.2327,-4.2327,-4.1636,-4.0912,-4.0912,-4.0912,-4.0912,-4.0912,-4.0912,-4.0912,-4.0912,-4.0912,-4.0912,-4.0912,-4.0912,-4.0912,-4.0912,0.0,-4.0912,-4.0912,-4.0912,-4.0912,-4.0912,-4.0912,-4.0912,-4.0912,-4.0912,-4.0912,-4.0912,-4.0912,-4.0912,-4.0912,-4.0912,-4.0912,-4.0912,-4.0912,-4.0912,-4.0912,-4.0912,-4.0912,-4.0912,-4.0912,-4.0912,-4.0912,-4.0912,-4.0912,-4.0912,-4.0912,-4.0912,-4.0912,-4.0912,-4.0912,-4.0912,-4.0912,-4.0912,-4.0912,-4.0912,-4.0912,-4.0912,-5.0802,-5.0802,-5.0802,-5.0802,-5.0802,-5.0802,-5.0802,-5.0802,-5.0802,-5.0802,-5.0306,-4.9996,-4.9996,-4.9444,-4.9095,-4.9095,-4.9095,-4.8985,-4.8728,-4.8453,-4.8306,-4.8306,-4.8306,-4.8306,-4.8306,-4.8306,-4.8306,-4.8306,-4.8152,-4.8152,-4.8287,-4.8152,-4.7915,-4.7611,-4.8075,-4.7775,-4.6931,-4.7399,-4.7335,-4.6908,-4.6908,-4.6908,-4.6908,-4.6908,-4.6908,-4.6908,-4.6908,-4.6908,-4.6819,-4.6243,-4.5769,-4.5273,-4.4723,-4.4087,-4.3552,-4.3552,-4.3379,-4.3189,-4.3189,-4.243,-4.1567,-4.1309,-4.1067,-4.0912,-4.0912,-4.0912,-4.0912,-4.0912,-4.0912,-4.0912,-4.0912,-4.0912,-4.0912,-4.0912,-4.0912,-4.0912,-4.0912,-4.0912,-4.0912,-4.0912,-4.0912,-4.0912,-4.0912,-4.0912,-4.0912,-4.0912,-4.0912,-4.0912,-4.0912,-4.0912,-4.0912,-4.0912,-4.0912,-4.0912,-4.0912,-4.0912,-4.0912,-4.0912,-4.0912,-4.0912,-4.0912,-4.0912,-4.0912,-4.0912,-4.0912,-4.0912,-4.0912,-4.0912,-4.0912,-4.0912,-4.0912,-4.0912,-4.0912,-4.0912,-4.0912,-4.0912,-5.082,-5.082,-5.082,-5.082,-5.082,-5.082,-5.082,-5.082,-5.082,-5.082,-5.082,-5.082,-5.082,-5.0802,-5.0802,-5.0802,-5.0802,-5.0453,-4.9665,-4.8802,-4.8305,-4.8324,-4.8306,-4.8306,-4.8306,-4.8306,-4.8306,-4.8287,-4.7836,-4.7836,-4.8287,-4.7816,-4.7611,-4.7632,-4.8075,-4.7775,-4.6931,-4.7399,-4.7335,-4.6886,-4.6886,-4.6886,-4.6886,-4.6886,-4.6886,-4.6886,-4.6886,-4.6886,-4.6886,-4.6886,-4.656,-4.6186,-4.6186,-4.5331,-4.4311,-4.4311,-4.3793,-4.3224,-4.3224,-4.3207,-4.3017,-4.2223,-4.1464,-4.0929,-4.0912,-4.0912,-4.0912,-4.0912,-4.0912,-4.0912,-4.0912,-4.0912,-4.0912,-4.0912,-4.0912,-4.0912,-4.0912,-4.0912,-4.0912,-4.0912,-4.0912,-4.0912,-4.0912,-4.0912,-4.0912,-4.0912,-4.0912,-4.0912,-4.0912,-4.0912,-4.0912,-4.0912,-4.0912,-4.0912,-4.0912,-4.0912,-4.0912,-4.0912,-4.0912,-4.0912,-4.0912,-4.0912,-4.0912,-4.0912,-4.0912,-4.0912,-4.0912,-4.0912,-4.0912,-4.0912,-4.0912,-4.0912,-4.0912,-4.0912,-4.0912,-4.0912,-5.2491,-5.2491,-5.2491,-5.2491,-5.2491,-5.2491,-5.2491,-5.2491,-5.2491,-5.2491,-5.1995,-5.1628,-5.1628,-5.1132,-5.0802,-5.0802,-5.0802,-5.071,-5.0453,-4.9854,-4.9412,-4.9224,-4.8636,-4.8306,-4.8306,-4.8306,-4.8132,-4.7816,-4.7674,-4.7674,-4.7816,-4.7653,-4.7775,-4.8113,-4.8248,-4.7975,-4.7399,-4.7548,-4.7138,-4.6411,-4.6411,-4.6168,-4.5837,-4.5837,-4.5837,-4.5837,-4.5837,-4.5837,-4.5837,-4.5837,-4.5752,-4.5641,-4.5641,-4.5382,-4.5079,-4.5079,-4.4923,-4.4751,-4.4751,-4.4354,-4.3793,-4.3034,-4.2672,-4.2378,-4.1809,-4.1671,-4.1533,-4.1015,-4.0912,-4.0912,-4.0912,-4.0912,-4.0912,-4.0912,-4.0912,-4.0912,-4.0912,-4.0912,-4.0912,-4.0912,-4.0912,-4.0912,-4.0912,-4.0912,-4.0912,-4.0912,-4.0912,-4.0912,-4.0912,-4.0912,-4.0912,-4.0912,-4.0912,-4.0912,-4.0912,-4.0912,-4.0912,-4.0912,-4.0912,-4.0912,-4.0912,-4.0912,-4.0912,-4.0912,-4.0912,-4.0912,-4.0912,-4.0912,-4.0912,-4.0912,-4.0912,-4.0912,-4.0912,-4.0912,-4.0912,-4.0912,-5.3185,-5.3185,-5.3185,-5.3185,-5.3185,-5.3185,-5.3185,-5.3185,-5.3185,-5.3185,-5.2784,-5.2472,-5.2472,-5.205,-5.1756,-5.1756,-5.1463,-5.1261,-5.1261,-5.0474,-4.9945,-4.9766,-4.9052,-4.845,-4.8034,-4.7836,-4.7609,-4.7335,-4.7138,-4.7138,-4.7313,-4.7138,-4.7399,-4.8015,-4.8015,-4.7856,-4.7611,-4.7611,-4.7071,-4.6211,-4.6211,-4.5879,-4.5397,-4.5397,-4.5397,-4.5397,-4.5397,-4.5397,-4.5397,-4.5397,-4.5397,-4.5397,-4.5397,-4.5397,-4.5397,-4.5397,-4.5397,-4.5397,-4.5397,-4.5079,-4.463,-4.4165,-4.3638,-4.3069,-4.2585,-4.2482,-4.2233,-4.1426,-4.1247,-4.1161,-4.082,-4.0728,-4.0752,-4.0817,-4.0817,-4.084,-4.0894,-4.0912,-4.0912,-4.0912,-4.0912,-4.0912,-4.0912,-4.0912,-4.0912,-4.0912,-4.0864,-4.084,-4.0912,-4.0864,-4.0817,-4.0817,-4.0864,-4.0871,-4.0817,-4.0871,-4.0912,-4.0912,-4.0912,-4.0912,-4.0912,-4.0912,-4.0912,-4.0912,-4.0912,-4.0912,-4.0912,-4.0912,-4.0912,-4.0912,-4.0912,-4.0912,-4.0912,-4.0912,-4.0912,-4.0912,-5.3185,-5.3185,-5.3185,-5.3185,-5.3185,-5.3185,-5.3185,-5.3185,-5.3185,-5.3185,-5.3185,-5.3185,-5.3185,-5.3185,-5.3185,-5.3185,-5.2527,-5.2105,-5.2105,-5.0911,-5.0172,-5.0122,-4.9537,-4.8733,-4.7698,-4.7237,-4.6957,-4.684,-4.6411,-4.6411,-4.684,-4.6387,-4.6678,-4.7548,-4.7548,-4.7569,-4.7611,-4.7611,-4.7075,-4.6259,-4.6308,-4.5938,-4.5397,-4.545,-4.545,-4.5397,-4.5397,-4.5397,-4.5397,-4.5397,-4.5397,-4.5397,-4.5397,-4.5397,-4.5397,-4.5397,-4.5397,-4.5397,-4.5397,-4.5397,-4.5371,-4.5371,-4.4363,-4.3354,-4.331,-4.3293,-4.3019,-4.2078,-4.1898,-4.1668,-4.0859,-4.0646,-4.0637,-4.0751,-4.0724,-4.0721,-4.0847,-4.0888,-4.0888,-4.0912,-4.0912,-4.0912,-4.0912,-4.0912,-4.0912,-4.0912,-4.0769,-4.0745,-4.0888,-4.0769,-4.0673,-4.0673,-4.0817,-4.0817,-4.0673,-4.0799,-4.0888,-4.0912,-4.0912,-4.0912,-4.0912,-4.0912,-4.0912,-4.0912,-4.0912,-4.0912,-4.0912,-4.0912,-4.0912,-4.0912,-4.0912,-4.0912,-4.0912,-4.0912,-4.0888,-4.0888,-5.3185,-5.3185,-5.3185,-5.3185,-5.3185,-5.3185,-5.3185,-5.3185,-5.3185,-5.3185,-5.3185,-5.3185,-5.3185,-5.3185,-5.3185,-5.3185,-5.3041,-5.2949,-5.2949,-5.2257,-5.1588,-5.0977,-5.0033,-4.9113,-4.8243,-4.7915,-4.7305,-4.6339,-4.6259,-4.6259,-4.6339,-4.6259,-4.6489,-4.7049,-4.7049,-4.7248,-4.7611,-4.7611,-4.727,-4.6771,-4.716,-4.6525,-4.545,-4.5879,-4.5752,-4.5397,-4.5397,-4.5397,-4.5397,-4.5397,-4.5397,-4.5397,-4.5397,-4.5397,-4.5397,-4.5397,-4.5397,-4.5397,-4.5397,-4.5327,-4.523,-4.523,-4.4927,-4.4506,-4.4156,-4.4069,-4.3794,-4.285,-4.2671,-4.2569,-4.2287,-4.1749,-4.1374,-4.1399,-4.0927,-4.0583,-4.0721,-4.0745,-4.0793,-4.0888,-4.0912,-4.0912,-4.0912,-4.0912,-4.0912,-4.0912,-4.0769,-4.0721,-4.0745,-4.0624,-4.0534,-4.0534,-4.0583,-4.0583,-4.0534,-4.0583,-4.0704,-4.0912,-4.0912,-4.0912,-4.0912,-4.0912,-4.0912,-4.0912,-4.0912,-4.0912,-4.0912,-4.0912,-4.0912,-4.0912,-4.0912,-4.0912,-4.0912,-4.0912,-4.084,-4.0745,-5.3185,-5.3185,-5.3185,-5.3185,-5.3185,-5.3185,-5.3185,-5.3185,-5.3185,-5.3185,-5.3185,-5.3185,-5.3185,-5.3185,-5.3185,-5.3185,-5.3185,-5.3185,-5.3185,-5.2694,-5.2092,-5.1424,-5.0598,-4.9686,-4.8622,-4.8452,-4.7743,-4.6403,-4.6403,-4.6194,-4.5829,-4.5829,-4.6087,-4.6578,-4.6578,-4.684,-4.727,-4.727,-4.6981,-4.6602,-4.6822,-4.6321,-4.5423,-4.5701,-4.5641,-4.5397,-4.5397,-4.5397,-4.5397,-4.5397,-4.5397,-4.5397,-4.5327,-4.53,-4.5274,-4.5238,-4.5211,-4.5211,-4.5211,-4.5167,-4.5096,-4.5096,-4.5059,-4.493,-4.4696,-4.4637,-4.4361,-4.3476,-4.327,-4.3124,-4.2592,-4.2192,-4.1963,-4.2014,-4.1716,-4.1375,-4.1157,-4.1131,-4.1018,-4.0755,-4.0704,-4.0704,-4.0704,-4.0704,-4.0728,-4.0793,-4.0624,-4.0576,-4.0697,-4.051,-4.0412,-4.0412,-4.0461,-4.0485,-4.0412,-4.0485,-4.0583,-4.0704,-4.0704,-4.0704,-4.0704,-4.0793,-4.0817,-4.0817,-4.0864,-4.0912,-4.0912,-4.0912,-4.0912,-4.0912,-4.0912,-4.0912,-4.0888,-4.084,-4.0721,-4.0607,-5.3185,-5.3185,-5.3185,-5.3185,-5.3185,-5.3185,-5.3185,-5.3185,-5.3185,-5.3185,-5.3185,-5.3185,-5.3185,-5.3185,-5.3185,-5.3185,-5.3185,-5.3185,-5.3185,-5.2783,-5.2291,-5.1768,-5.1314,-5.0477,-4.9152,-4.9134,-4.837,-4.6803,-4.6803,-4.6458,-4.5793,-4.5656,-4.5832,-4.6273,-4.6132,-4.6339,-4.6771,-4.6771,-4.6554,-4.6211,-4.6284,-4.5938,-4.5397,-4.5485,-4.5476,-4.5397,-4.5397,-4.5397,-4.5397,-4.5397,-4.5397,-4.5371,-4.5247,-4.5203,-4.5177,-4.5032,-4.5005,-4.5005,-4.5005,-4.4978,-4.4968,-4.4968,-4.4951,-4.494,-4.494,-4.4968,-4.478,-4.4048,-4.3902,-4.3644,-4.2848,-4.2574,-4.2516,-4.2639,-4.2547,-4.2311,-4.181,-4.175,-4.1553,-4.0929,-4.0766,-4.0646,-4.051,-4.051,-4.0558,-4.0673,-4.0453,-4.0404,-4.0624,-4.0404,-4.028,-4.028,-4.0362,-4.0387,-4.028,-4.0387,-4.0419,-4.0419,-4.0419,-4.0461,-4.0493,-4.0624,-4.0673,-4.0673,-4.0776,-4.0823,-4.0823,-4.0823,-4.0864,-4.0864,-4.0864,-4.0888,-4.0888,-4.0721,-4.0583,-4.0461,-5.3185,-5.3185,-5.3185,-5.3185,-5.3185,-5.3185,-5.3185,-5.3185,-5.3185,-5.3185,-5.3185,-5.3185,-5.3185,-5.3185,-5.3185,-5.3185,-5.3185,-5.3185,-5.3185,-5.3143,-5.285,-5.2315,-5.2203,-5.1647,-5.0537,-5.0527,-4.953,-4.7534,-4.7534,-4.7482,-4.7362,-4.6751,-4.6468,-4.6514,-4.5822,-4.5803,-4.6291,-4.6291,-4.6259,-4.6235,-4.6631,-4.6242,-4.545,-4.593,-4.5803,-4.5397,-4.5397,-4.5397,-4.5397,-4.5397,-4.5397,-4.5371,-4.5247,-4.5203,-4.5177,-4.5032,-4.5005,-4.5005,-4.5005,-4.4913,-4.4831,-4.4831,-4.4737,-4.4654,-4.4654,-4.4831,-4.4934,-4.4712,-4.4667,-4.4578,-4.4338,-4.3724,-4.3267,-4.3267,-4.2736,-4.2349,-4.2379,-4.2379,-4.238,-4.2407,-4.1852,-4.1203,-4.0561,-4.051,-4.051,-4.0534,-4.0387,-4.033,-4.0355,-4.0213,-4.0138,-4.0138,-4.0146,-4.0163,-4.0138,-4.0163,-4.0146,-4.0146,-4.0146,-4.0288,-4.051,-4.0534,-4.0534,-4.0534,-4.0558,-4.0558,-4.0558,-4.0558,-4.0607,-4.0721,-4.0721,-4.0793,-4.0871,-4.0607,-4.0436,-4.033,-5.3185,-5.3185,-5.3185,-5.3185,-5.3185,-5.3185,-5.3185,-5.3185,-5.3185,-5.3185,-5.3185,-5.3185,-5.3185,-5.3185,-5.3185,-5.3185,-5.3185,-5.3185,-5.3185,-5.3185,-5.2955,-5.2408,-5.2408,-5.2036,-5.1262,-5.0964,-5.0352,-4.9425,-4.8695,-4.8086,-4.7672,-4.7389,-4.7207,-4.7189,-4.6746,-4.6754,-4.7012,-4.6977,-4.6977,-4.7056,-4.7255,-4.7091,-4.67,-4.695,-4.6897,-4.6672,-4.6672,-4.6414,-4.6069,-4.6069,-4.5759,-4.5371,-4.5167,-4.5086,-4.5059,-4.4831,-4.4793,-4.4793,-4.4793,-4.472,-4.4682,-4.4682,-4.4654,-4.4615,-4.4615,-4.4682,-4.4748,-4.4709,-4.4682,-4.4682,-4.4598,-4.4327,-4.4062,-4.4062,-4.3792,-4.3447,-4.3078,-4.301,-4.2884,-4.2522,-4.2183,-4.186,-4.1537,-4.1503,-4.1367,-4.1034,-4.0892,-4.0671,-4.0322,-4.0163,-4.0096,-4.0096,-4.0096,-4.0096,-4.0096,-4.0096,-4.0096,-4.0096,-4.0096,-4.0146,-4.0288,-4.0362,-4.0387,-4.0387,-4.0461,-4.051,-4.051,-4.051,-4.0534,-4.0583,-4.0583,-4.0353,-3.9995,-3.9542,-3.9305,-3.9172]},{"header":{"parameterUnit":"m.s-1","parameterCategory":1,"la1":30.6,"la2":28.766,"lo1":-90.7593,"lo2":-88.6598,"dy":0.0162,"dx":0.0183,"nx":116,"ny":114,"refTime":"2024-03-25T06:00:00:Z","depth":0,"parameterNumber":3,"parameterNumberName":"V-component_of_WINDS"},"data":[0.0,0.0,0.0,0.0,0.0,0.0,0.0,0.0,0.0,0.0,0.0,0.0,0.0,0.0,0.0,0.0,0.0,0.0,0.0,0.0,0.0,0.0,0.0,0.0,0.0,0.0,0.0,0.0,0.0,0.0,0.0,0.0,0.0,0.0,0.0,0.0,0.0,0.0,0.0,0.0,0.0,0.0,0.0,0.0,0.0,0.0,0.0,0.0,0.0,0.0,0.0,0.0,0.0,0.0,0.0,0.0,0.0,0.0,0.0,0.0,0.0,0.0,0.0,0.0,0.0,0.0,0.0,0.0,0.0,0.0,0.0,0.0,0.0,0.0,0.0,0.0,0.0,0.0,0.0,0.0,0.0,0.0,0.0,0.0,0.0,0.0,0.0,0.0,0.0,0.0,0.0,0.0,0.0,0.0,0.0,0.0,0.0,0.0,0.0,0.0,0.0,0.0,0.0,0.0,0.0,0.0,0.0,0.0,0.0,0.0,0.0,0.0,0.0,0.0,0.0,0.0,0.0,0.0,0.0,0.0,0.0,0.0,0.0,0.0,0.0,0.0,0.0,0.0,0.0,0.0,0.0,0.0,0.0,0.0,0.0,0.0,0.0,0.0,0.0,0.0,0.0,0.0,0.0,0.0,0.0,0.0,0.0,0.0,0.0,0.0,0.0,0.0,0.0,0.0,0.0,0.0,0.0,0.0,0.0,0.0,0.0,0.0,0.0,0.0,0.0,0.0,0.0,0.0,0.0,0.0,0.0,0.0,0.0,0.0,0.0,0.0,0.0,0.0,0.0,0.0,0.0,0.0,0.0,0.0,0.0,0.0,0.0,0.0,0.0,0.0,0.0,0.0,0.0,0.0,0.0,0.0,0.0,0.0,0.0,0.0,0.0,0.0,0.0,0.0,0.0,0.0,0.0,0.0,0.0,0.0,0.0,0.0,0.0,0.0,0.0,0.0,0.0,0.0,0.0,0.0,0.0,0.0,0.0,0.0,0.0,0.0,0.0,0.0,0.0,0.0,0.0,0.0,0.0,0.0,0.0,0.0,0.0,0.0,0.0,0.0,0.0,0.0,0.0,0.0,0.0,0.0,0.0,0.0,0.0,0.0,0.0,0.0,0.0,0.0,0.0,0.0,0.0,0.0,0.0,0.0,0.0,0.0,0.0,0.0,0.0,0.0,0.0,0.0,0.0,0.0,0.0,0.0,0.0,0.0,0.0,0.0,0.0,0.0,0.0,0.0,0.0,0.0,0.0,0.0,0.0,0.0,0.0,0.0,0.0,0.0,0.0,0.0,0.0,0.0,0.0,0.0,0.0,0.0,0.0,0.0,0.0,0.0,0.0,0.0,0.0,0.0,0.0,0.0,0.0,0.0,0.0,0.0,0.0,0.0,0.0,0.0,0.0,0.0,0.0,0.0,0.0,0.0,0.0,0.0,0.0,0.0,0.0,0.0,0.0,0.0,0.0,0.0,0.0,0.0,0.0,0.0,0.0,0.0,0.0,0.0,0.0,0.0,0.0,0.0,0.0,0.0,0.0,0.0,0.0,0.0,0.0,0.0,0.0,0.0,0.0,0.0,0.0,0.0,0.0,0.0,0.0,0.0,0.0,0.0,0.0,0.0,0.0,0.0,0.0,0.0,0.0,0.0,0.0,0.0,0.0,0.0,0.0,0.0,0.0,0.0,0.0,0.0,0.0,0.0,0.0,0.0,0.0,0.0,0.0,0.0,0.0,0.0,0.0,0.0,0.0,0.0,0.0,0.0,0.0,0.0,0.0,0.0,0.0,0.0,0.0,0.0,0.0,0.0,0.0,0.0,0.0,0.0,0.0,0.0,0.0,0.0,0.0,0.0,0.0,0.0,0.0,0.0,0.0,0.0,0.0,0.0,0.0,0.0,0.0,0.0,0.0,0.0,0.0,0.0,0.0,0.0,0.0,0.0,0.0,0.0,0.0,0.0,0.0,0.0,0.0,0.0,0.0,0.0,0.0,0.0,0.0,0.0,0.0,0.0,0.0,0.0,0.0,0.0,0.0,0.0,0.0,0.0,0.0,0.0,0.0,0.0,0.0,0.0,0.0,0.0,0.0,0.0,0.0,0.0,0.0,0.0,0.0,0.0,0.0,0.0,0.0,0.0,0.0,0.0,0.0,0.0,0.0,0.0,0.0,0.0,0.0,0.0,0.0,0.0,0.0,0.0,0.0,0.0,0.0,0.0,0.0,0.0,0.0,0.0,0.0,0.0,0.0,0.0,0.0,0.0,0.0,0.0,0.0,0.0,0.0,0.0,0.0,0.0,0.0,0.0,0.0,0.0,0.0,0.0,0.0,0.0,0.0,0.0,0.0,0.0,0.0,0.0,0.0,0.0,0.0,0.0,0.0,0.0,0.0,0.0,0.0,0.0,0.0,0.0,0.0,0.0,0.0,0.0,0.0,0.0,0.0,0.0,0.0,0.0,0.0,0.0,0.0,0.0,0.0,0.0,0.0,0.0,0.0,0.0,0.0,0.0,0.0,0.0,0.0,0.0,0.0,0.0,0.0,0.0,0.0,0.0,0.0,0.0,0.0,0.0,0.0,0.0,0.0,0.0,0.0,0.0,0.0,0.0,0.0,0.0,0.0,0.0,0.0,0.0,0.0,0.0,0.0,0.0,0.0,0.0,0.0,0.0,0.0,0.0,0.0,0.0,0.0,0.0,0.0,0.0,0.0,0.0,0.0,0.0,0.0,0.0,0.0,0.0,0.0,0.0,0.0,0.0,0.0,0.0,0.0,0.0,0.0,0.0,0.0,0.0,0.0,0.0,0.0,0.0,0.0,0.0,0.0,0.0,0.0,0.0,0.0,0.0,0.0,0.0,0.0,0.0,0.0,0.0,0.0,0.0,0.0,0.0,0.0,0.0,0.0,0.0,0.0,0.0,0.0,0.0,0.0,0.0,0.0,0.0,0.0,0.0,0.0,0.0,0.0,0.0,0.0,0.0,0.0,0.0,0.0,0.0,0.0,0.0,0.0,0.0,0.0,0.0,0.0,0.0,0.0,0.0,0.0,0.0,0.0,0.0,0.0,0.0,0.0,0.0,0.0,0.0,0.0,0.0,0.0,0.0,0.0,0.0,0.0,0.0,0.0,0.0,0.0,0.0,0.0,0.0,0.0,0.0,0.0,0.0,0.0,0.0,0.0,0.0,0.0,0.0,0.0,0.0,0.0,0.0,0.0,0.0,0.0,0.0,0.0,0.0,0.0,0.0,0.0,0.0,0.0,0.0,0.0,0.0,0.0,0.0,0.0,0.0,0.0,0.0,0.0,0.0,0.0,0.0,0.0,0.0,0.0,0.0,0.0,0.0,0.0,0.0,0.0,0.0,0.0,0.0,0.0,0.0,0.0,0.0,0.0,0.0,0.0,0.0,0.0,0.0,0.0,0.0,0.0,0.0,0.0,0.0,0.0,0.0,0.0,0.0,0.0,0.0,0.0,0.0,0.0,0.0,0.0,0.0,0.0,0.0,0.0,0.0,0.0,0.0,0.0,0.0,0.0,0.0,0.0,0.0,0.0,0.0,0.0,0.0,0.0,0.0,0.0,0.0,0.0,0.0,0.0,0.0,0.0,0.0,0.0,0.0,0.0,0.0,0.0,0.0,0.0,0.0,0.0,0.0,0.0,0.0,0.0,0.0,0.0,0.0,0.0,0.0,0.0,0.0,0.0,0.0,0.0,0.0,0.0,0.0,0.0,0.0,0.0,0.0,0.0,0.0,0.0,0.0,0.0,0.0,0.0,0.0,0.0,0.0,0.0,0.0,0.0,0.0,0.0,0.0,0.0,0.0,0.0,0.0,0.0,0.0,0.0,0.0,0.0,0.0,0.0,0.0,0.0,0.0,0.0,0.0,0.0,0.0,0.0,0.0,0.0,0.0,0.0,0.0,0.0,0.0,0.0,0.0,0.0,0.0,0.0,0.0,0.0,0.0,0.0,0.0,0.0,0.0,0.0,0.0,0.0,0.0,0.0,0.0,0.0,0.0,0.0,0.0,0.0,0.0,0.0,0.0,0.0,0.0,0.0,0.0,0.0,0.0,0.0,0.0,0.0,0.0,0.0,0.0,0.0,0.0,0.0,0.0,0.0,0.0,0.0,0.0,0.0,0.0,0.0,0.0,0.0,0.0,0.0,0.0,0.0,0.0,0.0,0.0,0.0,0.0,0.0,0.0,0.0,0.0,0.0,0.0,0.0,0.0,0.0,0.0,0.0,0.0,0.0,0.0,0.0,0.0,0.0,0.0,0.0,0.0,0.0,0.0,0.0,0.0,0.0,0.0,0.0,0.0,0.0,0.0,0.0,0.0,0.0,0.0,0.0,0.0,0.0,0.0,0.0,0.0,0.0,0.0,0.0,0.0,0.0,0.0,0.0,0.0,0.0,0.0,0.0,0.0,0.0,0.0,0.0,0.0,0.0,0.0,0.0,0.0,0.0,0.0,0.0,0.0,0.0,0.0,0.0,0.0,0.0,0.0,0.0,0.0,0.0,0.0,0.0,0.0,0.0,0.0,0.0,0.0,0.0,0.0,0.0,0.0,0.0,0.0,0.0,0.0,0.0,0.0,0.0,0.0,0.0,0.0,0.0,0.0,0.0,0.0,0.0,0.0,0.0,0.0,0.0,0.0,0.0,0.0,0.0,0.0,0.0,0.0,0.0,0.0,0.0,0.0,0.0,0.0,0.0,0.0,0.0,0.0,0.0,0.0,0.0,0.0,0.0,0.0,0.0,0.0,0.0,0.0,0.0,0.0,0.0,0.0,0.0,0.0,0.0,0.0,0.0,0.0,0.0,0.0,0.0,0.0,0.0,0.0,0.0,0.0,0.0,0.0,0.0,0.0,0.0,0.0,0.0,0.0,0.0,0.0,0.0,0.0,0.0,0.0,0.0,0.0,0.0,0.0,0.0,0.0,0.0,0.0,0.0,0.0,0.0,0.0,0.0,0.0,0.0,0.0,0.0,0.0,0.0,0.0,0.0,0.0,0.0,0.0,0.0,0.0,0.0,0.0,0.0,0.0,0.0,0.0,0.0,0.0,0.0,0.0,0.0,0.0,0.0,0.0,0.0,0.0,0.0,0.0,0.0,0.0,0.0,0.0,0.0,0.0,0.0,0.0,0.0,0.0,0.0,0.0,0.0,0.0,0.0,0.0,0.0,0.0,0.0,0.0,0.0,0.0,0.0,0.0,0.0,0.0,0.0,0.0,0.0,0.0,0.0,0.0,0.0,0.0,0.0,0.0,0.0,0.0,0.0,0.0,0.0,0.0,0.0,0.0,0.0,0.0,0.0,0.0,0.0,0.0,0.0,0.0,0.0,0.0,0.0,0.0,0.0,0.0,0.0,0.0,0.0,0.0,0.0,0.0,0.0,0.0,0.0,0.0,0.0,0.0,0.0,0.0,0.0,0.0,0.0,0.0,0.0,0.0,0.0,0.0,0.0,0.0,0.0,0.0,0.0,0.0,0.0,0.0,0.0,0.0,0.0,0.0,0.0,0.0,0.0,0.0,0.0,0.0,0.0,0.0,0.0,0.0,0.0,0.0,0.0,0.0,0.0,0.0,0.0,0.0,0.0,0.0,0.0,0.0,0.0,0.0,0.0,0.0,0.0,0.0,0.0,0.0,0.0,0.0,0.0,0.0,0.0,0.0,0.0,0.0,0.0,0.0,0.0,0.0,0.0,0.0,0.0,0.0,0.0,0.0,0.0,0.0,0.0,0.0,0.0,0.0,0.0,0.0,0.0,0.0,0.0,0.0,0.0,0.0,0.0,0.0,0.0,0.0,0.0,0.0,0.0,0.0,0.0,0.0,0.0,0.0,0.0,0.0,0.0,0.0,0.0,0.0,0.0,0.0,0.0,0.0,0.0,0.0,0.0,0.0,0.0,0.0,0.0,0.0,0.0,0.0,0.0,0.0,0.0,0.0,0.0,0.0,0.0,0.0,0.0,0.0,0.0,0.0,0.0,0.0,0.0,0.0,0.0,0.0,0.0,0.0,0.0,0.0,0.0,0.0,0.0,0.0,0.0,0.0,0.0,0.0,0.0,0.0,0.0,0.0,0.0,0.0,0.0,0.0,0.0,0.0,0.0,0.0,1.2153,0.0,0.0,0.0,0.0,0.0,0.0,0.0,0.0,0.0,0.0,0.0,0.0,0.0,0.0,0.0,0.0,0.0,0.0,0.0,0.0,0.0,0.0,0.0,0.0,0.0,0.0,0.0,0.0,0.0,0.0,0.0,0.0,0.0,0.0,0.0,1.5006,1.4812,1.4801,1.5006,1.5062,1.5084,1.5084,1.5564,1.6271,1.7128,0.0,0.0,0.0,0.0,0.0,0.0,0.0,0.0,0.0,0.0,0.0,0.0,0.0,0.0,0.0,0.0,0.0,0.0,0.0,0.0,0.0,0.0,0.0,0.0,0.0,0.0,0.0,0.0,0.0,0.0,0.0,0.0,0.0,0.0,0.0,0.0,0.0,0.0,0.0,0.0,0.0,0.0,0.0,0.0,0.0,0.0,0.0,0.0,0.0,0.0,0.0,0.0,0.0,0.0,0.0,0.0,0.0,0.0,0.0,0.0,0.0,0.0,0.0,0.0,0.0,0.0,0.0,0.0,0.0,0.0,0.0,1.1658,0.0,0.0,0.0,0.0,0.0,0.0,0.0,0.0,0.0,0.0,0.0,0.0,0.0,0.0,0.0,0.0,0.0,0.0,0.0,0.0,0.0,1.6207,1.5734,1.5678,1.5512,1.5131,1.504,1.4915,0.0,0.0,0.0,0.0,0.0,1.4363,1.4617,1.4525,1.4594,1.4846,1.4362,1.4106,1.4106,1.4106,1.4767,1.5932,1.6096,0.0,0.0,0.0,0.0,0.0,0.0,0.0,0.0,0.0,0.0,0.0,0.0,0.0,0.0,0.0,0.0,0.0,0.0,0.0,0.0,0.0,0.0,0.0,0.0,0.0,0.0,0.0,0.0,0.0,0.0,0.0,0.0,0.0,0.0,0.0,0.0,0.0,0.0,0.0,0.0,0.0,0.0,0.0,0.0,0.0,0.0,0.0,0.0,0.0,0.0,0.0,0.0,0.0,0.0,0.0,0.0,0.0,0.0,0.0,0.0,0.0,0.0,0.0,0.8488,0.8666,0.7794,0.8744,0.8888,0.8475,0.9415,0.9946,1.0092,0.0,0.0,0.0,0.0,0.0,0.0,0.0,0.0,0.0,0.0,0.0,0.0,0.0,0.0,0.0,0.0,0.0,0.0,0.0,0.0,1.57,1.5232,1.5187,1.5176,1.5108,1.472,1.4593,1.4858,1.449,1.4374,1.464,1.4247,1.4118,1.4269,1.3813,1.3647,1.38,1.3256,1.3006,1.3006,1.3006,1.3341,1.4014,1.4869,1.5311,1.5355,0.0,0.0,0.0,0.0,0.0,0.0,0.0,0.0,0.0,0.0,0.0,0.0,0.0,0.0,0.0,0.0,0.0,0.0,0.0,0.0,0.0,0.0,0.0,0.0,0.0,0.0,0.0,0.0,0.0,0.0,0.0,0.0,0.0,0.0,0.0,0.0,0.0,0.0,0.0,0.0,0.0,0.829,0.8263,0.0,0.0,0.0,0.0,0.0,0.0,0.0,0.0,0.0,0.0,0.0,0.0,0.0,0.6485,0.7187,0.7214,0.716,0.7112,0.7321,0.7348,0.7214,0.7369,0.7396,0.7316,0.7477,0.0,0.8886,0.8416,0.0,0.0,0.0,0.0,0.0,0.0,0.0,0.0,0.0,0.0,0.0,0.0,0.0,0.0,0.0,0.0,0.0,0.0,0.0,0.0,0.0,1.472,1.4581,1.4269,1.4069,1.3988,1.4048,1.386,1.3789,1.3839,1.3661,1.3481,1.329,1.306,1.2866,1.2686,1.2467,1.2359,1.2359,1.2359,1.2491,1.2711,1.316,1.3873,1.472,1.472,0.0,0.0,0.0,0.0,0.0,0.0,0.0,0.0,0.0,0.0,0.0,0.0,0.0,0.0,0.0,0.0,0.0,0.0,0.0,0.0,0.0,0.0,0.0,0.0,0.0,0.0,0.0,0.0,0.0,0.0,0.0,0.0,0.0,0.0,0.0,0.0,0.0,0.0,0.0,0.7771,0.7456,0.7456,0.6939,0.6453,0.0,0.0,0.0,0.0,0.0,0.0,0.0,0.0,0.0,0.6182,0.5809,0.5918,0.6588,0.6273,0.6082,0.6082,0.6431,0.6404,0.6114,0.6431,0.6404,0.6082,0.6082,0.6367,0.6832,0.7272,0.7251,0.695,0.0,0.0,0.0,0.0,0.7456,0.753,0.0,0.0,0.0,0.0,0.0,0.0,0.0,0.0,0.0,0.0,0.0,0.0,1.4257,1.4186,1.4022,1.3634,1.3467,1.3409,1.3443,1.3314,1.3194,1.3088,1.3088,1.2895,1.2461,1.2461,1.223,1.181,1.181,1.181,1.181,1.181,1.1884,1.2008,1.2008,1.2662,1.3789,1.3941,1.4188,1.4536,0.0,0.0,0.0,0.0,0.0,0.0,0.0,0.0,0.0,0.0,0.0,0.0,0.0,0.0,0.0,0.0,0.0,0.0,0.0,0.0,0.0,0.0,0.0,0.0,0.0,0.0,0.0,0.0,0.0,0.0,0.0,0.0,0.0,0.0,0.0,0.0,0.0,0.6972,0.681,0.6664,0.6122,0.5578,0.0,0.0,0.0,0.0,0.0,0.0,0.4853,0.4853,0.5066,0.5519,0.5093,0.5093,0.5519,0.5093,0.4853,0.4881,0.5308,0.5308,0.4881,0.5336,0.5281,0.4881,0.5018,0.5018,0.4959,0.6159,0.6381,0.6023,0.6463,0.6376,0.605,0.6647,0.6864,0.6891,0.0,0.0,0.0,0.0,0.0,0.0,0.0,0.0,0.0,0.0,0.0,1.4233,1.3692,1.3634,1.3634,1.3597,1.3136,1.3064,1.3563,1.3112,1.2837,1.2812,1.2812,1.2579,1.2033,1.2024,1.181,1.1352,1.1352,1.1352,1.1352,1.1352,1.156,1.2008,1.2008,1.2049,1.2147,1.2667,1.2885,1.3006,1.4035,0.0,0.0,0.0,0.0,0.0,0.0,0.0,0.0,0.0,0.0,0.0,0.0,0.0,0.0,0.0,0.0,0.0,0.0,0.0,0.0,0.0,0.0,0.0,0.0,0.0,0.0,0.0,0.0,0.0,0.0,0.0,0.0,0.0,0.0,0.0,0.0,0.0,0.0,0.5452,0.4921,0.0,0.0,0.0,0.0,0.446,0.3987,0.3683,0.3683,0.3683,0.371,0.3735,0.3707,0.371,0.3735,0.3707,0.3683,0.3683,0.3707,0.3707,0.3683,0.3707,0.3707,0.371,0.4294,0.4211,0.3766,0.4932,0.538,0.5352,0.538,0.538,0.5407,0.6023,0.6236,0.6317,0.0,0.0,0.0,0.0,0.0,0.0,1.5623,1.5153,1.4743,1.4536,1.4152,1.381,1.3621,1.329,1.3088,1.3088,1.2579,1.2369,1.2564,1.2393,1.2295,1.2295,1.2295,1.2049,1.1569,1.1217,1.0939,1.0794,1.0794,1.0794,1.0794,1.0794,1.0871,1.104,1.104,1.1242,1.1594,1.2073,1.2295,1.2359,1.3088,1.3375,0.0,0.0,0.0,0.0,0.0,0.0,0.0,0.0,0.0,0.0,0.0,0.0,0.0,0.0,0.0,0.0,0.0,0.0,0.0,0.0,0.0,0.0,0.0,0.0,0.0,0.0,0.0,0.0,0.0,0.0,0.0,0.0,0.0,0.0,0.0,0.0,0.0,0.5312,0.4818,0.0,0.3959,0.3738,0.3514,0.3347,0.3514,0.3597,0.3597,0.3597,0.3597,0.3597,0.3597,0.3607,0.3657,0.366,0.3698,0.3714,0.3714,0.3714,0.3714,0.3714,0.3714,0.3744,0.3953,0.3921,0.3773,0.416,0.4289,0.4211,0.4211,0.4211,0.4236,0.4453,0.4783,0.5089,0.0,0.0,0.0,0.0,0.0,0.0,1.513,1.4697,1.4385,1.435,1.38,1.3396,1.3396,1.2871,1.253,1.253,1.2073,1.1834,1.1983,1.1859,1.176,1.176,1.1585,1.1334,1.1049,1.0667,1.0496,1.0496,1.0615,1.0671,1.0679,1.0791,1.0838,1.0838,1.0838,1.0959,1.1207,1.1533,1.1901,1.2286,1.2667,1.2788,1.2812,0.0,0.0,0.0,0.0,0.0,0.0,0.0,0.0,0.0,0.0,0.0,0.0,0.0,0.0,0.0,0.0,0.0,0.0,0.0,0.0,0.0,0.0,0.0,0.0,0.0,0.0,0.0,0.0,0.0,0.0,0.0,0.0,0.0,0.0,0.0,0.4963,0.4739,0.4239,0.3735,0.3347,0.31,0.2905,0.2708,0.2877,0.3005,0.3036,0.3039,0.3024,0.306,0.306,0.3092,0.3129,0.3129,0.3163,0.3197,0.3197,0.3197,0.3197,0.3197,0.3197,0.3199,0.3411,0.3383,0.3199,0.3411,0.3331,0.3089,0.3519,0.3665,0.3665,0.3665,0.3894,0.4135,0.0,0.0,0.0,0.0,0.0,1.435,1.4222,1.4199,1.4163,1.402,1.342,1.2991,1.2991,1.2393,1.1983,1.1983,1.1544,1.1469,1.1934,1.1519,1.1276,1.1276,1.0769,1.0496,1.0496,1.0504,1.0512,1.0512,1.0836,1.101,1.1018,1.1344,1.1487,1.1487,1.1487,1.134,1.1037,1.1037,1.1722,1.2783,1.2764,1.2764,1.2716,0.0,0.0,0.0,0.0,0.0,0.0,0.0,0.0,0.0,0.0,0.0,0.0,0.0,0.0,0.0,0.0,0.0,0.0,0.0,0.0,0.0,0.0,0.0,0.0,0.0,0.0,0.0,0.0,0.0,0.0,0.0,0.0,0.0,0.5187,0.4825,0.4267,0.368,0.307,0.2708,0.2713,0.216,0.2049,0.2633,0.2135,0.1827,0.1911,0.1914,0.1941,0.2001,0.2002,0.2004,0.2006,0.2006,0.2008,0.2012,0.2012,0.2013,0.2015,0.2015,0.2015,0.2046,0.2631,0.2539,0.2046,0.2631,0.2539,0.2137,0.3296,0.375,0.375,0.375,0.3707,0.3566,0.0,0.0,0.0,0.0,0.0,1.4384,1.435,1.4246,1.4199,1.4163,1.3481,1.2991,1.2991,1.2098,1.1494,1.1494,1.1023,1.0769,1.0888,1.0794,1.0718,1.0718,1.0573,1.0496,1.0496,1.0743,1.0852,1.0852,1.1193,1.1352,1.1352,1.1447,1.1487,1.1487,1.1487,1.1655,1.1925,1.1925,1.2209,1.2621,1.2333,1.2221,1.2246,0.0,0.0,0.0,0.0,0.0,0.0,0.0,0.0,0.0,0.0,0.0,0.0,0.0,0.0,0.0,0.0,0.0,0.0,0.0,0.0,0.0,0.0,0.0,0.0,0.0,0.0,0.0,0.0,0.0,0.0,0.0,0.0,0.4557,0.4702,0.4211,0.3793,0.3627,0.307,0.2707,0.2772,0.2233,0.1964,0.2188,0.2042,0.1961,0.1976,0.1977,0.1986,0.2002,0.2002,0.2024,0.207,0.207,0.2083,0.2136,0.2136,0.2158,0.2201,0.2201,0.2201,0.2236,0.2409,0.2374,0.2236,0.2409,0.2374,0.2253,0.2423,0.2494,0.2494,0.2494,0.248,0.249,0.0,0.0,0.0,0.0,0.0,1.4396,1.4396,1.4326,1.428,1.428,1.3576,1.2991,1.2764,1.1875,1.12,1.0972,1.0667,1.0496,1.0496,1.0496,1.0496,1.0496,1.0496,1.0568,1.0719,1.0891,1.1066,1.1201,1.1543,1.171,1.171,1.1868,1.1969,1.1969,1.1969,1.2055,1.2159,1.2159,1.2278,1.244,1.2059,1.1836,1.171,1.1801,1.1776,1.1719,1.1719,1.1719,1.1735,1.1866,0.0,0.0,0.0,0.0,0.0,0.0,0.0,0.0,0.0,0.0,0.0,0.0,0.0,0.0,0.0,0.0,0.0,0.0,0.0,0.0,0.0,0.0,0.0,0.0,0.4191,0.3832,0.3819,0.3519,0.3316,0.3316,0.2766,0.2435,0.2451,0.2158,0.1963,0.1999,0.2002,0.2015,0.2041,0.2041,0.2066,0.2085,0.2086,0.2127,0.2211,0.2213,0.226,0.2319,0.2319,0.2338,0.2371,0.2371,0.2358,0.0,0.2334,0.232,0.2299,0.2299,0.2299,0.0,0.0,0.0,0.0,0.0,0.2041,0.2101,0.0,0.0,0.0,0.0,0.0,1.4466,1.4396,1.4396,1.4396,1.4396,1.3695,1.3016,1.2536,1.1776,1.1099,1.0616,1.0522,1.0496,1.0496,1.0496,1.0496,1.0496,1.0536,1.0703,1.0987,1.1074,1.1257,1.1551,1.1908,1.2083,1.2083,1.2439,1.259,1.259,1.259,1.2415,1.2083,1.2083,1.213,1.2239,1.1912,1.1592,1.1311,1.0785,1.0845,1.12,1.12,1.12,1.1242,1.1534,0.0,0.0,0.0,0.0,0.0,0.0,0.0,0.0,0.0,0.0,0.0,0.0,0.0,0.0,0.0,0.0,0.0,0.0,0.0,0.0,0.0,0.0,0.0,0.0,0.3694,0.2876,0.2814,0.2822,0.2822,0.2801,0.234,0.2006,0.2013,0.2013,0.2016,0.2023,0.2037,0.2069,0.2124,0.0,0.0,0.0,0.0,0.2288,0.2428,0.2429,0.2461,0.252,0.252,0.2525,0.253,0.253,0.2501,0.245,0.245,0.2383,0.2339,0.2339,0.2331,0.2312,0.2245,0.222,0.2206,0.2134,0.2127,0.2118,0.0,0.0,0.0,0.0,0.0,1.4834,1.4466,1.4396,1.4396,1.4396,1.3695,1.316,1.3064,1.1999,1.1251,1.115,1.0752,1.0496,1.0496,1.0496,1.0496,1.0496,1.0767,1.0923,1.0995,1.1535,1.1853,1.1887,1.2274,1.2487,1.2487,1.2558,1.259,1.259,1.259,1.2551,1.2487,1.2487,1.2302,1.203,1.1704,1.1622,1.1669,1.1285,1.0947,1.0641,1.0641,1.0641,1.0641,1.059,1.0403,1.018,1.012,0.0,0.0,0.0,0.0,0.0,0.0,0.0,0.0,0.0,0.0,0.0,0.0,0.0,0.0,0.0,0.0,0.0,0.0,0.0,0.0,0.4177,0.3453,0.2808,0.2332,0.2315,0.2309,0.22,0.2064,0.2023,0.2073,0.2077,0.2098,0.2147,0.221,0.2234,0.2246,0.2372,0.2435,0.2458,0.2459,0.247,0.2493,0.2493,0.2523,0.2583,0.0,0.0,0.2657,0.2657,0.2651,0.264,0.264,0.2634,0.2623,0.2623,0.2565,0.2466,0.2323,0.2281,0.2279,0.2256,0.2248,0.2245,0.0,0.0,0.0,0.0,0.0,1.4949,1.4466,1.4396,1.4396,1.4396,1.3928,1.3491,1.3242,1.2506,1.195,1.166,1.1192,1.0794,1.0522,1.0496,1.0496,1.0496,1.0812,1.1074,1.1241,1.1749,1.2107,1.2289,1.2503,1.259,1.259,1.259,1.259,1.259,1.259,1.259,1.259,1.259,1.2487,1.2242,1.171,1.1551,1.1587,1.1077,1.0718,1.0496,1.0496,1.0496,1.047,1.0239,1.0076,0.9973,0.9758,0.9647,0.9617,0.0,0.0,0.0,0.0,0.0,0.0,0.0,0.0,0.0,0.0,0.0,0.0,0.0,0.0,0.6683,0.0,0.0,0.4486,0.4235,0.3288,0.2502,0.2208,0.2168,0.2165,0.2102,0.2095,0.212,0.2149,0.2181,0.2223,0.2282,0.2371,0.2385,0.2385,0.2478,0.2525,0.2555,0.2556,0.2585,0.2646,0.2647,0.2677,0.2737,0.2737,0.2753,0.2783,0.2783,0.2766,0.2737,0.2737,0.2721,0.2692,0.2692,0.2657,0.2595,0.2537,0.2403,0.2299,0.2299,0.2299,0.2299,0.0,0.0,0.0,0.0,0.0,1.5108,1.4605,1.4466,1.4396,1.4396,1.4197,1.3858,1.342,1.304,1.2604,1.2049,1.1635,1.1217,1.0693,1.0667,1.0624,1.0496,1.0812,1.1153,1.1479,1.1837,1.2194,1.259,1.259,1.259,1.259,1.259,1.259,1.259,1.259,1.259,1.259,1.259,1.259,1.2535,1.181,1.1487,1.1444,1.0759,1.0496,1.0496,1.0496,1.0496,1.0445,1.0154,1.007,1.0038,0.9821,0.9753,0.9829,0.9955,0.9999,0.0,0.0,0.0,0.0,0.0,0.0,0.0,0.0,0.0,0.7294,0.7455,0.7167,0.6905,0.7003,0.5474,0.4215,0.4345,0.3153,0.2192,0.2204,0.2206,0.2214,0.2237,0.2219,0.22,0.2236,0.2287,0.2338,0.2433,0.2504,0.2546,0.2546,0.2557,0.2586,0.2635,0.2625,0.2666,0.2764,0.2766,0.2796,0.2902,0.2902,0.2907,0.292,0.292,0.2892,0.2801,0.2801,0.2773,0.2726,0.2714,0.271,0.2709,0.2698,0.2575,0.2366,0.2354,0.2342,0.2332,0.0,0.0,0.0,0.0,0.0,0.0,1.5108,1.4674,1.4396,1.4396,1.428,1.4116,1.3939,1.3338,1.2701,1.2058,1.1959,1.171,1.1251,1.1217,1.0998,1.0522,1.0812,1.1153,1.1479,1.1837,1.2194,1.259,1.259,1.259,1.259,1.259,1.259,1.259,1.259,1.259,1.259,1.259,1.259,1.2535,1.181,1.1487,1.1444,1.0759,1.0496,1.0496,1.0496,1.0496,1.047,1.0316,1.0336,1.042,1.0258,1.0341,1.0371,0.9807,0.0,0.9599,0.9277,0.8867,0.8297,0.7387,0.7289,0.738,0.0,0.0,0.7465,0.7484,0.7456,0.7228,0.6613,0.5514,0.4517,0.3956,0.2922,0.2207,0.2193,0.22,0.2237,0.2377,0.2261,0.2242,0.2352,0.2369,0.2435,0.2496,0.2606,0.2672,0.2672,0.2723,0.2756,0.2763,0.271,0.2688,0.2702,0.2703,0.2733,0.2793,0.2793,0.2822,0.292,0.292,0.2915,0.2908,0.2908,0.2904,0.2895,0.2796,0.2773,0.2767,0.2713,0.2676,0.2646,0.2591,0.2537,0.2491,0.0,0.0,0.0,0.0,0.0,0.0,0.0,1.4983,1.472,1.4443,1.428,1.4176,1.4116,1.3729,1.3194,1.253,1.2457,1.2236,1.1735,1.1444,1.12,1.0972,1.0989,1.1058,1.1201,1.1741,1.2091,1.2242,1.2487,1.259,1.259,1.259,1.259,1.259,1.259,1.259,1.259,1.259,1.2471,1.2202,1.1694,1.1376,1.1153,1.0679,1.0496,1.052,1.0727,1.078,0.0,0.0,1.0868,1.0761,1.0193,1.0279,1.0422,0.9504,0.9562,0.0,0.8933,0.8606,0.0,0.0,0.7427,0.747,0.7384,0.7432,0.7489,0.7489,0.726,0.6937,0.6646,0.555,0.4589,0.0,0.3255,0.2512,0.2546,0.238,0.2304,0.2459,0.2461,0.2471,0.252,0.2557,0.2589,0.2614,0.2696,0.273,0.2695,0.2717,0.273,0.273,0.274,0.2745,0.2745,0.2781,0.2811,0.2837,0.2837,0.2895,0.292,0.292,0.292,0.292,0.292,0.292,0.2917,0.2892,0.2837,0.2834,0.2808,0.2777,0.2737,0.2677,0.2638,0.261,0.0,0.0,0.0,0.0,0.0,0.0,0.0,0.0,1.5176,1.4651,1.4501,1.4385,1.4222,1.3999,1.3644,1.3112,1.3088,1.2822,1.227,1.19,1.1585,1.1318,1.1274,1.1184,1.0995,1.162,1.1973,1.199,1.2282,1.2495,1.259,1.259,1.259,1.259,1.259,1.2626,1.2651,1.2651,1.2433,1.2039,1.1712,1.1346,1.0955,1.0631,1.056,1.0679,1.0907,1.0995,0.0,0.0,1.1254,1.1094,1.0429,1.0369,1.0392,0.9414,0.9265,0.9214,0.8441,0.0,0.0,0.7619,0.7489,0.7489,0.7489,0.7489,0.7489,0.7489,0.7199,0.6839,0.6544,0.555,0.0,0.4425,0.3547,0.2924,0.3025,0.2855,0.2813,0.2969,0.3032,0.3022,0.3022,0.2925,0.2859,0.2859,0.3031,0.308,0.3031,0.3068,0.3067,0.3067,0.3117,0.3143,0.3143,0.3193,0.3228,0.3247,0.3247,0.3212,0.3097,0.2963,0.292,0.292,0.292,0.292,0.292,0.292,0.292,0.292,0.292,0.2892,0.2803,0.2759,0.2721,0.2685,0.0,0.0,0.0,0.0,0.0,0.0,0.0,0.0,0.0,1.5153,1.5085,1.4857,1.4269,1.408,1.3939,1.3773,1.3773,1.3491,1.2812,1.2764,1.231,1.1343,1.1719,1.1677,1.1014,1.1521,1.187,1.199,1.1998,1.2218,1.259,1.259,1.259,1.259,1.259,1.2663,1.278,1.278,1.2597,1.2272,1.1923,1.1486,1.0955,1.0631,1.0703,1.0987,1.0995,0.0,0.0,0.0,1.1395,1.1464,1.1286,1.0901,0.0,0.9697,0.8576,0.0,0.0,0.0,0.7521,0.7489,0.7489,0.7489,0.7489,0.7489,0.7489,0.7489,0.7489,0.7167,0.6119,0.558,0.4948,0.399,0.3573,0.3455,0.363,0.3776,0.3934,0.412,0.4153,0.4111,0.0,0.3571,0.3275,0.3275,0.3657,0.3871,0.3867,0.3944,0.3942,0.3942,0.4028,0.4072,0.4072,0.4076,0.4079,0.4167,0.4167,0.3951,0.3544,0.3097,0.292,0.292,0.292,0.292,0.292,0.292,0.292,0.292,0.292,0.2918,0.2915,0.2914,0.2794,0.2692,0.0,0.0,0.0,0.0,0.0,0.0,0.0,0.0,0.0,0.0,0.0,0.0,0.0,0.0,0.0,0.0,0.0,0.0,1.3491,1.304,1.2643,1.231,1.2098,1.1897,1.1677,1.1756,1.2006,1.2401,1.1917,1.2098,1.2928,1.2566,1.2594,1.2928,1.2928,1.2972,1.3008,1.3008,1.2603,1.1959,1.1839,1.1354,1.0655,1.0536,1.0719,1.1026,0.0,0.0,0.0,0.0,0.0,0.0,1.1155,0.0,0.0,0.9166,0.0,0.0,0.0,0.0,0.7489,0.7489,0.7489,0.7489,0.7489,0.7489,0.7396,0.7031,0.6675,0.6214,0.5488,0.4957,0.4528,0.4197,0.392,0.3814,0.4017,0.3956,0.3971,0.4181,0.4163,0.0,0.0,0.0,0.0,0.3704,0.3871,0.3962,0.3907,0.3995,0.4068,0.4068,0.4128,0.4159,0.4159,0.422,0.4222,0.4253,0.4253,0.418,0.4076,0.39,0.3676,0.3365,0.3365,0.3187,0.292,0.292,0.292,0.292,0.292,0.292,0.292,0.292,0.2893,0.2807,0.0,0.0,0.0,0.0,0.0,0.0,0.0,0.0,0.0,0.0,0.0,0.0,0.0,0.0,0.0,0.0,0.0,0.0,0.0,1.342,1.3064,1.2885,1.2677,1.2393,1.2008,1.2103,1.2301,1.2593,1.2127,1.2326,1.3086,1.2758,1.2758,1.3086,1.3086,1.3149,1.3199,1.3199,1.2892,1.2384,1.2215,1.1808,1.1242,1.0912,1.0998,0.0,0.0,0.0,0.0,0.0,0.0,0.0,0.0,0.0,0.0,0.0,0.0,0.7489,0.0,0.7489,0.7489,0.7489,0.7489,0.7489,0.7489,0.7489,0.7358,0.6806,0.6412,0.5951,0.5219,0.496,0.4746,0.4422,0.4458,0.4538,0.4545,0.4525,0.4552,0.4718,0.466,0.0,0.0,0.0,0.0,0.4153,0.4317,0.4422,0.4437,0.4532,0.4584,0.4584,0.4683,0.4738,0.4738,0.4758,0.479,0.479,0.461,0.4565,0.4565,0.4389,0.4121,0.3853,0.3853,0.3676,0.3409,0.323,0.3141,0.3142,0.2963,0.292,0.292,0.292,0.292,0.2913,0.0,0.0,0.0,0.0,0.0,0.0,0.0,0.0,0.0,0.0,0.0,0.0,0.0,0.0,0.0,0.0,0.0,0.0,0.0,1.3868,1.3586,1.3064,1.3409,1.3122,1.2107,1.2555,1.2746,1.2634,1.2608,1.2783,1.3131,1.3104,1.3104,1.3141,1.3141,1.324,1.3422,1.3422,1.3447,1.3449,1.2978,1.275,1.2579,1.1675,0.0,0.0,0.0,0.0,0.0,0.0,0.0,0.0,0.0,0.0,0.0,0.0,0.0,0.7489,0.7489,0.7489,0.7489,0.7489,0.7489,0.7489,0.7489,0.7489,0.7326,0.6773,0.6675,0.6342,0.0,0.0,0.557,0.4683,0.5129,0.5506,0.5263,0.5388,0.5545,0.0,0.0,0.0,0.0,0.0,0.0,0.4689,0.0,0.5254,0.5413,0.5451,0.5518,0.5518,0.5629,0.5688,0.5688,0.5688,0.5688,0.5688,0.5235,0.5055,0.501,0.4567,0.4342,0.4342,0.4342,0.4344,0.4253,0.381,0.3631,0.3587,0.3097,0.2918,0.292,0.292,0.292,0.292,0.0,0.0,0.0,0.0,0.0,0.0,0.0,0.0,0.0,0.0,0.0,0.0,0.0,0.0,0.0,0.0,0.0,0.0,0.0,1.4033,1.3892,1.3739,1.375,1.3621,1.3348,1.2991,1.2968,1.334,1.2624,1.2756,1.3609,1.3303,1.3387,1.3767,1.3767,1.3803,1.3855,1.3855,1.3641,1.3247,1.3031,1.27,1.2292,0.0,0.0,0.0,0.0,0.0,0.0,0.0,0.0,0.0,0.0,0.0,0.9326,0.0,0.0,0.7489,0.7489,0.7489,0.7489,0.7489,0.7489,0.7489,0.7489,0.7489,0.7232,0.628,0.6119,0.5789,0.0,0.4924,0.5233,0.5001,0.5243,0.0,0.564,0.5507,0.0,0.0,0.0,0.5439,0.5456,0.5339,0.0,0.0,0.5373,0.5429,0.5459,0.5575,0.5642,0.5642,0.5672,0.5688,0.5688,0.5688,0.5688,0.5688,0.5597,0.5508,0.5508,0.5419,0.5149,0.4832,0.4832,0.461,0.43,0.4166,0.4121,0.4076,0.3587,0.3409,0.3365,0.3008,0.292,0.292,0.0,0.0,0.0,0.0,0.0,0.0,0.0,0.0,0.0,0.0,0.0,0.0,0.0,0.0,0.0,0.0,0.0,0.0,0.0,1.4163,1.4104,1.4104,1.3962,1.3868,1.3797,1.3491,1.3443,1.3692,1.3218,1.329,1.3868,1.3668,1.3716,1.3997,1.3997,1.3997,1.3997,1.3997,1.396,0.0,0.0,1.328,1.316,0.0,0.0,0.0,0.0,0.0,0.0,0.0,0.0,1.1546,1.0752,1.0034,0.9358,0.8683,0.0,0.7489,0.7489,0.7489,0.7489,0.7489,0.7489,0.7489,0.7489,0.7489,0.726,0.6412,0.6053,0.0,0.0,0.5093,0.0,0.0,0.0,0.0,0.5563,0.5501,0.5521,0.0,0.5518,0.0,0.5497,0.5379,0.5344,0.0,0.5508,0.5532,0.5583,0.565,0.5688,0.5688,0.5688,0.5688,0.5688,0.5688,0.5688,0.5688,0.5688,0.5688,0.5688,0.5688,0.5552,0.5327,0.0,0.5149,0.4882,0.4701,0.461,0.4565,0.4076,0.3765,0.3587,0.332,0.3097,0.292,0.0,0.0,0.0,0.0,0.0,0.0,0.0,0.0,0.0,0.0,1.7026,0.0,0.0,0.0,0.0,0.0,0.0,0.0,0.0,0.0,0.0,0.0,1.4104,1.3962,1.3868,0.0,0.0,0.0,0.0,0.0,1.4033,1.4033,1.4044,1.4044,1.4044,1.4044,1.4044,1.4044,1.4278,1.4619,1.4074,1.4086,1.4328,0.0,0.0,0.0,0.0,0.0,0.0,0.0,1.1053,1.1413,1.0812,1.0161,0.9486,0.8844,0.8166,0.7619,0.7521,0.7489,0.7489,0.7489,0.7489,0.7489,0.7489,0.7489,0.7358,0.6806,0.0,0.5822,0.5219,0.5524,0.56,0.4737,0.0,0.604,0.5365,0.5399,0.5516,0.5672,0.5532,0.5439,0.5521,0.5464,0.5442,0.5524,0.5532,0.5578,0.5683,0.5688,0.5688,0.5688,0.5688,0.5688,0.5688,0.5688,0.5688,0.5688,0.5688,0.5688,0.5688,0.5688,0.5688,0.5688,0.0,0.0,0.5688,0.528,0.5099,0.5055,0.4565,0.4166,0.3765,0.3721,0.3409,0.3008,0.0,0.0,0.0,0.0,0.0,0.0,0.0,0.0,0.0,0.0,1.7102,1.6646,0.0,0.0,0.0,0.0,0.0,0.0,0.0,0.0,0.0,0.0,1.4233,1.4152,0.0,0.0,0.0,0.0,0.0,0.0,0.0,0.0,0.0,0.0,0.0,0.0,1.4337,1.4337,1.4381,0.0,0.0,0.0,0.0,0.0,0.0,0.0,0.0,0.0,0.0,0.0,1.1053,1.1465,1.1219,1.078,1.0193,0.9518,0.8839,0.8199,0.7652,0.7489,0.7489,0.7489,0.7489,0.7489,0.7489,0.7489,0.0,0.0,0.0,0.6247,0.5286,0.5524,0.0,0.5089,0.0,0.0,0.0,0.0,0.5371,0.0,0.0,0.0,0.0,0.0,0.0,0.0,0.0,0.5667,0.5688,0.5688,0.5688,0.5688,0.5688,0.5688,0.5688,0.5688,0.5688,0.5688,0.5688,0.5688,0.5688,0.5688,0.5688,0.5688,0.5688,0.0,0.5688,0.5599,0.5597,0.5552,0.5055,0.4832,0.4699,0.4344,0.39,0.3542,0.0,0.0,0.0,0.0,0.0,0.0,0.0,1.8514,1.8417,1.8155,1.7591,1.7094,1.6744,1.6454,1.6139,0.0,0.0,0.0,0.0,0.0,0.0,0.0,0.0,0.0,0.0,0.0,0.0,0.0,0.0,0.0,0.0,0.0,0.0,0.0,0.0,0.0,0.0,0.0,0.0,0.0,0.0,0.0,0.0,0.0,0.0,0.0,0.0,0.0,0.0,0.0,1.0814,1.1117,1.1255,1.0923,1.0358,0.9709,0.9037,0.8361,0.7684,0.7489,0.7489,0.7489,0.7489,0.7489,0.7489,0.0,0.0,0.0,0.0,0.6544,0.6013,0.0,0.0,0.0,0.0,0.0,0.0,0.0,0.0,0.0,0.0,0.0,0.0,0.0,0.0,0.0,0.0,0.5688,0.5688,0.5688,0.5688,0.5688,0.5688,0.5688,0.5688,0.5688,0.5688,0.5688,0.5688,0.5688,0.5688,0.5688,0.5688,0.5688,0.5688,0.0,0.5688,0.5688,0.5688,0.5688,0.5463,0.5235,0.4964,0.4743,0.4387,0.3987,0.0,0.0,0.0,0.0,0.0,0.0,0.0,1.8812,1.8745,1.8649,1.8274,1.7754,1.711,1.6934,1.6659,0.0,0.0,0.0,0.0,0.0,0.0,0.0,0.0,0.0,0.0,0.0,0.0,0.0,0.0,0.0,0.0,0.0,0.0,0.0,0.0,0.0,0.0,0.0,0.0,0.0,0.0,0.0,0.0,0.0,0.0,0.0,0.0,0.0,0.0,0.0,1.0596,1.0755,1.1079,1.0955,1.0524,0.9723,0.9134,0.8522,0.7717,0.7489,0.7489,0.7489,0.7489,0.7489,0.7489,0.7489,0.0,0.0,0.7162,0.6839,0.6708,0.0,0.0,0.0,0.0,0.0,0.0,0.0,0.0,0.0,0.0,0.0,0.0,0.0,0.0,0.0,0.0,0.0,0.5733,0.5688,0.5688,0.5688,0.5688,0.5688,0.5688,0.5688,0.5688,0.5688,0.5688,0.5688,0.5688,0.5688,0.5688,0.5691,0.5715,0.0,0.0,0.5753,0.5764,0.5764,0.5764,0.5581,0.5215,0.5215,0.4944,0.4538,0.0,0.0,0.0,0.0,0.0,0.0,0.0,1.8997,1.9457,1.9101,1.9007,1.8765,1.8206,1.7652,1.7308,0.0,0.0,0.0,0.0,0.0,0.0,0.0,0.0,0.0,0.0,0.0,0.0,0.0,0.0,0.0,0.0,0.0,0.0,0.0,0.0,0.0,0.0,0.0,0.0,0.0,0.0,0.0,0.0,0.0,0.0,0.0,0.0,0.0,0.0,0.0,0.0,1.0705,1.0732,1.0967,1.1014,0.9825,0.0,0.0,0.7847,0.7489,0.7489,0.7489,0.7489,0.7489,0.7489,0.0,0.0,0.0,0.7456,0.7265,0.6806,0.6708,0.6511,0.0,0.0,0.0,0.0,0.0,0.0,0.0,0.0,0.0,0.0,0.0,0.0,0.0,0.0,0.0,0.5777,0.5688,0.5688,0.5688,0.5688,0.5688,0.5688,0.5688,0.5688,0.5688,0.5688,0.5688,0.5688,0.5688,0.5688,0.5694,0.5841,0.0,0.0,0.6007,0.6053,0.6053,0.6053,0.6053,0.6004,0.6004,0.5722,0.5348,0.0,0.0,0.0,0.0,0.0,0.0,1.9293,1.9581,1.9654,1.9475,1.925,1.9026,1.8803,1.85,1.8062,1.7446,0.0,0.0,0.0,0.0,0.0,0.0,0.0,0.0,0.0,0.0,0.0,0.0,0.0,0.0,0.0,0.0,0.0,0.0,0.0,0.0,0.0,0.0,0.0,0.0,0.0,0.0,0.0,0.0,0.0,0.0,0.0,0.0,0.0,0.0,0.0,0.0,1.0674,1.0737,0.0,0.0,0.9423,0.9198,0.7874,0.7489,0.7489,0.7489,0.7489,0.7489,0.7489,0.0,0.0,0.7489,0.7489,0.7423,0.7228,0.7195,0.6999,0.0,0.0,0.0,0.0,0.0,0.0,0.0,0.0,0.0,0.0,0.0,0.0,0.0,0.0,0.0,0.7003,0.6564,0.6169,0.5733,0.5688,0.5688,0.5688,0.5688,0.5688,0.5691,0.5803,0.5836,0.5839,0.5912,0.5945,0.5947,0.5994,0.0,0.0,0.6067,0.6086,0.6086,0.6086,0.6086,0.6086,0.6086,0.5992,0.585,0.0,0.0,0.0,0.0,0.0,1.8606,1.9826,1.9924,1.9887,1.9887,1.9636,1.9417,1.9288,1.9184,1.8736,1.7747,1.7604,0.0,0.0,0.0,0.0,0.0,0.0,0.0,0.0,0.0,1.4743,1.4396,1.4396,0.0,0.0,0.0,0.0,0.0,0.0,0.0,0.0,0.0,0.0,0.0,0.0,0.0,0.0,0.0,0.0,0.0,0.0,0.0,0.0,0.0,0.0,0.0,0.0,0.0,0.0,0.0,0.9432,0.913,0.8081,0.7652,0.7489,0.7489,0.7489,0.7489,0.0,0.0,0.7489,0.7489,0.7489,0.7489,0.7489,0.7489,0.7391,0.7003,0.0,0.0,0.0,0.0,0.0,0.0,0.0,0.0,0.0,0.0,0.0,0.0,0.0,0.0,0.0,0.7749,0.7047,0.6038,0.5852,0.5737,0.5737,0.582,0.5839,0.5839,0.5918,0.5956,0.5961,0.6045,0.6086,0.6086,0.0,0.0,0.0,0.6176,0.6189,0.6189,0.6189,0.6189,0.6189,0.6189,0.6189,0.6189,0.0,0.0,0.0,0.0,0.0,0.0,1.921,1.9873,2.0287,2.0287,2.0287,2.0148,1.9744,1.969,1.9314,1.8364,1.8108,0.0,0.0,0.0,0.0,0.0,0.0,0.0,0.0,0.0,1.4396,1.4396,1.4396,1.4396,1.4396,0.0,0.0,0.0,0.0,0.0,0.0,0.0,0.0,0.0,0.0,0.0,0.0,0.0,0.0,0.0,0.0,0.0,0.0,0.0,0.0,0.0,0.0,0.0,0.0,0.0,0.9675,0.8933,0.8585,0.8004,0.7489,0.7489,0.7489,0.7489,0.0,0.0,0.7489,0.7489,0.7489,0.7489,0.7489,0.7489,0.7489,0.7489,0.7031,0.0,0.0,0.0,0.0,0.0,0.0,0.0,0.0,0.0,0.0,0.0,0.0,0.0,0.0,0.9072,0.8458,0.6827,0.6198,0.5901,0.5901,0.6021,0.6081,0.6081,0.6083,0.6083,0.6083,0.6086,0.6086,0.0,0.0,0.0,0.0,0.6388,0.6381,0.6381,0.6381,0.6381,0.6381,0.6381,0.6381,0.6381,0.0,0.0,0.0,0.0,0.0,0.0,0.0,2.0165,2.0304,2.0304,2.0304,2.0252,2.0115,2.0098,1.9764,1.8917,1.8442,0.0,0.0,0.0,0.0,0.0,0.0,0.0,0.0,0.0,1.472,1.4396,1.4396,1.4396,1.4396,1.4396,1.4396,0.0,0.0,0.0,0.0,0.0,0.0,0.0,0.0,0.0,0.0,0.0,0.0,0.0,0.0,0.0,0.0,0.0,0.0,0.0,0.0,0.0,0.0,1.0544,0.9897,0.0,0.8734,0.8064,0.7489,0.7489,0.7489,0.7489,0.7489,0.7489,0.7489,0.7489,0.7489,0.7489,0.7489,0.7489,0.7391,0.6999,0.6806,0.0,0.0,0.0,0.0,0.0,0.0,0.0,0.0,0.0,0.0,0.0,0.0,0.0,0.0,0.9418,0.8517,0.6973,0.7431,0.714,0.6029,0.6629,0.6649,0.6086,0.617,0.6259,0.6262,0.629,0.0,0.0,0.0,0.0,0.0,0.6371,0.6387,0.6387,0.6387,0.6387,0.6387,0.6387,0.6387,0.6387,0.0,0.0,0.0,0.0,0.0,0.0,0.0,2.0321,2.0304,2.0304,2.0304,2.0304,2.0304,2.015,1.9815,1.9157,1.8669,0.0,0.0,0.0,0.0,0.0,0.0,0.0,1.5635,1.5457,1.5232,1.4926,1.4766,1.4651,1.4651,1.4489,1.4396,1.4396,1.4396,0.0,0.0,0.0,0.0,0.0,0.0,0.0,1.4303,0.0,0.0,0.0,0.0,0.0,0.0,0.0,0.0,0.0,0.0,0.0,0.0,0.0,1.0094,0.9295,0.0,0.8644,0.8107,0.7787,0.7689,0.0,0.0,0.7489,0.7489,0.7489,0.7489,0.7489,0.7489,0.7555,0.7485,0.7077,0.7065,0.0,0.0,0.0,0.0,0.0,0.0,0.0,0.0,0.0,0.0,0.0,0.0,0.0,0.0,0.9931,0.9221,0.8037,0.8367,0.8044,0.7051,0.7586,0.7612,0.7132,0.6878,0.6773,0.6776,0.6504,0.0,0.0,0.0,0.0,0.0,0.6387,0.6387,0.6387,0.6387,0.6387,0.6387,0.6387,0.6387,0.6387,0.0,0.0,0.0,0.0,0.0,0.0,0.0,2.0339,2.0304,2.0304,2.0304,2.0304,2.0304,1.994,1.9545,1.9139,1.8726,0.0,0.0,0.0,0.0,0.0,0.0,0.0,1.65,1.6042,1.581,1.581,1.5355,1.5153,1.5153,1.4674,1.4443,1.4454,1.4396,1.4396,1.4396,1.4396,1.4396,1.4396,1.4396,1.4326,0.0,0.0,0.0,0.0,0.0,0.0,0.0,0.0,0.0,0.0,0.0,0.0,0.0,0.0,0.0,0.0,0.0,0.9562,0.9049,0.8247,0.8052,0.7954,0.7624,0.7521,0.0,0.7489,0.7489,0.7489,0.7489,0.7655,0.7726,0.7522,0.766,0.0,0.0,0.0,0.0,0.0,0.0,0.0,0.0,0.0,0.0,0.0,0.0,0.0,0.0,1.0516,1.0347,0.984,0.912,0.8735,0.8638,0.8796,0.8874,0.8775,0.8028,0.768,0.768,0.6833,0.0,0.0,0.0,0.0,0.0,0.6387,0.6387,0.6387,0.6387,0.6387,0.6387,0.6387,0.6387,0.6387,0.0,0.0,0.0,0.0,0.0,0.0,0.0,0.0,0.0,0.0,2.0304,2.0304,2.0304,1.994,1.9545,0.0,0.0,0.0,0.0,0.0,0.0,0.0,0.0,0.0,1.65,1.6042,1.581,1.581,1.5678,1.5645,1.5623,1.5164,1.4949,1.4926,1.4558,1.4396,1.4396,1.4396,1.4396,1.4396,1.4396,1.4326,0.0,0.0,0.0,0.0,1.3515,1.3146,0.0,0.0,0.0,0.0,0.0,0.0,0.0,0.0,1.0558,1.0508,1.0559,0.0,0.8641,0.8447,0.8382,0.8284,0.0,0.7884,0.7819,0.0,0.0,0.0,0.0,0.7531,0.755,0.7498,0.0,0.0,0.0,0.0,0.0,0.0,0.0,0.0,0.0,0.0,0.0,0.0,0.0,0.0,0.0,1.0546,1.0693,1.0817,1.068,0.9992,0.8765,0.9402,0.9422,0.8775,0.8623,0.8528,0.8474,0.768,0.0,0.0,0.0,0.0,0.6387,0.6387,0.6387,0.6387,0.6387,0.6387,0.6387,0.6387,0.6387,0.6387,0.0,0.0,0.0,0.0,0.0,0.0,0.0,0.0,0.0,0.0,2.0304,2.0235,2.0045,1.9672,1.9254,0.0,0.0,0.0,0.0,0.0,0.0,0.0,0.0,1.6947,1.6808,1.6561,1.6346,1.6129,1.5898,1.5678,1.5467,1.5006,1.4789,1.4766,1.4512,1.4396,1.4396,1.4396,1.4396,1.4396,1.4396,0.0,0.0,0.0,0.0,0.0,1.3716,1.3467,0.0,1.227,1.1834,1.1485,0.0,0.0,0.0,0.0,1.0516,1.0565,1.0742,1.0238,0.962,0.946,0.9422,0.9262,0.8721,0.0,0.0,0.0,0.0,0.0,0.0,0.0,0.0,0.0,0.0,0.0,0.0,0.0,0.0,0.0,0.0,0.0,0.0,0.0,0.0,0.0,0.0,0.0,0.0,1.0569,1.0721,1.1047,1.1146,1.0801,0.9912,1.031,1.031,0.9912,0.9517,0.9373,0.932,0.8528,0.8127,0.0,0.0,0.0,0.6933,0.6534,0.6387,0.6387,0.6387,0.6387,0.6387,0.6387,0.6387,0.6387,0.0,0.0,0.0,0.0,0.0,0.0,0.0,0.0,0.0,0.0,0.0,0.0,0.0,0.0,0.0,0.0,0.0,0.0,0.0,0.0,0.0,0.0,1.7432,1.7329,1.7199,1.7136,1.6905,1.65,1.6042,1.5601,1.5198,1.4743,1.4466,1.4396,1.4396,1.4396,1.4396,1.4396,1.4396,1.4396,1.4396,0.0,0.0,0.0,0.0,0.0,0.0,0.0,0.0,1.2369,1.2008,1.1825,1.082,0.0,0.0,0.0,0.0,0.0,1.0775,1.0959,1.0982,1.064,1.0521,1.0275,0.9556,0.0,0.0,0.0,0.0,0.0,0.0,0.0,0.0,0.0,0.0,0.0,0.0,0.0,0.0,0.0,0.0,0.0,0.0,0.0,0.0,0.0,0.0,0.0,0.0,1.0483,1.0673,1.0839,1.1009,1.1113,1.1151,1.1179,1.1194,1.1194,1.0507,1.0167,1.0167,0.9369,0.8973,0.0,0.0,0.0,0.773,0.6933,0.6587,0.6584,0.6437,0.6387,0.6387,0.6387,0.6387,0.6387,0.0,0.0,0.0,0.0,0.0,0.0,0.0,0.0,0.0,0.0,0.0,0.0,0.0,0.0,0.0,0.0,0.0,0.0,0.0,0.0,0.0,1.7412,1.7404,1.7329,1.7199,1.6808,1.6565,1.65,1.6042,1.5766,1.5678,1.521,1.4789,1.4396,1.4396,1.4396,1.4396,1.4396,1.4396,1.4396,1.4396,0.0,0.0,0.0,0.0,0.0,0.0,0.0,0.0,1.2369,1.2008,1.1825,1.082,0.0,0.0,0.0,0.0,0.0,1.1168,1.1317,1.1209,1.0982,1.0604,1.0231,0.9811,0.0,0.0,0.0,0.0,0.0,0.0,0.0,0.0,0.0,0.0,0.0,0.0,0.0,0.0,0.0,0.0,0.0,0.0,0.0,0.0,0.0,0.0,0.0,0.0,1.035,1.046,1.0664,1.0702,1.0759,1.0938,1.1109,1.1194,1.1194,1.1047,1.1002,1.0998,1.0162,0.9821,0.0,0.0,0.8623,0.8574,0.773,0.7431,0.7332,0.6686,0.6387,0.6387,0.6387,0.6387,0.6387,0.0,0.0,0.0,0.0,0.0,0.0,0.0,0.0,0.0,0.0,0.0,0.0,0.0,0.0,0.0,0.0,0.0,0.0,0.0,0.0,1.7468,1.7404,1.7329,1.7253,1.7199,1.6989,1.6637,1.6129,1.5898,1.5545,1.504,1.4823,1.4605,1.4396,1.4396,1.4396,1.4396,1.4396,1.4396,1.4396,0.0,0.0,0.0,0.0,0.0,0.0,0.0,0.0,0.0,0.0,1.2008,1.1825,1.082,0.0,0.0,0.0,0.0,0.0,1.1288,1.1464,1.1482,1.1798,1.1716,1.1428,1.0982,0.0,0.0,0.0,0.0,0.0,0.0,0.0,0.0,0.0,0.0,0.0,0.0,0.0,0.0,0.0,0.0,0.0,0.0,0.0,0.0,0.0,0.0,0.0,0.0,0.0,1.036,1.0409,1.0564,1.0622,1.0721,1.0811,1.0972,1.1194,1.1194,1.1194,1.1194,1.0806,1.0659,1.0609,0.0,0.9472,0.9373,0.8577,0.8226,0.8177,0.7381,0.7033,0.7033,0.7033,0.7033,0.7132,0.0,0.0,0.0,0.0,0.0,0.0,0.0,0.0,0.0,0.0,0.0,0.0,0.0,0.0,0.0,0.0,0.0,0.0,0.0,1.7529,1.7385,1.7204,1.7094,1.7031,1.7031,1.6934,1.6475,1.5645,1.5534,1.5108,1.4396,1.4396,1.4396,1.4396,1.4396,1.4396,1.4396,1.4396,1.4396,1.4396,0.0,0.0,0.0,0.0,0.0,0.0,0.0,0.0,0.0,0.0,0.0,0.0,0.0,0.0,0.0,1.0496,1.0552,1.0751,1.1356,1.1551,1.1765,1.2439,1.2498,1.2274,1.174,0.0,0.0,0.0,0.0,0.0,0.0,0.0,0.0,0.0,0.0,0.0,0.0,0.0,0.0,0.0,0.0,0.0,0.0,0.0,0.0,0.0,0.0,0.0,0.0,0.0,1.0246,1.0246,1.0393,1.0497,1.055,1.055,1.0712,1.1127,1.1127,1.1151,1.1194,1.1194,1.1194,1.1145,1.0556,1.0265,1.0216,0.9418,0.9072,0.9023,0.8177,0.7879,0.7879,0.7879,0.7879,0.7978,0.0,0.0,0.0,0.0,0.0,0.0,0.0,0.0,0.0,0.0,0.0,0.0,0.0,0.0,0.0,0.0,0.0,0.0,0.0,1.744,1.7162,1.6586,1.6565,1.6543,1.6543,1.6129,1.5645,1.5153,1.472,1.4466,1.4396,1.4396,1.4396,1.4396,1.4396,1.4396,1.4396,1.4396,1.4396,1.4396,1.4396,0.0,0.0,0.0,0.0,0.0,0.0,0.0,0.0,0.0,0.0,0.0,0.0,0.0,1.0496,1.0496,1.0727,1.1034,1.1392,1.1733,1.2075,1.2495,1.2212,0.0,1.117,1.0852,0.0,0.0,0.0,0.0,0.0,0.0,0.0,0.0,0.0,0.0,0.0,0.0,0.0,0.0,0.0,0.0,0.0,0.0,0.0,0.0,0.0,0.0,0.0,0.0,0.0,1.0018,1.0032,1.0137,1.0341,1.0341,1.0504,1.092,1.092,1.1014,1.1194,1.1194,1.1194,1.1194,1.1149,1.1096,1.1047,1.0265,0.992,0.9821,0.9023,0.8722,0.8722,0.8722,0.8722,0.8722,0.0,0.0,0.0,0.0,0.0,0.0,0.0,0.0,0.0,0.0,0.0,1.85,1.85,0.0,0.0,0.0,0.0,0.0,0.0,1.7468,1.7178,1.6522,1.65,1.6228,1.5635,1.5734,1.5579,1.5108,1.4628,1.4396,1.4396,1.4396,1.4396,1.4396,1.4396,1.4396,1.4396,1.4396,1.4396,1.4396,1.4396,1.4396,0.0,0.0,0.0,0.0,0.0,0.0,0.0,0.0,1.2039,1.1669,1.0769,1.0496,1.0496,1.0496,1.0743,1.1066,1.14,1.1749,1.2107,1.2503,0.0,0.0,0.0,0.0,0.0,0.0,0.0,0.0,0.0,0.0,0.0,0.0,0.0,0.0,0.0,0.0,0.0,0.0,0.0,0.0,0.0,0.0,0.0,0.0,0.0,0.0,0.0,0.0,0.0,0.9994,0.9994,1.0037,1.0118,1.0118,1.0265,1.0513,1.0773,1.0934,1.1014,1.1137,1.1194,1.1194,1.1194,1.1194,1.1198,1.085,1.0752,1.0654,0.9867,0.9225,0.8874,0.9373,0.9521,0.962,0.0,0.0,0.0,0.0,0.0,0.0,0.0,0.0,1.886,0.0,0.0,0.0,0.0,1.8069,0.0,0.0,0.0,0.0,1.7516,1.7496,1.7131,1.6315,1.6272,1.5844,1.4903,1.5198,1.5198,1.488,1.4558,1.4396,1.4396,1.4396,1.4396,1.4396,1.4396,1.4396,1.4396,1.4396,1.4396,1.4396,1.435,1.4233,0.0,0.0,0.0,0.0,0.0,0.0,0.0,0.0,1.1776,1.1452,1.0726,1.0496,1.0496,1.0496,1.0814,1.1201,1.1424,1.1829,1.225,0.0,0.0,0.0,0.0,0.0,0.0,0.0,0.0,0.0,0.0,0.0,0.0,0.0,0.0,0.0,0.0,0.0,0.0,0.0,0.0,0.0,0.0,0.0,0.0,0.0,0.0,0.0,0.0,0.0,0.0,0.0,0.9994,0.9994,0.9994,0.9994,1.007,1.0222,1.0532,1.0768,1.0901,1.1038,1.1137,1.1194,1.1194,1.1194,1.1194,1.1194,1.1194,1.1145,1.0605,1.0064,0.9616,1.0162,1.0364,1.0462,0.0,0.0,0.0,0.0,0.0,0.0,0.0,0.0,1.8358,1.7963,1.7902,0.0,0.0,0.0,0.0,0.0,0.0,0.0,1.7516,1.7496,1.6972,1.5854,1.5788,1.5355,1.4419,1.4396,1.4396,1.4396,1.4396,1.4396,1.4396,1.4396,1.4396,1.4396,1.4396,1.4396,1.4384,1.4384,1.4373,1.4373,1.4246,1.386,1.3386,0.0,0.0,0.0,0.0,0.0,0.0,0.0,1.1334,1.12,1.0675,1.0496,1.0496,1.0496,1.0982,1.1487,1.1495,1.2049,0.0,0.0,0.0,0.0,0.0,0.0,0.0,0.0,0.0,0.0,0.0,0.0,0.0,0.0,0.0,0.0,0.0,0.0,0.0,0.0,0.0,0.0,0.0,0.0,0.0,0.0,0.0,0.0,0.0,0.0,0.0,0.0,0.9994,0.9994,0.9994,0.9994,0.9994,0.9999,1.0213,1.049,1.0891,1.0891,1.1005,1.1194,1.1194,1.1194,1.1194,1.1194,1.1194,1.1194,1.1194,1.1194,1.1194,1.1194,1.1194,1.1194,0.0,0.0,0.0,0.0,0.0,0.0,0.0,0.0,1.8029,1.7922,1.7902,0.0,0.0,0.0,0.0,0.0,0.0,0.0,1.6942,1.6637,1.6107,1.5345,1.53,1.5028,1.4396,1.4396,1.4396,1.4396,1.4396,1.4396,1.4396,1.4396,1.4257,1.3975,1.3975,1.3823,1.3552,1.3351,1.327,1.3246,1.303,1.2827,1.2682,0.0,0.0,0.0,0.0,0.0,0.0,0.0,0.0,0.0,1.0624,1.0496,1.0544,1.0764,1.1153,1.1543,1.1797,1.221,0.0,0.0,0.0,0.0,0.0,0.0,0.0,0.0,0.0,0.0,0.0,0.0,0.0,0.0,0.0,0.0,0.0,0.0,0.0,0.0,0.0,0.0,0.0,0.0,0.0,0.0,0.0,0.0,0.0,0.0,0.0,0.0,0.9994,0.9994,0.9994,0.9994,0.9994,0.9994,1.0061,1.0236,1.0466,1.0764,1.0929,1.0995,1.1132,1.1194,1.1194,1.1194,1.1194,1.1194,1.1194,1.1194,1.1194,1.1194,1.1194,1.1194,0.0,0.0,0.0,0.0,0.0,0.0,1.7902,1.7902,1.7902,1.7902,1.7902,1.7882,0.0,0.0,0.0,1.7344,1.6909,0.0,1.6445,1.6163,1.5724,1.5131,1.5108,1.488,1.4396,1.4396,1.4396,1.4396,1.4396,1.4326,1.4163,1.4163,1.4034,1.3793,1.3661,1.358,1.3506,1.3204,1.3077,1.3052,1.2839,1.2635,1.2421,0.0,0.0,0.0,0.0,0.0,0.0,0.0,0.0,0.0,1.0539,1.0591,1.0743,1.0939,1.1328,1.1741,1.1964,0.0,0.0,0.0,0.0,0.0,0.0,0.0,0.0,0.0,0.0,0.0,0.0,0.0,0.0,0.0,0.0,0.0,0.0,0.0,0.0,0.0,0.0,0.0,0.0,0.0,0.0,0.0,0.0,0.0,0.0,0.0,0.0,0.0,1.0511,1.0511,1.0511,1.0337,1.025,1.025,1.025,1.028,1.042,1.0586,1.074,1.0905,1.1109,1.1194,1.1194,1.1194,1.1194,1.1194,1.1194,1.1194,1.1194,1.1194,1.1194,1.1194,0.0,0.0,1.7902,1.7902,0.0,0.0,1.7902,1.7902,1.7902,1.7882,1.7882,1.7821,0.0,0.0,0.0,1.6731,1.6299,1.5996,1.5923,1.5879,1.5613,1.5062,1.504,1.4811,1.4361,1.4361,1.4337,1.4303,1.4337,1.4172,1.3849,1.3812,1.3785,1.3759,1.3449,1.3506,1.3817,1.3494,1.334,1.334,1.3195,1.284,1.24,1.2317,0.0,0.0,0.0,0.0,0.0,0.0,0.0,0.0,1.0591,1.0806,1.105,1.1082,1.1527,1.1998,1.203,0.0,0.0,0.0,0.0,0.0,0.0,0.0,0.0,0.0,0.0,0.0,0.0,0.0,0.0,0.0,0.0,0.0,0.0,0.0,0.0,0.0,0.0,0.0,0.0,0.0,0.0,0.0,0.0,0.0,0.0,0.0,0.0,1.1284,1.1284,1.1284,1.1284,1.0895,1.0679,1.0679,1.0679,1.0679,1.0646,1.0479,1.0637,1.0953,1.1109,1.1194,1.1194,1.1194,1.1194,1.1194,1.1194,1.1194,1.1194,1.1243,1.1292,1.1292,0.0,0.0,1.7902,1.7902,0.0,0.0,1.7902,1.7902,1.7862,1.776,1.774,1.7543,1.7039,1.69,0.0,1.6207,1.5734,1.5423,1.53,1.4949,1.4697,1.4558,1.4558,1.435,1.3939,1.3928,1.3776,1.3457,1.3776,1.4047,1.4272,1.396,1.3686,1.3471,1.3408,1.3104,1.2647,1.237,1.2239,1.2231,1.1991,1.1824,1.174,1.1972,1.1783,0.0,0.0,0.0,0.0,0.0,0.0,0.0,1.1273,1.132,1.1439,1.1717,1.19,1.2083,0.0,0.0,0.0,0.0,0.0,0.0,0.0,0.0,0.0,0.0,0.0,0.0,0.0,0.0,0.0,0.0,0.0,0.0,0.0,0.0,0.0,0.0,0.0,0.0,0.0,0.0,0.0,0.0,0.0,0.0,0.0,0.0,0.0,1.1284,1.1284,1.1284,1.1284,1.1198,1.1149,0.0,1.1149,1.1149,1.116,1.1271,1.1364,1.1424,1.1249,1.1194,1.1194,1.1194,1.1194,1.1194,1.1194,1.1194,1.1243,1.1683,1.1829,1.1883,0.0,0.0,0.0,0.0,0.0,0.0,0.0,0.0,1.7699,1.7406,1.7303,1.7039,1.6475,1.6216,0.0,0.0,1.5142,1.4846,1.4766,1.4535,1.4396,1.4396,1.4396,1.4314,1.4104,1.3905,1.3796,1.3775,1.3624,1.3671,1.3877,1.3701,1.3526,1.3375,1.3049,1.2814,1.2635,1.2342,1.2225,1.2225,1.2092,1.2033,1.2062,1.2209,1.2075,1.177,1.195,0.0,0.0,0.0,0.0,0.0,0.0,0.0,1.1781,1.1934,1.2139,1.2321,0.0,0.0,0.0,0.0,0.0,0.0,0.0,0.0,0.0,0.0,0.0,0.0,0.0,0.0,0.0,0.0,0.0,0.0,0.0,0.0,0.0,0.0,0.0,0.0,0.0,0.0,0.0,0.0,0.0,0.0,0.0,1.1972,1.1972,1.1972,1.1972,1.1972,1.1972,1.1757,1.1623,1.1623,1.1623,1.1757,1.1977,1.1712,1.1661,1.1776,1.177,1.1831,1.198,1.198,1.198,1.198,1.198,1.198,1.198,1.2273,1.237,1.2419,0.0,0.0,0.0,0.0,0.0,0.0,0.0,0.0,0.0,1.69,1.6731,1.6454,1.5901,1.5501,1.5187,0.0,0.0,0.0,1.4396,1.4396,1.4396,1.4396,1.4396,1.4373,1.4314,1.3965,1.3921,1.4218,1.3668,1.3408,1.3392,1.3466,1.343,1.3307,1.2814,1.2723,1.2928,1.2683,1.259,1.259,1.259,1.259,1.2598,1.2652,1.2437,1.2107,1.2174,1.1953,1.1698,1.1698,0.0,0.0,0.0,0.0,1.2115,1.2115,1.2329,1.259,0.0,0.0,0.0,0.0,0.0,0.0,0.0,0.0,0.0,0.0,0.0,0.0,0.0,0.0,0.0,0.0,0.0,0.0,0.0,0.0,0.0,0.0,0.0,0.0,0.0,0.0,0.0,0.0,0.0,0.0,1.2705,1.2705,1.2705,1.2705,1.2705,1.2705,1.2705,1.2314,1.21,1.21,1.21,1.2314,1.2668,1.2063,1.1914,1.2145,1.2307,1.2549,1.2813,1.2813,1.2813,1.2813,1.2813,1.2813,1.2813,1.291,1.291,1.291,0.0,0.0,0.0,0.0,0.0,0.0,0.0,0.0,0.0,0.0,1.612,1.5879,1.5289,1.5153,1.4971,1.4535,1.4443,1.4396,1.4396,0.0,0.0,1.4396,1.4396,1.4244,1.3892,1.3842,1.3691,1.3445,1.3706,1.383,1.3811,1.3829,1.3549,1.3067,1.3262,1.3075,1.2652,1.2621,1.259,1.259,1.259,1.259,1.2629,1.2867,1.2773,1.2549,1.2793,1.27,1.2447,1.2447,1.2447,0.0,0.0,0.0,1.2519,1.2519,1.2558,1.259,0.0,0.0,0.0,0.0,0.0,0.0,0.0,0.0,0.0,0.0,0.0,0.0,0.0,0.0,0.0,0.0,0.0,0.0,0.0,0.0,0.0,0.0,0.0,0.0,0.0,0.0,0.0,0.0,0.0,0.0,1.2705,1.2705,1.2705,1.2705,1.2705,1.2705,1.2705,1.2619,1.2619,1.2619,1.2619,1.2619,1.2705,1.2612,1.2587,1.2603,1.2447,1.2549,1.2813,1.2813,1.2813,1.2813,1.2813,1.2813,1.2861,1.3249,1.3394,1.3491,0.0,0.0,0.0,0.0,0.0,0.0,0.0,0.0,0.0,0.0,0.0,1.5277,1.4766,1.472,1.4628,1.443,1.4396,1.4396,1.4396,1.4396,1.4396,1.4396,1.4387,1.432,1.4139,1.3956,1.3895,1.3959,1.3933,1.3915,0.0,1.3958,1.3714,1.3277,1.3246,1.2981,1.259,1.259,1.259,1.259,1.259,1.259,1.2621,0.0,0.0,0.0,0.0,0.0,0.0,1.259,1.259,1.259,1.259,0.0,0.0,0.0,0.0,0.0,0.0,0.0,0.0,0.0,0.0,0.0,0.0,0.0,0.0,0.0,0.0,0.0,0.0,0.0,0.0,0.0,0.0,0.0,0.0,0.0,0.0,0.0,0.0,0.0,0.0,0.0,0.0,0.0,0.0,1.2487,1.2487,1.2626,1.2705,1.2705,1.2705,1.2705,1.2705,1.2705,1.2705,1.2705,1.2705,1.2705,1.2705,1.2705,1.2786,1.295,1.298,1.3187,1.3429,1.3567,1.3624,1.3624,1.3624,1.3624,1.3673,1.3865,1.3968,1.3968,0.0,0.0,0.0,0.0,0.0,0.0,0.0,0.0,0.0,0.0,0.0,1.4789,1.4443,0.0,0.0,0.0,1.4396,1.4451,1.4582,1.4464,1.4437,1.4566,1.4457,1.4408,1.4408,1.4178,1.4189,1.4486,1.4193,1.4019,1.401,1.401,1.3791,0.0,1.3103,1.2867,1.259,0.0,0.0,1.2406,1.256,0.0,0.0,0.0,0.0,0.0,0.0,0.0,0.0,0.0,0.0,0.0,0.0,0.0,0.0,0.0,0.0,0.0,0.0,0.0,0.0,0.0,0.0,0.0,0.0,0.0,0.0,0.0,0.0,0.0,0.0,0.0,0.0,0.0,0.0,0.0,0.0,0.0,0.0,0.0,0.0,0.0,0.0,0.0,0.0,0.0,0.0,1.2216,1.2216,1.2463,1.2608,1.2608,1.2668,1.2705,1.2705,1.2705,1.2705,1.2705,1.2705,1.2705,1.2705,1.2705,1.2819,1.3037,1.3369,1.3664,1.3924,1.4189,1.4298,1.4298,1.4298,1.4298,1.4298,1.4298,1.4298,1.4298,0.0,0.0,0.0,0.0,0.0,0.0,0.0,0.0,0.0,0.0,0.0,1.4419,1.4396,1.4396,1.4396,1.4396,1.4396,1.4604,1.5039,1.4658,1.46,1.5039,1.4637,0.0,1.441,1.4449,1.4467,1.4486,1.4491,1.4309,1.401,1.401,1.3649,1.3042,1.3019,1.2867,1.259,0.0,0.0,0.0,0.0,0.0,0.0,0.0,0.0,0.0,0.0,0.0,0.0,0.0,0.0,0.0,0.0,0.0,0.0,0.0,0.0,0.0,0.0,0.0,0.0,0.0,0.0,0.0,0.0,0.0,0.0,0.0,0.0,0.0,0.0,0.0,0.0,0.0,0.0,0.0,0.0,0.0,0.0,0.0,0.0,0.0,0.0,0.0,0.0,0.0,0.0,1.1904,1.1904,1.2192,1.233,1.233,1.2572,1.2705,1.2705,1.2705,1.2705,1.2705,1.2705,1.2705,1.2705,1.2705,1.2711,1.2753,1.3284,1.3664,1.3924,1.4189,1.4298,1.4298,1.4298,1.4298,1.4298,1.4298,1.4298,1.4298,0.0,0.0,0.0,0.0,0.0,0.0,0.0,0.0,0.0,0.0,0.0,0.0,0.0,1.4408,1.4518,1.4819,1.4856,1.479,1.4666,1.4496,1.4489,1.4651,1.454,1.4468,1.4468,1.4478,1.4491,1.4491,1.4501,1.4327,1.401,1.3791,1.3587,1.338,1.3118,1.2772,1.2339,1.2339,0.0,0.0,0.0,0.0,0.0,0.0,0.0,0.0,0.0,0.0,0.0,0.0,0.0,0.0,0.0,0.0,0.0,0.0,0.0,0.0,0.0,0.0,0.0,0.0,0.0,0.0,0.0,0.0,0.0,0.0,0.0,0.0,0.0,0.0,0.0,0.0,0.0,0.0,0.0,0.0,0.0,0.0,0.0,0.0,0.0,0.0,0.0,0.0,0.0,0.0,1.1633,1.192,1.2137,1.2306,1.2403,1.2536,1.2699,1.2705,1.2705,1.2705,1.2705,1.2705,1.2705,1.2705,1.2705,1.2723,1.3103,1.3417,1.3676,1.3936,1.4141,1.4298,1.4298,1.4298,1.4298,1.4298,1.4298,1.4298,0.0,0.0,0.0,1.4857,0.0,1.4811,1.4639,1.4593,1.4555,1.4426,0.0,0.0,0.0,0.0,1.4698,1.486,1.4878,1.4801,1.4687,1.4508,1.4486,1.4661,1.4572,1.4506,1.4506,1.4486,1.4515,1.4515,1.4515,1.439,0.0,1.3974,1.374,1.3486,1.3219,1.2829,0.0,0.0,0.0,1.1601,0.0,0.0,1.2167,0.0,0.0,0.0,0.0,0.0,0.0,0.0,0.0,0.0,0.0,0.0,0.0,0.0,0.0,0.0,0.0,0.0,0.0,0.0,0.0,0.0,0.0,0.0,0.0,0.0,0.0,0.0,0.0,0.0,0.0,0.0,0.0,0.0,0.0,0.0,0.0,0.0,0.0,0.0,0.0,0.0,0.0,0.0,0.0,0.0,1.1351,1.1609,1.191,1.23,1.2312,1.2439,1.2699,1.2705,1.2705,1.2705,1.2705,1.2705,1.2705,1.2705,1.2705,1.2711,1.2904,1.3133,1.3411,1.3761,1.4008,1.4171,1.4262,1.4298,1.4298,1.4298,1.4298,1.4298,1.4535,1.4396,1.4396,1.4396,1.4418,1.4429,1.4395,1.4406,1.4415,1.4401,0.0,0.0,0.0,0.0,0.0,1.4453,1.4427,1.4643,1.5157,1.4758,1.4706,1.5157,1.4734,1.4515,1.4515,1.4515,1.4515,1.4533,1.4533,1.4535,1.4595,1.4595,1.413,1.3284,1.3251,1.3031,1.2642,0.0,1.1532,1.114,0.0,1.1874,1.2058,0.0,0.0,0.0,1.4337,1.46,0.0,0.0,0.0,0.0,0.0,0.0,0.0,0.0,0.0,0.0,0.0,0.0,0.0,0.0,0.0,0.0,0.0,0.0,0.0,0.0,0.0,0.0,0.0,0.0,0.0,0.0,0.0,0.0,0.0,0.0,0.0,0.0,0.0,0.0,0.0,0.0,0.0,0.0,0.0,1.1135,1.1135,1.1357,1.1736,1.2276,1.2306,1.2433,1.2693,1.2699,1.2705,1.2705,1.2705,1.2705,1.2705,1.2705,1.2705,1.2705,1.2705,1.2862,1.3107,1.3676,1.39,1.393,1.4195,1.4298,1.4298,1.4298,1.4298,1.4298,1.4651,1.4489,1.4396,1.4396,1.4668,1.4801,1.445,1.4687,1.4773,0.0,0.0,0.0,1.4404,1.4848,1.4986,1.4505,1.4773,1.4917,1.4712,1.4576,1.4563,1.4704,1.4565,1.4515,1.4515,1.4515,1.4653,1.4937,1.4937,1.4702,1.4227,1.4227,1.3757,1.2862,1.2396,1.2205,1.2188,1.1753,0.0,0.0,1.1462,1.1877,0.0,0.0,0.0,0.0,0.0,1.4663,1.5128,0.0,1.5396,1.5127,0.0,0.0,0.0,0.0,0.0,0.0,1.393,0.0,0.0,0.0,0.0,0.0,0.0,1.4402,0.0,0.0,0.0,0.0,0.0,0.0,0.0,0.0,0.0,0.0,0.0,0.0,0.0,0.0,0.0,0.0,0.0,0.0,0.0,0.0,1.1975,1.1697,1.1697,1.1736,1.1754,1.1712,1.2113,1.2349,1.2421,1.2608,1.2705,1.2705,1.2705,1.2705,1.2705,1.2705,1.2705,1.2705,1.2705,1.2747,1.2862,1.3399,1.3731,1.393,1.4195,1.4298,1.4298,1.4298,1.4298,1.4298,1.4835,1.4607,1.447,1.4674,1.4758,1.471,1.4445,1.4619,1.4722,0.0,0.0,0.0,1.4722,1.4846,1.4801,1.4517,1.4764,1.4784,1.4515,1.4515,1.4558,1.4753,1.4753,1.4836,1.5001,1.5001,1.512,1.5349,1.5056,1.4772,1.4555,1.4136,1.3535,1.2756,1.2319,1.1949,0.0,0.0,0.0,0.0,1.1272,0.0,0.0,1.2346,1.2767,0.0,0.0,0.0,1.5134,1.516,1.5307,0.0,0.0,0.0,0.0,0.0,0.0,0.0,0.0,0.0,0.0,0.0,0.0,0.0,1.4384,1.4696,1.4816,0.0,0.0,0.0,0.0,0.0,0.0,0.0,0.0,0.0,0.0,0.0,0.0,0.0,0.0,0.0,0.0,0.0,0.0,1.2857,1.2174,1.1766,1.1874,1.188,1.1814,1.1663,1.2095,1.2312,1.2312,1.2572,1.2705,1.2705,1.2705,1.2705,1.2705,1.2705,1.2705,1.2705,1.2705,1.2705,1.2735,1.3175,1.3507,1.3779,1.4153,1.4298,1.4298,1.4298,1.4298,1.4298,0.0,1.4701,1.4515,1.4956,1.4728,1.4467,1.4413,1.4453,1.4486,0.0,1.4873,1.5123,1.5109,1.4801,1.4579,1.4579,1.4616,1.4643,1.4643,1.4643,1.4799,1.5148,1.5166,1.5331,1.568,1.5689,1.5707,1.5762,1.5127,1.4889,1.5061,1.4218,1.3418,1.2755,1.2572,1.199,1.1149,0.0,0.0,1.1111,1.1111,1.1446,0.0,0.0,1.2415,0.0,1.3499,1.4222,1.4903,1.4553,1.5018,0.0,0.0,0.0,0.0,0.0,1.5502,0.0,0.0,0.0,0.0,0.0,0.0,0.0,1.4858,1.4875,1.4804,0.0,0.0,0.0,0.0,0.0,0.0,0.0,0.0,0.0,0.0,0.0,0.0,0.0,0.0,0.0,0.0,1.378,1.3345,1.2969,1.2154,1.1718,1.1908,1.188,1.188,1.188,1.2149,1.2282,1.2312,1.2542,1.2674,1.2705,1.2705,1.2705,1.2705,1.2705,1.2705,1.2705,1.2705,1.2705,1.2729,1.3006,1.3278,1.3562,1.4057,1.4268,1.4298,1.4298,1.4298,1.4298,1.4509,1.4467,1.4419,1.4509,1.4804,1.4917,1.4557,1.48,1.4907,1.4554,1.4563,1.463,1.4645,1.4851,1.4983,1.4983,1.5276,1.546,1.546,1.546,1.5487,1.557,1.5579,1.5606,1.5689,1.5689,1.5854,1.6193,1.6027,1.5454,1.4462,1.4427,1.3526,1.1922,1.1885,1.1669,1.1335,0.0,0.0,1.1111,1.1111,0.0,1.2003,1.2187,1.2636,1.3302,1.4446,1.4982,1.5196,0.0,1.5409,1.5338,0.0,0.0,0.0,0.0,0.0,0.0,0.0,0.0,0.0,0.0,0.0,0.0,1.5993,1.6224,1.6276,0.0,0.0,0.0,0.0,0.0,0.0,0.0,0.0,0.0,0.0,0.0,0.0,0.0,0.0,0.0,0.0,1.4223,1.3996,1.3948,1.3084,1.2343,1.192,1.188,1.188,1.188,1.1928,1.206,1.2312,1.2367,1.2493,1.2705,1.2705,1.2705,1.2705,1.2705,1.2705,1.2705,1.2705,1.2705,1.2729,1.3006,1.3278,1.355,1.3857,1.4111,1.4298,1.4298,1.4298,1.4298,1.474,1.4599,1.4521,1.4754,1.4819,1.4773,1.4552,1.4682,1.4764,1.4545,1.468,1.4882,1.5084,1.5276,1.5395,1.5395,1.5579,1.5689,1.5689,1.5689,1.578,1.5991,1.6001,1.6092,1.6294,1.6294,1.6395,1.6615,1.5834,1.5111,1.4422,1.3665,1.2799,1.1855,1.1632,1.1484,0.0,0.0,1.1285,1.1285,1.1285,0.0,1.1986,1.2203,1.2561,1.2988,1.3651,1.4096,1.4501,1.5356,1.5536,0.0,0.0,1.5988,1.6307,0.0,1.6313,1.6298,0.0,0.0,0.0,1.6001,0.0,0.0,0.0,1.6307,1.6463,1.5912,0.0,0.0,0.0,0.0,0.0,0.0,0.0,0.0,0.0,0.0,0.0,0.0,0.0,0.0,0.0,1.3775,1.3579,1.3327,1.2707,1.22,1.192,1.2047,1.2059,1.1886,1.2047,1.218,1.2312,1.2312,1.2445,1.2705,1.2705,1.2705,1.2705,1.2705,1.2705,1.2705,1.2705,1.2705,1.2711,1.2856,1.3079,1.3357,1.3755,1.4063,1.4298,1.4298,1.4298,1.4298,1.4994,1.4752,1.463,1.5002,1.4764,1.4543,1.4616,1.4625,1.4653,1.4735,1.501,1.5331,1.5652,0.0,0.0,0.0,1.5881,1.5918,1.5918,1.5918,1.6074,1.6413,1.6431,1.6578,1.6899,1.6908,1.6908,1.6908,1.5507,1.4744,1.453,1.3018,1.2187,1.2009,1.1733,0.0,0.0,0.0,0.0,1.1729,0.0,1.1811,1.191,1.2245,1.2452,1.2651,1.3035,1.362,1.4304,1.5296,0.0,1.5914,1.6127,1.6354,0.0,0.0,0.0,0.0,0.0,0.0,0.0,0.0,0.0,1.6321,0.0,0.0,0.0,1.6088,0.0,0.0,0.0,0.0,0.0,0.0,0.0,0.0,0.0,0.0,0.0,0.0,0.0,0.0,0.0,1.3019,1.2891,1.2523,1.2099,1.1857,1.1802,1.2047,1.2073,1.1958,1.2107,1.2234,1.2391,1.2288,1.2397,1.2705,1.2705,1.2705,1.2705,1.2705,1.2705,1.2705,1.2705,1.2705,1.2705,1.2705,1.2868,1.3169,1.3646,1.399,1.4226,1.428,1.4298,1.4298,1.458,1.4531,1.451,1.4556,1.4536,1.4634,1.4983,1.5038,1.5157,1.5505,1.5588,1.5643,0.0,0.0,0.0,0.0,0.0,0.0,1.6771,0.0,1.6789,1.6835,1.6844,1.6862,1.6908,1.6908,1.6908,1.6908,1.6079,1.5215,1.4307,1.3637,1.2842,0.0,1.2252,0.0,0.0,0.0,1.2487,0.0,1.2747,1.2454,0.0,1.2399,1.2571,1.2843,1.4708,1.5904,1.6552,0.0,1.6434,1.6757,0.0,1.6735,1.7359,0.0,0.0,0.0,0.0,0.0,0.0,0.0,1.6844,0.0,0.0,0.0,1.6839,1.6795,0.0,0.0,0.0,0.0,0.0,0.0,0.0,0.0,0.0,0.0,0.0,0.0,0.0,0.0,0.0,0.0,1.2533,1.2806,1.2072,1.1625,1.1552,1.1561,1.1778,1.2252,1.1808,1.1916,1.265,1.2198,1.2216,1.2705,1.2705,1.2705,1.2705,1.2705,1.2705,1.2705,1.2705,1.2705,1.2705,1.2705,1.2868,1.3107,1.3447,1.3719,1.3978,1.4214,1.4298,1.4298,1.4607,1.4698,1.4854,1.4854,1.5038,1.5249,1.5414,1.5441,1.5588,1.6001,1.6257,0.0,0.0,0.0,0.0,0.0,0.0,1.7614,0.0,0.0,0.0,1.6634,1.6625,1.627,1.5578,1.5578,1.5578,1.5578,1.4824,1.425,1.381,1.3135,1.2688,0.0,1.2483,0.0,1.2733,0.0,0.0,0.0,0.0,0.0,0.0,1.3007,1.3131,1.3378,1.4396,1.5315,1.603,0.0,1.6055,0.0,0.0,0.0,0.0,0.0,0.0,0.0,0.0,0.0,0.0,0.0,0.0,0.0,1.6908,0.0,1.6908,0.0,0.0,0.0,0.0,0.0,0.0,0.0,0.0,0.0,0.0,0.0,0.0,0.0,0.0,0.0,0.0,0.0,0.0,0.0,0.0,1.1452,1.1765,1.1597,1.1663,1.2077,1.1688,1.1796,1.2469,1.2107,1.2107,1.2481,1.2632,1.2705,1.2705,1.2705,1.2705,1.2705,1.2705,1.2705,1.2705,1.2705,1.2777,1.2922,1.335,1.3676,1.3936,1.4201,1.4298,1.4298,1.4946,1.5065,1.5258,1.5258,1.5496,1.5725,1.5845,1.6046,1.6294,0.0,0.0,0.0,1.7633,1.7944,0.0,0.0,1.8091,1.8091,0.0,0.0,1.7722,0.0,0.0,0.0,1.5231,1.5186,1.5077,1.4851,1.4081,1.3718,1.3681,1.2914,1.2665,1.2918,0.0,1.289,1.3106,0.0,0.0,1.3326,1.3526,1.3568,1.3476,1.3476,1.3773,1.4195,1.4412,1.5026,1.576,1.576,1.6126,0.0,1.7358,0.0,0.0,0.0,0.0,0.0,1.7752,0.0,0.0,0.0,0.0,0.0,0.0,0.0,0.0,0.0,0.0,0.0,0.0,0.0,0.0,0.0,0.0,0.0,0.0,0.0,0.0,0.0,0.0,0.0,0.0,0.0,0.0,0.0,0.0,0.0,1.1966,1.1608,1.1501,1.1766,1.1513,1.1633,1.2204,1.2017,1.2012,1.2318,1.2578,1.2705,1.2705,1.2705,1.2705,1.2705,1.2705,1.2705,1.2705,1.2705,1.2705,1.2759,1.3302,1.3634,1.3839,1.4171,1.4298,1.4298,1.5661,1.5661,0.0,1.567,1.568,1.5826,1.623,1.6945,1.744,0.0,0.0,0.0,0.0,0.0,0.0,0.0,0.0,1.8091,1.8091,0.0,1.8081,0.0,0.0,1.7635,0.0,1.6716,1.632,1.5457,1.4687,1.426,1.426,1.3514,1.3186,1.3206,1.3453,1.358,1.3606,1.3948,1.4075,1.4075,1.4082,1.3913,1.3695,0.0,1.4398,1.5352,1.5352,0.0,0.0,1.6657,1.722,0.0,0.0,0.0,0.0,0.0,0.0,0.0,0.0,0.0,0.0,1.8045,0.0,0.0,0.0,0.0,1.6908,0.0,0.0,0.0,0.0,0.0,0.0,0.0,0.0,0.0,0.0,0.0,0.0,0.0,0.0,0.0,0.0,0.0,0.0,0.0,0.0,0.0,1.1953,1.1459,1.1256,1.1495,1.1236,1.1389,1.1926,1.1886,1.2012,1.2318,1.2578,1.2705,1.2705,1.2705,1.2705,1.2705,1.2705,1.2705,1.2705,1.2705,1.2705,1.2759,1.3302,1.3519,1.3592,1.4111,1.4298,1.4298,1.5763,0.0,0.0,0.0,0.0,1.6633,1.7037,1.7559,0.0,0.0,0.0,0.0,0.0,1.8742,1.8907,0.0,0.0,1.8266,1.8859,1.7826,0.0,0.0,0.0,1.5506,0.0,0.0,0.0,1.3974,1.3699,1.3588,1.3588,1.3325,1.3273,1.346,0.0,1.3713,0.0,0.0,0.0,0.0,0.0,1.4039,1.3955,0.0,0.0,1.4321,1.4489,1.511,0.0,1.5842,1.6049,1.637,1.6944,1.7268,1.7489,1.8056,1.8569,0.0,0.0,0.0,1.8411,1.8155,0.0,0.0,0.0,0.0,0.0,0.0,0.0,0.0,0.0,0.0,0.0,0.0,0.0,0.0,0.0,0.0,0.0,0.0,0.0,0.0,0.0,0.0,0.0,0.0,0.0,0.0,0.0,1.1632,1.12,1.1483,1.1256,1.1248,1.1621,1.1796,1.1968,1.2059,1.2493,1.2705,1.2705,1.2705,1.2705,1.2705,1.2705,1.2705,1.2705,1.2705,1.2705,1.2759,1.3302,1.3513,1.3574,1.4105,1.4298,1.4298,1.5677,1.5939,0.0,0.0,0.0,0.0,0.0,0.0,0.0,0.0,1.84,0.0,1.844,0.0,1.8367,0.0,1.7876,1.7917,1.8767,1.7513,0.0,1.6893,1.6043,0.0,0.0,0.0,0.0,0.0,0.0,1.352,1.352,1.352,1.3621,1.376,0.0,1.3908,1.4088,0.0,1.4088,0.0,0.0,1.4088,0.0,0.0,1.3997,1.387,0.0,1.4454,1.4985,1.5318,1.5394,1.556,1.6412,1.6698,1.6862,1.7755,1.8407,1.8841,1.8912,1.8916,0.0,1.8605,1.8402,0.0,1.8292,0.0,0.0,0.0,0.0,0.0,0.0,0.0,0.0,0.0,0.0,0.0,0.0,1.5093,0.0,0.0,0.0,0.0,0.0,0.0,0.0,0.0,0.0,0.0,0.0,0.0,1.1608,1.1377,1.139,1.1384,1.1339,1.17,1.204,1.224,1.2785,1.3173,1.3421,1.3421,1.3421,1.3421,1.3421,1.3421,1.3421,1.3421,1.3315,1.3238,1.369,1.375,1.3707,1.4135,1.4298,1.4298,1.5488,1.6209,0.0,0.0,1.6604,0.0,0.0,0.0,1.8665,0.0,1.8219,1.7925,1.7942,1.7212,1.673,1.6746,1.6713,0.0,1.7927,1.7098,0.0,0.0,1.7033,1.6165,1.5352,0.0,0.0,0.0,0.0,0.0,1.4088,1.4088,1.4088,1.4088,1.4088,0.0,1.4088,1.4088,1.4088,1.4088,1.4088,1.4088,1.4088,1.4088,1.4088,1.4088,1.4088,1.4088,1.4208,1.5068,1.5352,1.5477,1.6288,1.6617,1.6854,1.7674,1.7997,1.8247,1.9054,1.9301,1.9301,1.9301,1.9017,0.0,0.0,0.0,1.7999,0.0,0.0,0.0,0.0,0.0,0.0,0.0,0.0,0.0,0.0,0.0,0.0,0.0,0.0,0.0,0.0,0.0,0.0,0.0,0.0,0.0,0.0,0.0,1.2378,1.1186,1.1706,1.1713,1.1129,1.1655,1.228,1.2929,1.3498,1.4068,1.4692,1.4692,1.4692,1.4692,1.4692,1.4692,1.4692,1.4692,1.4491,1.4187,1.4467,1.4357,1.4048,1.4255,1.4298,1.4298,1.5666,1.65,1.7046,0.0,1.7359,1.8053,0.0,0.0,0.0,0.0,1.7131,1.7122,1.7298,1.7122,1.7099,1.736,1.6789,0.0,0.0,0.0,0.0,1.6331,1.5358,1.4657,1.4454,1.4419,0.0,1.4088,0.0,0.0,1.4088,1.4088,1.4088,1.4088,0.0,0.0,1.4088,1.4088,1.4088,1.4088,1.4088,1.4088,0.0,0.0,1.4088,1.4088,1.4088,1.4088,1.4124,1.4377,1.4419,1.4454,1.4699,1.5677,1.6739,1.6984,1.7957,1.9015,1.9222,1.9301,1.9301,1.9301,1.9228,1.9155,0.0,0.0,0.0,0.0,0.0,0.0,0.0,0.0,0.0,0.0,0.0,0.0,0.0,0.0,0.0,0.0,0.0,0.0,0.0,0.0,0.0,0.0,0.0,0.0,0.0,0.0,0.0,1.1781,1.1929,1.1815,1.1381,1.2217,1.2848,1.3217,1.4047,1.4524,1.4692,1.4692,1.4692,1.4692,1.4692,1.4692,1.4692,1.4692,1.4831,1.5,1.5222,1.5577,1.5765,1.4704,1.4298,1.4394,1.498,0.0,0.0,1.6485,0.0,0.0,1.7189,1.7391,0.0,1.6962,1.6679,0.0,1.6736,1.6421,1.6278,1.647,1.6006,0.0,1.6961,0.0,0.0,1.5995,1.4897,1.4275,1.4275,1.4155,0.0,1.4088,0.0,0.0,1.4088,1.4088,1.4088,0.0,0.0,1.4088,0.0,1.4088,1.4088,1.4088,1.4088,0.0,0.0,1.4275,1.4355,1.4469,1.4469,1.4309,1.4088,1.4088,1.4088,1.4088,1.4088,1.5026,1.6214,1.6576,1.7666,1.8807,1.9183,1.9301,1.9301,1.9301,1.9301,1.9301,1.9301,1.9127,1.8916,0.0,0.0,0.0,0.0,0.0,0.0,0.0,0.0,0.0,0.0,0.0,0.0,0.0,0.0,0.0,0.0,0.0,0.0,0.0,0.0,0.0,0.0,0.0,0.0,1.2415,1.2378,1.237,1.2318,1.2713,1.332,1.4184,1.4828,1.5276,1.5567,1.5567,1.5567,1.5567,1.5567,1.5567,1.5582,1.5772,1.5854,1.5959,1.6235,1.6582,1.685,1.6177,1.5663,1.5343,1.4412,0.0,0.0,0.0,0.0,0.0,0.0,1.6752,0.0,1.6854,0.0,1.6153,1.6189,1.5504,1.5082,1.5122,0.0,1.5431,1.6172,1.548,1.5369,1.6152,1.5119,1.4583,1.4583,1.4329,0.0,0.0,0.0,0.0,1.4088,1.4088,0.0,0.0,0.0,0.0,0.0,1.4128,1.4142,1.4148,1.4188,1.4355,1.4583,1.4583,1.4736,1.5008,1.5008,1.468,1.4202,1.4202,1.4202,1.4202,1.4202,1.4796,1.5619,1.6358,1.7261,1.8158,1.8935,1.9222,1.9301,1.9301,1.9301,1.9301,1.9301,1.9301,1.9201,1.8861,1.8751,1.8495,0.0,0.0,0.0,0.0,0.0,0.0,0.0,0.0,0.0,0.0,0.0,0.0,0.0,0.0,0.0,0.0,0.0,0.0,0.0,0.0,0.0,1.3039,1.301,1.3128,1.3314,0.0,1.3905,1.5242,1.5681,1.6196,1.6689,1.6689,1.6689,1.6689,1.6689,1.6721,1.6833,1.7151,1.7157,1.6936,1.7353,1.7529,1.7669,1.8041,1.7723,1.7052,0.0,0.0,0.0,0.0,0.0,1.6162,1.5422,1.5935,1.6177,1.5448,1.528,1.532,1.5513,1.5409,1.5418,1.5658,1.5678,0.0,0.0,0.0,0.0,1.5547,1.5127,1.4928,1.4928,1.4881,1.4689,0.0,0.0,0.0,1.4088,0.0,0.0,0.0,0.0,0.0,1.4102,1.4342,0.0,1.4469,1.471,1.4881,1.4928,1.4928,1.4961,1.5008,1.5008,1.4941,1.4854,1.4854,1.4854,1.4854,1.4854,1.5234,1.5739,1.5909,1.6913,1.8037,1.8198,1.8767,1.9301,1.9301,1.9301,1.9301,1.9301,1.9301,1.9283,1.921,1.8935,1.8669,1.8531,0.0,0.0,0.0,0.0,0.0,0.0,0.0,0.0,0.0,0.0,0.0,0.0,0.0,0.0,0.0,0.0,0.0,0.0,0.0,0.0,0.0,1.3651,0.0,0.0,0.0,1.4974,1.4823,1.637,1.6976,1.6689,1.6689,1.6689,1.6689,1.6689,1.6905,1.7191,1.7254,1.7557,1.8068,1.8386,1.8812,1.9217,1.9309,1.9455,1.9546,0.0,0.0,0.0,0.0,0.0,0.0,0.0,1.567,0.0,1.5295,1.5317,1.5464,1.5605,1.5618,1.5678,1.5771,1.5784,1.5784,1.5784,1.5698,1.5618,1.5618,1.5344,0.0,1.519,1.5082,1.4941,1.475,0.0,0.0,1.4309,0.0,0.0,0.0,0.0,1.4309,0.0,0.0,0.0,1.4763,1.4948,1.5102,1.519,1.519,1.5284,1.5411,1.5411,1.5411,1.5364,1.5109,1.5008,1.5008,1.5008,1.5471,1.6075,1.6075,1.6904,1.7912,1.843,1.8698,1.8949,1.9502,1.9467,1.9301,1.9301,1.9301,1.9301,1.9301,1.9155,1.8953,1.8751,1.8219,0.0,0.0,0.0,0.0,0.0,0.0,0.0,0.0,0.0,0.0,0.0,0.0,0.0,0.0,0.0,0.0,0.0,0.0,0.0,0.0,0.0,0.0,0.0,0.0,0.0,1.5733,1.6607,1.6902,1.6689,1.6689,1.6689,1.6689,1.6689,1.6945,1.7352,1.766,1.8112,1.8589,1.9031,1.9509,2.0011,2.0229,2.0645,2.0925,0.0,1.5062,0.0,0.0,1.5297,0.0,1.5491,1.5678,1.5698,1.5518,1.5691,1.5784,1.5784,1.5784,1.5784,1.5784,1.5784,1.5784,1.5784,1.5784,1.5784,1.5784,1.5611,1.5491,1.5491,1.5264,1.5117,0.0,0.0,0.0,0.0,0.0,0.0,0.0,0.0,0.0,0.0,0.0,1.5102,1.5109,1.5169,1.5284,1.5491,1.5491,1.5631,1.5784,1.5784,1.5784,1.5758,1.5304,1.515,1.515,1.515,1.5587,1.6106,1.6106,1.6713,1.7486,1.8275,1.8532,1.8724,1.9549,1.9579,1.9439,1.9439,1.9366,1.9301,1.9301,1.9301,1.9201,1.8898,1.8513,0.0,0.0,0.0,0.0,0.0,0.0,0.0,0.0,0.0,0.0,0.0,0.0,0.0,0.0,0.0,0.0,0.0,0.0,0.0,0.0,0.0,1.5802,1.5966,0.0,1.6565,1.6771,1.7017,1.7057,1.6976,1.6976,1.7016,1.7089,1.7089,1.738,1.7884,1.8471,1.8891,1.915,1.96,2.0056,2.051,2.0862,2.132,2.1597,0.0,0.0,0.0,0.0,0.0,0.0,1.5744,1.5764,1.5771,1.5792,1.5764,1.5784,1.5784,1.5784,1.5784,1.5784,1.5784,1.5784,1.5784,1.5784,1.5784,1.5784,1.5758,1.5744,1.5744,1.5758,1.5618,0.0,0.0,1.5044,0.0,0.0,0.0,0.0,0.0,0.0,0.0,1.5237,1.5357,1.5378,1.5645,1.5718,1.5744,1.5744,1.5758,1.5784,1.5784,1.5784,1.5771,1.5718,1.5752,1.5752,1.5752,1.5611,1.5489,1.5489,1.592,1.6441,1.6529,1.7775,1.9059,1.9144,1.949,1.9829,1.9829,1.9577,1.9301,1.9301,1.9301,1.9292,1.9256,1.8926,1.8522,0.0,0.0,0.0,0.0,0.0,0.0,0.0,0.0,0.0,0.0,0.0,0.0,0.0,0.0,0.0,0.0,0.0,0.0,1.4677,0.0,1.5848,1.4948,1.6968,1.7655,1.6992,1.804,1.829,1.7878,1.7878,1.8097,1.8404,1.8404,1.8863,1.9606,1.9971,2.0121,2.0155,2.0201,2.051,2.0952,2.0997,2.132,2.1696,0.0,0.0,0.0,0.0,0.0,0.0,0.0,1.6246,1.6353,1.6353,1.6206,1.6159,1.6339,1.6353,1.6353,1.6353,1.6353,1.6279,1.6106,1.6092,1.6012,1.5791,1.5784,1.5784,1.5784,1.5784,1.5772,0.0,0.0,0.0,0.0,0.0,0.0,0.0,0.0,1.5224,1.5244,1.5531,1.5658,1.5665,1.5785,1.5784,1.5784,1.5784,1.5784,1.5784,1.5784,1.5784,1.5784,1.5784,1.5784,1.5927,1.6534,1.6216,1.5745,1.6353,1.6725,1.7029,1.7652,1.8625,1.9618,2.0181,2.0271,2.0241,2.0241,1.993,1.9677,1.9677,1.9476,1.9301,1.9301,1.9173,1.8935,0.0,0.0,0.0,0.0,0.0,0.0,0.0,0.0,0.0,0.0,0.0,0.0,0.0,0.0,0.0,0.0,0.0,0.0,1.563,0.0,1.7092,1.6446,1.7791,1.8214,1.7619,1.808,1.8161,1.8008,1.8263,1.8562,1.8973,1.9213,1.9488,1.9841,2.0183,2.0292,2.0292,2.0292,2.06,2.0997,2.0997,2.132,2.1696,1.5959,0.0,1.6037,0.0,1.6259,1.64,1.64,1.6573,1.6734,1.682,1.666,1.6623,1.6693,1.6707,1.6707,1.6707,1.6707,1.662,1.6413,1.64,1.6266,1.5972,1.5959,0.0,1.5784,1.5784,1.5784,1.5784,1.5625,0.0,0.0,0.0,0.0,0.0,1.5431,1.5524,1.5538,1.5745,1.5784,1.5784,1.5784,1.5784,1.5784,1.5784,1.5784,1.5784,1.5784,1.5784,1.5784,1.5784,1.5784,1.592,1.6629,1.6574,1.6393,1.7091,1.7512,1.7924,1.8611,1.934,2.0041,2.0703,2.0764,2.0695,2.0695,2.0383,2.0031,1.9912,1.9595,1.9301,1.9301,1.9301,1.9173,1.8779,0.0,0.0,0.0,0.0,0.0,0.0,1.7082,1.7037,1.6917,0.0,0.0,0.0,0.0,0.0,0.0,0.0,0.0,0.0,0.0,0.0,0.0,1.8433,1.8723,1.8393,1.8393,1.8455,1.8586,1.9116,1.9475,1.9798,2.0158,2.0377,2.0395,2.0631,2.0699,2.0699,2.0699,2.0916,2.1221,2.1221,2.141,2.1696,1.6266,1.65,1.6693,1.6693,1.67,1.67,1.67,1.67,1.6814,1.7159,1.7192,1.7079,1.674,1.6707,1.6707,1.6707,1.6707,1.6707,1.67,1.67,1.6573,0.0,0.0,1.6126,1.5791,1.5784,1.5784,1.5784,0.0,0.0,1.5398,0.0,1.5545,1.5771,1.5771,1.5778,1.5778,1.5784,1.5784,1.5784,1.5784,1.5784,1.5784,1.5784,1.5784,1.5784,1.5784,1.5784,1.5784,1.5784,1.5784,1.5784,1.5825,1.648,1.7279,1.7279,1.801,1.8788,1.8788,1.9521,2.0294,2.0294,2.0678,2.1099,2.1099,2.0796,2.036,1.9966,1.9595,1.9301,1.9301,1.9301,1.9173,1.8779,0.0,0.0,0.0,0.0,0.0,0.0,1.7486,1.7339,1.6945,0.0,0.0,0.0,0.0,0.0,0.0,0.0,0.0,1.6411,1.789,0.0,1.7596,1.8737,1.9301,1.9262,1.9262,1.9472,1.9902,2.0689,2.1055,2.1083,2.1495,2.1687,2.1687,2.1687,2.1696,2.1696,2.1696,2.1696,2.1687,2.1687,2.1696,2.1696,1.6567,1.664,1.6707,1.6707,1.6874,1.7058,1.7058,1.7174,1.7335,1.7481,1.7442,1.7408,1.7315,1.7301,1.7301,0.0,1.7301,1.7221,0.0,1.7058,1.6874,1.658,1.6567,1.6433,1.6139,1.6132,1.6032,1.5784,0.0,0.0,0.0,1.5691,1.5738,1.5784,1.5784,1.5784,1.5784,1.5784,1.5784,1.5784,1.5784,1.5784,1.5784,1.5784,1.5784,1.5784,1.5784,1.5784,1.5784,1.5784,1.5784,1.5784,1.5784,1.6015,1.6527,1.7917,1.8565,1.8926,1.9658,2.0529,2.1266,2.1266,2.1355,2.1495,2.1495,2.1218,2.0805,2.0369,1.9976,1.9692,1.9692,1.9494,1.9256,1.9136,1.9118,0.0,0.0,0.0,0.0,0.0,1.7926,1.788,0.0,1.7734,0.0,0.0,0.0,0.0,0.0,0.0,0.0,0.0,1.8279,0.0,1.8359,1.8982,1.9301,1.9301,1.9595,2.004,2.0741,2.0998,2.1264,2.1504,2.1632,2.1696,2.1696,2.1696,2.1696,2.1696,2.1696,2.1696,2.1696,2.1696,2.1696,2.1696,1.6874,1.6961,1.7034,1.7034,1.7188,1.7367,1.7367,1.7468,1.7582,1.7582,1.7582,1.7582,1.7582,1.7582,0.0,1.7582,1.7582,1.7508,1.7373,1.7367,1.7233,1.6887,1.6874,1.6734,1.644,1.6433,0.0,1.5999,1.5838,1.5784,1.5784,1.5784,1.5784,1.5784,1.5784,1.5784,1.5784,1.5784,1.5784,1.5784,1.5784,1.5784,1.5784,1.5784,1.5784,1.5784,1.5784,1.5784,1.5784,1.5784,1.5784,1.5784,1.5784,1.6062,1.6622,1.787,1.8788,1.9521,2.0113,2.0997,2.1696,2.1696,2.1696,2.1696,2.1696,2.141,2.1034,2.0796,2.0429,2.0067,1.9921,1.9674,1.9485,1.9329,1.9301,1.9219,1.8971,0.0,0.0,0.0,0.0,0.0,0.0,1.8091,1.8145,0.0,0.0,0.0,0.0,0.0,0.0,1.8339,1.8733,0.0,1.8935,1.9173,1.9384,1.954,2.0108,2.0631,2.1117,2.1273,2.144,2.1696,2.1696,2.1696,2.1696,2.1696,2.1696,2.1696,2.1696,2.1696,2.1696,2.1696,2.1696,2.1696,1.7233,1.7454,1.7582,0.0,1.7582,0.0,1.7582,1.7582,1.7582,1.7582,1.7582,1.7582,1.7582,1.7582,1.7582,1.7582,0.0,0.0,0.0,1.7582,1.7514,1.7246,1.7233,1.7092,1.674,1.6734,1.6593,1.6348,1.6005,1.5811,1.5811,1.5791,1.5784,1.5784,1.5784,1.5784,1.5784,1.5784,1.5784,1.5784,1.5784,1.5784,1.5784,1.5784,1.5784,1.5784,1.5784,1.5825,1.592,1.592,1.5967,1.6015,1.6015,1.6669,1.7372,1.7326,1.865,2.0204,2.0294,2.0952,2.1642,2.1696,2.1696,2.1696,2.1696,2.1385,2.1145,2.1145,2.0833,2.0448,2.004,1.9948,1.9793,1.9412,1.9347,1.9329,1.9301,0.0,0.0,0.0,0.0,0.0,0.0,1.8164,1.8319,0.0,0.0,0.0,0.0,0.0,1.8751,1.8751,1.9109,1.932,1.9347,1.9347,1.9567,1.9976,2.075,2.1117,2.1163,2.1513,2.1696,2.1696,2.1696,2.1696,2.1696,2.1696,2.1696,2.1696,2.1696,2.1696,2.1696,2.1696,2.1696,2.1696,0.0,0.0,1.7582,1.7582,1.7582,1.7582,1.7582,1.7582,1.7582,1.7582,1.7582,1.7582,1.7582,1.7582,1.7582,1.7582,1.7582,1.7582,1.7582,1.7582,1.7549,1.7534,1.7534,1.7393,1.7099,1.7099,1.6951,1.6607,1.6313,1.6166,1.6166,1.5939,1.5784,1.5784,1.5784,1.5784,1.5784,1.5784,1.5784,1.5784,1.5784,1.5784,1.5784,1.5784,1.5784,1.5784,1.5784,1.6298,1.6951,1.6951,1.7451,1.8095,1.8095,1.8234,1.8288,1.7512,1.8195,1.9338,2.0068,2.0484,2.0808,2.1508,2.1696,2.1696,2.1696,2.1614,2.1549,2.1549,2.1255,2.0943,2.0842,2.0543,2.0246,1.9802,1.9747,1.9668,1.9347,1.9301,0.0,0.0,1.9164,1.9127,1.9036,1.9026,1.9063,0.0,0.0,0.0,0.0,1.921,1.9164,1.9164,1.9256,1.9457,1.9738,1.9747,2.0095,2.0833,2.1016,2.1273,2.1549,2.165,2.1696,2.1696,2.1696,2.1696,2.1696,2.1696,2.1696,2.1696,2.1696,2.1696,2.1696,2.1696,2.1696,2.1696,1.7582,1.7582,1.7582,1.7582,1.7582,1.7582,1.7582,1.7582,1.7582,1.7582,1.7582,1.7582,1.7582,1.7582,1.7582,1.7582,1.7582,1.7582,1.7582,1.7582,1.7582,1.7582,1.7582,1.7508,1.7407,1.74,1.7253,1.6907,1.6613,1.6473,1.6466,1.6172,1.6032,1.6025,1.5885,1.5784,1.5784,1.5784,1.5784,1.5784,1.5784,1.5784,1.5784,1.5784,1.5784,1.5784,1.5784,1.644,1.7279,1.7279,1.7971,1.8788,1.8788,1.9109,1.9293,1.8288,1.8703,1.9613,2.0158,2.0619,2.1042,2.1553,2.1696,2.1696,2.1696,2.1696,2.1696,2.1696,2.1513,2.1337,2.1145,2.0934,2.0659,2.0223,2.0159,2.0012,1.965,1.9586,0.0,1.932,1.9301,1.9301,1.9301,1.9301,1.9301,1.9301,1.9301,0.0,1.9577,1.9586,1.9586,1.9586,1.9586,1.9787,2.0159,2.0383,2.0686,2.1108,2.13,2.1476,2.1696,2.1696,2.1696,2.1696,2.1696,2.1696,2.1696,2.1696,2.1696,2.1696,2.1696,2.1696,2.1696,2.1696,2.1696,2.1696,1.7582,1.7582,1.7582,1.7582,1.7582,1.7582,1.7582,1.7582,1.7582,1.7582,1.7582,1.7582,1.7582,1.7582,1.7582,1.7582,1.7582,1.7582,1.7582,1.7582,1.7582,1.7582,1.7582,1.7582,1.7582,1.7582,1.7514,1.7266,1.6921,1.6774,1.6767,1.6473,1.6339,1.6326,1.6072,1.5959,1.5959,1.5959,1.5959,1.5911,1.5912,1.5899,1.5892,1.5798,1.5784,1.5784,1.5784,1.644,1.7326,1.7466,1.8195,1.9063,1.9201,1.9795,2.0348,1.9484,1.984,2.0484,2.0339,2.0997,2.1696,2.1696,2.1696,2.1696,2.1696,2.1696,2.1696,2.1696,2.1696,2.1586,2.1273,2.12,2.1071,2.0677,2.0613,2.0466,2.0031,0.0,1.9847,1.9531,1.9485,1.9485,1.9485,1.9485,1.9485,1.9485,1.9485,1.9641,1.9957,1.9976,2.0003,2.0067,2.0003,2.0168,2.0604,2.1007,2.12,2.1209,2.1522,2.1696,2.1696,2.1696,2.1696,2.1696,2.1696,2.1696,2.1696,2.1696,2.1696,2.1696,2.1696,2.1696,2.1696,2.1696,2.1696,2.1696,1.7582,1.7582,1.7582,1.7582,1.7582,1.7582,1.7582,1.7582,1.7582,1.7582,1.7582,1.7582,1.7582,1.7582,1.7582,1.7582,1.7582,1.7582,1.7582,1.7582,1.7582,1.7582,1.7582,1.7582,1.7582,1.7582,1.7562,1.7515,1.7273,1.7132,1.7125,1.678,1.664,1.664,1.6587,1.6573,1.6573,1.6573,1.6573,1.6547,1.6306,1.6206,1.6179,1.5925,1.5784,1.5784,1.5784,1.644,1.7419,1.8288,1.9247,2.0212,2.0997,2.1365,2.1463,2.132,2.1365,2.132,2.0529,2.0997,2.1696,2.1696,2.1696,2.1696,2.1696,2.1696,2.1696,2.1696,2.1696,2.1668,2.1604,2.1595,2.1502,2.108,2.1016,2.0879,2.0484,0.0,2.036,2.0338,2.0328,2.0328,2.0328,2.0328,2.0328,2.0328,2.0328,2.0356,2.0378,2.0429,2.0576,2.0915,2.0594,2.0613,2.1007,2.1385,2.1595,2.1595,2.1659,2.1696,2.1696,2.1696,2.1696,2.1696,2.1696,2.1696,2.1696,2.1696,2.1696,2.1696,2.1696,2.1696,2.1696,2.1696,2.1696,2.1696,1.7582,1.7582,1.7582,1.7582,1.7582,1.7582,1.7582,1.7582,1.7582,1.7582,1.7582,1.7582,1.7582,1.7582,1.7582,1.7582,1.7582,1.7582,1.7582,1.7582,1.7582,1.7582,1.7582,1.7582,1.7582,1.7582,1.7582,1.7582,1.7501,1.7434,1.7427,1.7132,1.7296,1.778,1.7025,1.705,1.7591,1.695,1.6707,1.6693,1.656,1.6506,1.6493,1.6353,1.6299,1.6299,1.6299,1.6926,1.7816,1.8155,1.9252,2.056,2.087,2.1275,2.1696,2.1696,2.1696,2.1597,2.1177,2.1365,2.1696,2.1696,2.1696,2.1696,2.1696,2.1696,2.1696,2.1696,2.1696,2.1696,2.1696,2.1696,2.1632,2.1431,2.1403,0.0,2.0897,2.0833,2.0759,2.0549,2.0521,2.0521,2.0521,2.0521,2.0521,2.0521,2.0521,2.0613,2.0824,2.0833,2.1025,2.1385,2.1229,2.122,2.1403,2.1595,2.1696,2.1696,2.1696,2.1696,2.1696,2.1696,2.1696,2.1696,2.1696,2.1696,2.1696,2.1696,2.1696,2.1696,2.1696,2.1696,2.1696,2.1696,2.1696,2.1696,1.7582,1.7582,1.7582,1.7582,1.7582,1.7582,1.7582,1.7582,1.7582,1.7582,1.7582,1.7582,1.7582,1.7582,1.7582,1.7582,1.7582,1.7582,1.7582,1.7582,1.7582,1.7582,1.7582,1.7582,1.7582,1.7582,1.7582,1.7582,1.7582,1.7582,1.7582,1.7407,1.786,1.8855,1.7509,1.7507,1.8503,1.7406,1.6907,1.6901,1.6834,1.6807,1.68,1.6734,1.6707,1.6707,1.6707,1.72,1.786,1.786,1.905,2.0508,2.0508,2.1217,2.1952,2.1861,2.176,2.1696,2.1696,2.1696,2.1696,2.1696,2.1696,2.1696,2.1696,2.1696,2.1696,2.1696,2.1696,2.1696,2.1696,2.1696,2.1696,2.1696,0.0,2.1577,0.0,2.1255,2.1145,2.0842,2.0796,2.0796,2.0796,2.0796,2.0796,2.0796,2.0796,2.0891,2.1236,2.1255,2.1401,2.1678,2.1696,2.1696,2.1696,2.1696,2.1696,2.1696,2.1696,2.1696,2.1696,2.1696,2.1696,2.1696,2.1696,2.1696,2.1696,2.1696,2.1696,2.1696,2.1696,2.1696,2.1696,2.1696,2.1696,2.1696,1.7582,1.7582,1.7582,1.7582,1.7582,1.7582,1.7582,1.7582,1.7582,1.7582,1.7582,1.7582,1.7582,1.7582,1.7582,1.7582,1.7582,1.7582,1.7582,1.7582,1.7582,1.7582,1.7582,1.7582,1.7582,1.7582,1.7582,1.7582,1.7582,1.7582,1.7582,1.7562,1.8112,1.9139,1.8039,1.813,1.9051,1.798,1.7515,1.7495,1.7273,1.7166,1.7139,1.6807,1.6707,1.6707,1.6707,1.6757,1.695,1.7867,1.892,2.0015,2.092,2.1937,2.2739,2.2355,2.198,2.1696,2.1696,2.1696,2.1696,2.1696,2.1696,2.1696,2.1696,2.1696,2.1696,2.1696,2.1696,2.1696,2.1696,2.1696,2.1696,2.1696,0.0,0.0,2.165,2.165,2.1632,2.1604,2.1604,2.1604,2.1604,2.1604,2.1604,2.1604,2.1604,2.1614,2.1641,2.165,2.1659,2.1696,2.1696,2.1696,2.1696,2.1696,2.1696,2.1696,2.1696,2.1696,2.1696,2.1696,2.1696,2.1696,2.1696,2.1696,2.1696,2.1696,2.1696,2.1696,2.1696,2.1696,2.1696,2.1696,2.1696,2.1696,1.8143,1.8143,1.8143,1.8143,1.8143,1.8143,1.8143,1.8143,1.8143,1.8143,1.7989,1.7869,1.7869,1.7695,1.7582,1.7582,1.7582,1.7582,1.7582,1.7582,1.7582,1.7582,1.7582,1.7582,1.7582,1.7582,1.7582,1.7582,1.7582,1.7582,1.7582,1.7582,1.8146,1.9176,1.8094,1.8617,2.0158,1.9079,1.8975,1.9635,1.9567,1.9514,1.9499,1.9372,1.9327,1.9327,1.9327,1.9327,1.9348,1.9487,2.0253,2.1144,2.136,2.212,2.2876,2.2712,2.2565,2.2446,2.2446,2.208,2.1696,2.1696,2.1696,2.1696,2.1696,2.1696,2.1696,2.1696,2.1696,2.1696,2.1696,2.1696,2.1696,2.1696,0.0,2.1696,2.1696,2.1696,2.1696,2.1696,2.1696,2.1696,2.1696,2.1696,2.1696,2.1696,2.1696,2.1696,2.1696,2.1696,2.1696,2.1696,2.1696,2.1696,2.1696,2.1696,2.1696,2.1696,2.1696,2.1696,2.1696,2.1696,2.1696,2.1696,2.1696,2.1696,2.1696,2.1696,2.1696,2.1696,2.1696,2.1696,2.1696,2.1696,2.1696,2.1696,1.849,1.849,1.849,1.849,1.849,1.849,1.849,1.849,1.849,1.849,1.831,1.8135,1.8135,1.7996,1.7869,1.7869,1.7869,1.7829,1.7736,1.7635,1.7582,1.7582,1.7582,1.7582,1.7582,1.7582,1.7582,1.7582,1.7943,1.7943,1.7635,1.7943,1.8513,1.9176,1.8094,1.8819,2.0834,1.9694,1.9849,2.0885,2.0885,2.0885,2.0885,2.0885,2.0885,2.0885,2.0885,2.0885,2.0845,2.0649,2.1221,2.2081,2.1873,2.2403,2.3096,2.3096,2.3004,2.2904,2.2904,2.2501,2.2044,2.1906,2.1778,2.1696,2.1696,2.1696,2.1696,2.1696,2.1696,2.1696,2.1696,2.1696,2.1696,2.1696,2.1696,2.1696,2.1696,2.1696,2.1696,2.1696,2.1696,2.1696,2.1696,2.1696,2.1696,2.1696,2.1696,2.1696,2.1696,2.1696,2.1696,2.1696,2.1696,2.1696,2.1696,2.1696,2.1696,2.1696,2.1696,2.1696,2.1696,2.1696,2.1696,2.1696,2.1696,2.1696,2.1696,2.1696,2.1696,2.1696,2.1696,2.1696,2.1696,2.1696,2.1696,2.1696,1.8497,1.8497,1.8497,1.8497,1.8497,1.8497,1.8497,1.8497,1.8497,1.8497,1.8497,1.8497,1.8497,1.849,1.849,1.849,1.849,1.8364,1.8015,1.7762,1.7641,1.7589,1.7582,1.7582,1.7582,1.7582,1.7582,1.7635,1.8662,1.8662,1.7635,1.8715,1.9176,1.9124,1.8094,1.8819,2.0834,1.9694,1.9849,2.0936,2.0936,2.0936,2.0936,2.0936,2.0936,2.0936,2.0936,2.0936,2.0936,2.0936,2.165,2.2526,2.2526,2.2973,2.3499,2.3499,2.3224,2.2922,2.2922,2.2913,2.2812,2.2391,2.1989,2.1705,2.1696,2.1696,2.1696,2.1696,2.1696,2.1696,2.1696,2.1696,2.1696,2.1696,2.1696,2.1696,2.1696,2.1696,2.1696,2.1696,2.1696,2.1696,2.1696,2.1696,2.1696,2.1696,2.1696,2.1696,2.1696,2.1696,2.1696,2.1696,2.1696,2.1696,2.1696,2.1696,2.1696,2.1696,2.1696,2.1696,2.1696,2.1696,2.1696,2.1696,2.1696,2.1696,2.1696,2.1696,2.1696,2.1696,2.1696,2.1696,2.1696,2.1696,2.1696,2.1696,1.9105,1.9105,1.9105,1.9105,1.9105,1.9105,1.9105,1.9105,1.9105,1.9105,1.8925,1.8791,1.8791,1.8611,1.849,1.849,1.849,1.8457,1.8364,1.9075,1.9029,1.7916,1.7702,1.7582,1.7582,1.7582,1.7996,1.8715,1.902,1.902,1.8715,1.9072,1.8819,1.8048,1.774,1.8356,1.9694,1.9332,2.0313,2.2013,2.2013,2.2518,2.3229,2.3229,2.3229,2.3229,2.3229,2.3229,2.3229,2.3229,2.3438,2.3696,2.3696,2.3813,2.3969,2.3969,2.3886,2.3794,2.3794,2.3584,2.3224,2.2821,2.2629,2.2474,2.2172,2.2099,2.2025,2.1751,2.1696,2.1696,2.1696,2.1696,2.1696,2.1696,2.1696,2.1696,2.1696,2.1696,2.1696,2.1696,2.1696,2.1696,2.1696,2.1696,2.1696,2.1696,2.1696,2.1696,2.1696,2.1696,2.1696,2.1696,2.1696,2.1696,2.1696,2.1696,2.1696,2.1696,2.1696,2.1696,2.1696,2.1696,2.1696,2.1696,2.1696,2.1696,2.1696,2.1696,2.1696,2.1696,2.1696,2.1696,2.1696,2.1696,2.1696,2.1696,1.9424,1.9424,1.9424,1.9424,1.9424,1.9424,1.9424,1.9424,1.9424,1.9424,1.9212,1.9098,1.9098,1.8945,1.8838,1.8838,1.8731,1.8657,1.8657,1.9692,1.9863,1.8979,1.9199,1.9024,1.8258,1.8662,1.9235,1.9849,2.0313,2.0313,1.9901,2.0313,1.9694,1.8251,1.8251,1.861,1.9176,1.9176,2.0467,2.2476,2.2476,2.3188,2.4202,2.4202,2.4202,2.4202,2.4202,2.4202,2.4202,2.4202,2.4202,2.4202,2.4202,2.4202,2.4202,2.4202,2.4202,2.4202,2.4202,2.3969,2.373,2.3483,2.3142,2.284,2.2584,2.2529,2.2456,2.2143,2.2105,2.2059,2.1991,2.1998,2.1954,2.1874,2.1874,2.183,2.1687,2.1696,2.1696,2.1696,2.1696,2.1696,2.1696,2.1696,2.1696,2.1696,2.1785,2.183,2.1696,2.1785,2.1874,2.1874,2.1785,2.1731,2.1874,2.1731,2.1696,2.1696,2.1696,2.1696,2.1696,2.1696,2.1696,2.1696,2.1696,2.1696,2.1696,2.1696,2.1696,2.1696,2.1696,2.1696,2.1696,2.1696,2.1696,2.1696,1.9424,1.9424,1.9424,1.9424,1.9424,1.9424,1.9424,1.9424,1.9424,1.9424,1.9424,1.9424,1.9424,1.9424,1.9424,1.9424,1.9118,1.8965,1.8965,1.9862,2.0398,2.0314,2.1604,2.1443,1.9636,2.0478,2.0968,2.1038,2.2013,2.2013,2.1038,2.2064,2.1395,1.9332,1.9332,1.928,1.9176,1.9176,2.0408,2.2375,2.2274,2.3029,2.4202,2.4102,2.4102,2.4202,2.4202,2.4202,2.4202,2.4202,2.4202,2.4202,2.4202,2.4202,2.4202,2.4202,2.4202,2.4202,2.4202,2.4202,2.4251,2.4251,2.365,2.3052,2.2968,2.2959,2.2934,2.2787,2.2749,2.2682,2.2532,2.2473,2.241,2.2241,2.2169,2.2052,2.1776,2.1741,2.1741,2.1696,2.1696,2.1696,2.1696,2.1696,2.1696,2.1696,2.1963,2.2008,2.1741,2.1963,2.2141,2.2141,2.1874,2.1874,2.2141,2.1865,2.1741,2.1696,2.1696,2.1696,2.1696,2.1696,2.1696,2.1696,2.1696,2.1696,2.1696,2.1696,2.1696,2.1696,2.1696,2.1696,2.1696,2.1696,2.1741,2.1741,1.9424,1.9424,1.9424,1.9424,1.9424,1.9424,1.9424,1.9424,1.9424,1.9424,1.9424,1.9424,1.9424,1.9424,1.9424,1.9424,1.9305,1.9272,1.9272,2.0387,2.0908,2.0596,2.2604,2.3426,2.2753,2.1836,2.162,2.2165,2.2375,2.2375,2.2165,2.2375,2.1802,2.0518,2.0518,2.0055,1.9176,1.9176,2.0004,2.1191,2.0261,2.1633,2.4102,2.3188,2.3438,2.4202,2.4202,2.4202,2.4202,2.4202,2.4202,2.4202,2.4202,2.4202,2.4202,2.4202,2.4202,2.4202,2.4202,2.4291,2.443,2.443,2.4457,2.4291,2.354,2.337,2.3347,2.3205,2.3168,2.3233,2.338,2.3142,2.2934,2.2889,2.257,2.2264,2.2052,2.2008,2.1919,2.1741,2.1696,2.1696,2.1696,2.1696,2.1696,2.1696,2.1963,2.2052,2.2008,2.223,2.2353,2.2353,2.2264,2.2264,2.2353,2.2264,2.2043,2.1696,2.1696,2.1696,2.1696,2.1696,2.1696,2.1696,2.1696,2.1696,2.1696,2.1696,2.1696,2.1696,2.1696,2.1696,2.1696,2.1696,2.183,2.2008,1.9424,1.9424,1.9424,1.9424,1.9424,1.9424,1.9424,1.9424,1.9424,1.9424,1.9424,1.9424,1.9424,1.9424,1.9424,1.9424,1.9424,1.9424,1.9424,2.0558,2.1378,2.1762,2.3527,2.457,2.4774,2.4026,2.3609,2.358,2.358,2.3474,2.3288,2.3288,2.2728,2.1658,2.1658,2.1038,2.0004,2.0004,2.0672,2.1607,2.103,2.2156,2.4152,2.3538,2.3696,2.4202,2.4202,2.4202,2.4202,2.4202,2.4202,2.4202,2.4291,2.4341,2.439,2.4498,2.4548,2.4548,2.4548,2.4587,2.4677,2.4677,2.4784,2.4777,2.4268,2.4173,2.4149,2.3975,2.3985,2.3966,2.4036,2.3871,2.3681,2.3589,2.3362,2.3052,2.2638,2.2565,2.2445,2.2071,2.2043,2.2043,2.2043,2.2043,2.1998,2.1919,2.223,2.2318,2.2097,2.2397,2.2574,2.2574,2.2485,2.2441,2.2574,2.2441,2.2264,2.2043,2.2043,2.2043,2.2043,2.1919,2.1874,2.1874,2.1785,2.1696,2.1696,2.1696,2.1696,2.1696,2.1696,2.1696,2.1741,2.183,2.2052,2.222,1.9424,1.9424,1.9424,1.9424,1.9424,1.9424,1.9424,1.9424,1.9424,1.9424,1.9424,1.9424,1.9424,1.9424,1.9424,1.9424,1.9424,1.9424,1.9424,2.0328,2.146,2.2644,2.3656,2.4688,2.5792,2.5783,2.5516,2.4886,2.4886,2.4702,2.4413,2.4339,2.3795,2.2882,2.2813,2.2165,2.1191,2.1191,2.1709,2.2476,2.2325,2.3029,2.4202,2.3994,2.4053,2.4202,2.4202,2.4202,2.4202,2.4202,2.4202,2.4251,2.444,2.448,2.4529,2.4833,2.4883,2.4883,2.4883,2.4932,2.499,2.499,2.4981,2.5039,2.5039,2.499,2.4886,2.4794,2.4775,2.4755,2.4614,2.458,2.4485,2.4309,2.4195,2.3938,2.3355,2.3262,2.3093,2.2688,2.2539,2.2473,2.2397,2.2397,2.2309,2.2141,2.2539,2.2627,2.223,2.2627,2.2847,2.2847,2.2662,2.2618,2.2847,2.2618,2.252,2.252,2.252,2.2485,2.2388,2.223,2.2141,2.2141,2.1909,2.182,2.182,2.182,2.1785,2.1785,2.1785,2.1741,2.1741,2.2052,2.2264,2.2485,1.9424,1.9424,1.9424,1.9424,1.9424,1.9424,1.9424,1.9424,1.9424,1.9424,1.9424,1.9424,1.9424,1.9424,1.9424,1.9424,1.9424,1.9424,1.9424,1.954,2.0155,2.1402,2.1623,2.2725,2.4922,2.4986,2.5101,2.5341,2.5341,2.5313,2.5249,2.4858,2.4642,2.4472,2.4108,2.3338,2.2266,2.2266,2.2375,2.2426,2.1497,2.2367,2.4102,2.3088,2.3338,2.4202,2.4202,2.4202,2.4202,2.4202,2.4202,2.4251,2.444,2.448,2.4529,2.4833,2.4883,2.4883,2.4883,2.5088,2.5235,2.5235,2.544,2.5586,2.5586,2.5235,2.4971,2.5168,2.5207,2.5285,2.547,2.5244,2.498,2.498,2.4612,2.4266,2.3977,2.3977,2.3855,2.3567,2.3199,2.2839,2.2426,2.2397,2.2397,2.2353,2.2618,2.2759,2.2715,2.2925,2.3057,2.3057,2.3003,2.3013,2.3057,2.3013,2.3003,2.3003,2.3003,2.2794,2.2397,2.2353,2.2353,2.2353,2.2309,2.2309,2.2309,2.2309,2.222,2.2052,2.2052,2.1919,2.1731,2.222,2.253,2.2759,1.9424,1.9424,1.9424,1.9424,1.9424,1.9424,1.9424,1.9424,1.9424,1.9424,1.9424,1.9424,1.9424,1.9424,1.9424,1.9424,1.9424,1.9424,1.9424,1.9424,1.9931,2.1174,2.1174,2.2021,2.3768,2.4445,2.4899,2.5048,2.5484,2.5635,2.5414,2.5197,2.5166,2.5157,2.5117,2.4729,2.4148,2.4259,2.4259,2.4106,2.3625,2.3994,2.4831,2.4311,2.4413,2.4882,2.4882,2.4744,2.456,2.456,2.4395,2.4251,2.4587,2.4735,2.4784,2.5235,2.5342,2.5342,2.5342,2.543,2.5538,2.5538,2.5586,2.5693,2.5693,2.5538,2.5382,2.5489,2.5538,2.5538,2.5684,2.5528,2.5439,2.5439,2.5283,2.5021,2.4683,2.4644,2.451,2.4119,2.3927,2.3744,2.356,2.3541,2.3345,2.298,2.3194,2.3187,2.2813,2.3013,2.3091,2.3091,2.3091,2.3091,2.3091,2.3091,2.3091,2.3091,2.3091,2.3003,2.2794,2.2662,2.2618,2.2618,2.2485,2.2397,2.2397,2.2397,2.2353,2.2264,2.2264,2.2599,2.3149,2.3877,2.4264,2.4478]}]]